[[[{"header":{"parameterUnit":"kt","parameterCategory":2,"dx":1,"dy":1,"la1":29.285339999999998,"la2":30.599998999999997,"lo1":-89.70041500000002,"lo2":-87.6738589999976,"nx":112,"ny":82,"refTime":"2022-09-19T18:00:00:Z","depth":0,"parameterNumber":1,"parameterNumberName":"U-component_of_WINDS"},"data":[-1.6019,-1.4539,-1.3289,-1.4144,-1.3481,-1.2411,-1.2116,-1.1502,-1.0655,-0.9409,-0.8693,-0.8173,-0.7653,-0.7467,-0.7347,-0.7102,-0.727,-0.7444,0.0,-0.7021,0.0,0.0,0.0,0.0,0.0,0.0,0.0,0.0,0.0,-1.3174,-1.2819,-1.329,-1.3604,-1.3761,-1.3342,-1.2807,-1.2069,-1.0478,-0.9305,-0.8341,-0.7391,-0.6635,-0.5976,-0.5976,-0.5877,-0.5452,-0.5339,-0.523,-0.523,-0.523,-0.523,-0.523,-0.523,-0.523,-0.523,-0.523,-0.523,-0.523,-0.523,-0.523,-0.523,-0.523,-0.523,-0.5122,-0.4792,-0.4572,-0.4463,-0.3697,-0.3263,-0.25,-0.0327,0.0545,0.1199,0.3055,0.3493,0.3493,0.3493,0.3493,0.3493,0.3493,0.3493,0.3493,0.3493,0.3599,0.368,0.339,0.3279,0.3601,0.4889,0.5413,0.6273,0.7622,0.8636,0.9294,0.9331,0.9856,1.0545,1.148,1.148,1.1829,1.2686,1.3301,1.3559,1.3559,1.4527,1.5038,1.5038,1.5489,1.5559,1.5332,1.5332,1.5204,-1.5939,-1.4394,-1.3095,-1.343,-1.2654,-1.1616,-1.1073,-1.0498,-0.9776,-0.8599,-0.816,-0.7798,-0.7247,-0.7236,-0.7285,-0.7211,-0.736,-0.7536,0.0,-0.7693,0.0,0.0,0.0,0.0,0.0,0.0,0.0,0.0,-1.3992,0.0,-1.3269,-1.3634,-1.3887,-1.3772,-1.3772,-1.3447,-1.2596,-1.1434,-1.0258,-0.887,-0.8031,-0.7067,-0.6197,-0.6197,-0.6089,-0.5773,-0.5552,-0.5448,-0.5339,-0.5339,-0.5339,-0.523,-0.523,-0.523,-0.523,-0.523,-0.523,-0.523,-0.523,-0.523,-0.523,-0.523,-0.523,-0.5122,-0.4684,-0.4572,-0.4463,-0.3917,-0.3806,-0.3154,-0.0762,-0.0109,0.0436,0.2837,0.3384,0.3384,0.3493,0.3493,0.3493,0.3493,0.3493,0.3493,0.3493,0.3427,0.3348,0.3268,0.3157,0.3365,0.4133,0.493,0.5667,0.6605,0.7843,0.8652,0.8592,0.9172,0.9925,1.0915,1.1239,1.181,1.2649,1.3565,1.4069,1.4069,1.4666,1.499,1.499,1.499,1.499,1.499,1.499,1.499,-1.6606,-1.5097,-1.3615,-1.3096,-1.2089,-1.1067,-1.0382,-0.9756,-0.9095,-0.815,-0.7982,-0.7792,-0.7169,-0.6748,-0.6761,-0.7509,-0.7552,0.0,0.0,-0.8642,0.0,0.0,0.0,0.0,0.0,-1.3865,-1.4668,0.0,-1.5382,-1.5609,-1.371,-1.3964,-1.4107,-1.3876,-1.3772,-1.3772,-1.3772,-1.2596,-1.1434,-1.0258,-0.9312,-0.8031,-0.6743,-0.6635,-0.6521,-0.6192,-0.6084,-0.5872,-0.5669,-0.5669,-0.5452,-0.523,-0.523,-0.523,-0.523,-0.523,-0.523,-0.523,-0.523,-0.523,-0.523,-0.523,-0.523,-0.523,-0.523,-0.523,-0.5122,-0.4463,-0.4355,-0.37,-0.1089,-0.0436,0.0218,0.251,0.3055,0.3164,0.3384,0.3493,0.3493,0.3493,0.3491,0.3488,0.3488,0.3292,0.3136,0.3136,0.3032,0.2958,0.2958,0.454,0.5634,0.5634,0.745,0.8661,0.8746,0.8815,0.94,1.0589,1.1655,1.2649,1.3565,1.4489,1.499,1.499,1.499,1.499,1.499,1.499,1.499,1.499,1.499,1.5004,-1.5462,-1.3643,-1.1813,-1.1203,-1.0453,-0.9752,-0.9284,-0.9197,-0.8962,-0.826,-0.8126,0.0,0.0,0.0,-0.847,-0.8688,0.0,-0.9511,-0.9605,-0.9761,0.0,0.0,0.0,0.0,0.0,-1.3925,-1.4409,-1.3982,-1.5156,-1.5389,-1.4397,-1.4448,-1.441,-1.441,-1.4201,-1.3667,-1.2787,-1.227,-1.1434,-1.0258,-1.0052,-0.9626,-0.9305,-0.8234,-0.812,-0.8757,-0.6835,-0.6516,-0.7153,-0.63,-0.5872,-0.5764,-0.5556,-0.5665,-0.5764,-0.5556,-0.556,-0.5452,-0.5339,-0.523,-0.523,-0.523,-0.523,-0.523,-0.523,-0.523,-0.523,-0.5009,-0.5009,-0.4355,-0.174,-0.1087,-0.0435,0.207,0.2728,0.2837,0.3164,0.3166,0.3275,0.3493,0.3424,0.3366,0.3366,0.3167,0.3011,0.3011,0.3452,0.3802,0.3802,0.4891,0.572,0.607,0.7021,0.7799,0.8157,0.8653,0.9146,0.9672,1.1322,1.2649,1.3565,1.4489,1.499,1.499,1.499,1.499,1.499,1.499,1.499,1.499,1.499,1.5313,-1.4152,-1.2514,-1.0925,-1.0057,-0.9528,-0.9135,-0.8632,-0.8612,-0.8617,-0.8215,0.0,0.0,0.0,0.0,0.0,0.0,-1.0533,-1.0999,0.0,0.0,-1.2415,-1.4058,0.0,0.0,-1.4151,-1.4792,-1.5026,-1.452,-1.5537,-1.5795,-1.4805,-1.4712,-1.4712,-1.4619,-1.4421,-1.3992,-1.3332,-1.3132,-1.2385,-1.1205,-1.1108,-1.0797,-1.0258,-0.9405,-0.9191,-0.9298,-0.7804,-0.7158,-0.7266,-0.6516,-0.6197,-0.5976,-0.5985,-0.6094,-0.6197,-0.5877,-0.5773,-0.5669,-0.5452,-0.5339,-0.523,-0.523,-0.523,-0.523,-0.523,-0.523,-0.523,-0.523,-0.523,-0.4792,-0.2826,-0.2281,-0.163,0.098,0.1636,0.1854,0.2728,0.2946,0.3152,0.3216,0.3258,0.3284,0.2985,0.292,0.2799,0.2799,0.3534,0.408,0.408,0.5289,0.6322,0.65,0.7193,0.7792,0.8149,0.8482,0.8815,0.9078,1.0159,1.1239,1.2153,1.3565,1.4476,1.4814,1.4909,1.499,1.499,1.499,1.499,1.499,1.499,1.5475,-1.2804,-1.1586,-1.0498,-0.9327,-0.9049,-0.8954,-0.8411,0.0,-0.8398,-0.8436,0.0,-0.9464,-0.9464,0.0,0.0,-1.1667,-1.1937,-1.2292,-1.3043,-1.4086,-1.5142,-1.6086,-1.588,-1.5545,-1.5243,-1.5773,-1.5756,-1.4945,-1.6071,-1.6344,-1.5117,-1.5013,-1.492,-1.4723,-1.4619,-1.4619,-1.4619,-1.4316,-1.3667,-1.2682,-1.2385,-1.1752,-1.0691,-1.0577,-1.0052,-0.9312,-0.8884,-0.8139,-0.6959,-0.6743,-0.6418,-0.6197,-0.6526,-0.6635,-0.6635,-0.6197,-0.5985,-0.5777,-0.5669,-0.5556,-0.5339,-0.5339,-0.5339,-0.5339,-0.523,-0.523,-0.523,-0.523,-0.523,-0.5009,-0.3808,-0.3371,-0.272,-0.0218,0.0436,0.0871,0.2169,0.2711,0.3006,0.2904,0.3079,0.3005,0.2421,0.2499,0.2612,0.2699,0.3478,0.4167,0.4253,0.5892,0.7015,0.7186,0.7877,0.8389,0.8389,0.8389,0.8482,0.8755,0.8755,0.9248,1.0318,1.2224,1.3716,1.4624,1.4814,1.499,1.499,1.499,1.499,1.499,1.499,1.5475,-1.134,-1.0592,-0.9814,-0.8623,-0.8608,-0.8908,0.0,0.0,0.0,-1.0232,-1.0968,-1.1513,-1.1513,-1.2585,-1.3509,-1.3657,-1.4185,-1.4696,-1.4845,-1.6999,-1.8469,-1.8026,-1.7222,-1.637,-1.5545,-1.5213,-1.514,-1.5275,-1.5508,-1.5555,-1.5255,-1.5243,-1.5255,-1.5255,-1.5024,-1.4909,-1.4909,-1.4619,-1.441,-1.419,-1.3887,-1.3677,-1.3362,-1.2289,-1.2174,-1.2701,-0.9953,-0.9098,-0.9412,-0.7714,-0.6856,-0.6856,-0.6856,-0.6964,-0.6856,-0.6635,-0.6418,-0.6418,-0.6089,-0.5872,-0.5872,-0.5665,-0.556,-0.556,-0.5339,-0.523,-0.523,-0.523,-0.523,-0.5009,-0.3808,-0.2826,-0.174,-0.0218,0.0763,0.1624,0.2105,0.2301,0.238,0.2596,0.2611,0.2333,0.142,0.1661,0.2088,0.2612,0.3478,0.4426,0.5203,0.6322,0.7272,0.8048,0.8219,0.8389,0.8389,0.8389,0.8482,0.8755,0.8755,0.9333,1.0589,1.1666,1.3168,1.4828,1.4909,1.499,1.499,1.499,1.499,1.499,1.499,1.5475,-1.0408,-0.9825,-0.9204,-0.86,-0.8899,0.0,0.0,-1.0388,-1.1117,-1.1587,-1.2548,-1.3366,-1.3383,-1.4666,-1.5806,-1.6164,-1.6788,-1.7338,-1.7787,-1.9464,-2.0271,-1.9344,-1.8509,-1.7557,-1.6593,-1.5598,-1.517,-1.5336,-1.5359,-1.5359,-1.5359,-1.5359,-1.5359,-1.5359,-1.5243,-1.5128,-1.5128,-1.492,-1.4816,-1.4816,-1.4514,-1.4316,-1.4223,-1.3467,-1.2711,-1.1963,-1.0266,-0.9205,-0.8562,-0.7498,-0.6969,-0.6969,-0.6969,-0.6969,-0.6964,-0.6856,-0.6748,-0.6635,-0.6413,-0.6197,-0.5981,-0.5877,-0.5877,-0.5769,-0.566,-0.5552,-0.5448,-0.5339,-0.523,-0.5122,-0.4572,-0.3917,-0.314,-0.1917,-0.1166,-0.0525,0.0304,0.0604,0.0697,0.0767,0.0922,0.098,0.0698,0.1304,0.1914,0.2525,0.3474,0.4426,0.5462,0.6408,0.7357,0.8219,0.8389,0.8389,0.8389,0.8389,0.8397,0.8568,0.8568,0.8823,0.9493,1.0925,1.2176,1.332,1.4408,1.499,1.499,1.4814,1.5057,1.5635,1.5635,1.634,-0.9696,-0.9245,-0.881,-0.8961,-0.952,0.0,-1.0545,-1.162,-1.2666,-1.3043,-1.4279,-1.5326,-1.5409,-1.6739,-1.7985,-1.8573,-1.9016,-1.9719,-2.0806,-2.1407,-2.1506,-2.0627,-1.9755,-1.876,-1.7952,-1.646,-1.5567,-1.5463,-1.5463,-1.5463,-1.5359,-1.5359,-1.5359,-1.5359,-1.5359,-1.5359,-1.5359,-1.5128,-1.5013,-1.5013,-1.4816,-1.4514,-1.4316,-1.4316,-1.2921,-1.0683,-1.0471,-0.9198,-0.7288,-0.7072,-0.7288,-0.7708,-0.7714,-0.7606,-0.7606,-0.7396,-0.7175,-0.6959,-0.6743,-0.6526,-0.6197,-0.6197,-0.6089,-0.6089,-0.6084,-0.5877,-0.5665,-0.5448,-0.5339,-0.5339,-0.523,-0.5095,-0.4602,-0.3534,-0.3081,-0.2529,-0.1465,-0.1066,-0.1054,-0.1567,-0.1246,-0.0783,-0.0261,0.0696,0.1565,0.2175,0.3128,0.4253,0.5462,0.6322,0.7186,0.8219,0.8389,0.8389,0.8389,0.8389,0.8389,0.8389,0.8389,0.8397,0.8397,1.0084,1.1249,1.1644,1.3565,1.4666,1.4909,1.4867,1.543,1.6594,1.6594,1.7195,-0.8894,-0.8827,-0.8927,-0.9613,-1.0302,0.0,-1.265,-1.3696,-1.4542,-1.5357,-1.6773,-1.7846,-1.7846,-1.9093,-2.0063,-2.0132,-2.0218,-2.0876,-2.2614,-2.2703,-2.2579,-2.2465,-2.0625,-1.9363,-1.9262,-1.7369,-1.6072,-1.5878,-1.5878,-1.5774,-1.5359,-1.5359,-1.5359,-1.5359,-1.5359,-1.5359,-1.5359,-1.5359,-1.5359,-1.5359,-1.5024,-1.4909,-1.4909,-1.4608,-1.3646,-1.2146,-1.1091,-0.9832,-0.8461,-0.7396,-0.8347,-1.0463,-1.0045,-0.9938,-0.9839,-0.8884,-0.8569,-0.8354,-0.7288,-0.6964,-0.6856,-0.6635,-0.6526,-0.6526,-0.6089,-0.5981,-0.5981,-0.5976,-0.5769,-0.556,-0.5339,-0.4365,-0.3528,-0.3305,-0.2319,-0.1366,-0.1315,-0.1303,-0.1842,-0.3541,-0.3498,-0.296,-0.2349,-0.1044,0.0174,0.1044,0.1999,0.3388,0.5376,0.572,0.6408,0.8133,0.8389,0.8389,0.8389,0.8389,0.8389,0.8389,0.8389,0.8482,0.8661,0.9587,1.0579,1.1644,1.2744,1.3729,1.4624,1.5416,1.6309,1.7368,1.7368,1.7447,-0.8911,-0.9192,-0.9715,-1.052,0.0,0.0,-1.391,-1.548,-1.6877,-1.7335,-1.8644,-1.9792,-1.9975,-2.079,-2.1547,-2.1547,-2.1917,-2.2521,-2.3289,-2.3281,-2.3184,-2.3184,-2.1067,-1.9663,-1.9663,-1.7674,-1.6266,-1.6175,-1.6175,-1.6072,-1.5969,-1.5774,-1.5567,-1.5359,-1.5359,-1.5359,-1.5359,-1.5359,-1.5359,-1.5359,-1.5243,-1.5128,-1.4909,-1.4179,-1.3437,-1.2586,-1.1522,-1.0683,-1.0159,-0.974,-1.0159,-1.1108,-1.0675,-1.0144,-0.9512,-0.8991,-0.8354,-0.7606,-0.718,-0.6969,-0.6964,-0.6856,-0.6856,-0.6856,-0.6635,-0.6526,-0.6413,-0.6413,-0.6094,-0.5742,-0.5421,-0.4808,-0.4294,-0.4015,-0.3542,-0.3091,-0.3064,-0.3039,-0.3291,-0.4115,-0.3835,-0.331,-0.2699,-0.1391,-0.0174,0.0522,0.1565,0.2957,0.4949,0.5208,0.5903,0.7892,0.8149,0.8234,0.8304,0.8389,0.8389,0.8389,0.8389,0.8645,0.9324,1.0243,1.1166,1.2248,1.325,1.4313,1.5336,1.5736,1.6373,1.7257,1.7882,1.8425,-0.9006,0.0,0.0,0.0,0.0,0.0,-1.5215,-1.7123,-1.8714,-1.8854,-2.017,-2.1266,-2.1442,-2.2101,-2.2654,-2.2654,-2.3117,-2.3474,-2.3474,-2.3474,-2.3474,-2.3474,-2.1362,-1.9946,-1.9946,-1.7878,-1.6485,-1.6472,-1.6472,-1.6575,-1.6781,-1.6279,-1.5865,-1.5567,-1.5567,-1.5463,-1.5359,-1.5359,-1.5359,-1.5359,-1.5359,-1.5243,-1.5024,-1.4284,-1.3646,-1.2912,-1.2165,-1.2069,-1.2385,-1.228,-1.227,-1.227,-1.1522,-1.0773,-1.0045,-0.9205,-0.836,-0.7504,-0.7186,-0.6969,-0.6969,-0.6969,-0.6969,-0.6969,-0.6969,-0.6856,-0.6748,-0.6748,-0.6418,-0.615,-0.574,-0.5401,-0.4952,-0.4683,-0.458,-0.4419,-0.4385,-0.4356,-0.4361,-0.4278,-0.4013,-0.3488,-0.2873,-0.1565,-0.0435,0.0261,0.1306,0.2699,0.4608,0.4867,0.5645,0.7635,0.79,0.7978,0.8227,0.8227,0.8397,0.873,0.873,0.9146,1.0065,1.0831,1.1666,1.2496,1.3414,1.4557,1.5751,1.607,1.6768,1.7787,1.8638,1.9421,0.0,0.0,0.0,-1.2065,-1.3599,-1.5181,-1.6811,-1.846,-1.9681,-1.9927,-2.1192,-2.2298,-2.2298,-2.2921,-2.3438,-2.3438,-2.3456,-2.3474,-2.3474,-2.3474,-2.3474,-2.3474,-2.1559,-2.0244,-2.0244,-1.8297,-1.6999,-1.6768,-1.6665,-1.7075,-1.7803,-1.6883,-1.6175,-1.5981,-1.5878,-1.5774,-1.5359,-1.5359,-1.5359,-1.5359,-1.5359,-1.5359,-1.5359,-1.5359,-1.4608,-1.3426,-1.3322,-1.4075,-1.5243,-1.4909,-1.4909,-1.469,-1.3332,-1.2701,-1.2385,-0.9961,-0.9112,-0.8897,-0.7504,-0.6969,-0.6969,-0.6969,-0.6969,-0.6969,-0.6969,-0.6969,-0.6969,-0.6969,-0.6748,-0.6584,-0.6254,-0.559,-0.5007,-0.4993,-0.4752,-0.4439,-0.4435,-0.4431,-0.4435,-0.4274,-0.4278,-0.3926,-0.2873,-0.1914,-0.0957,0.0174,0.1134,0.253,0.4608,0.4867,0.5559,0.7371,0.7628,0.7721,0.7985,0.7985,0.849,0.9569,0.9653,1.0065,1.0988,1.1072,1.1489,1.2224,1.2578,1.3578,1.5379,1.6404,1.7743,1.94,1.9762,1.9989,-0.997,-1.0928,-1.2255,-1.3849,-1.5778,-1.7548,-1.8851,-2.0307,-2.1443,-2.1531,-2.2369,-2.31,-2.31,-2.3505,-2.3762,-2.3762,-2.3972,-2.3954,-2.378,-2.3762,-2.3666,-2.357,-2.1542,-2.0244,-2.0244,-1.8297,-1.7114,-1.6999,-1.7586,-1.8081,-1.8399,-1.7891,-1.7586,-1.7497,-1.6678,-1.6175,-1.5969,-1.5878,-1.5878,-1.5969,-1.5567,-1.5463,-1.567,-1.4723,-1.4503,-1.4712,-1.397,-1.4295,-1.5359,-1.5243,-1.4816,-1.4075,-1.3437,-1.2261,-1.0781,-0.974,-0.8891,-0.8145,-0.7493,-0.7277,-0.7277,-0.7072,-0.6969,-0.6969,-0.6969,-0.6969,-0.6969,-0.6969,-0.6853,-0.6502,-0.6317,-0.5877,-0.5328,-0.5006,-0.4831,-0.4694,-0.4517,-0.4608,-0.4694,-0.4699,-0.4526,-0.4092,-0.3134,-0.2088,-0.1044,0.0,0.0872,0.2181,0.4084,0.4344,0.5208,0.7371,0.7542,0.7714,0.8227,0.8815,0.9315,0.9728,1.0318,1.0988,1.181,1.1821,1.2224,1.3143,1.3237,1.4218,1.6165,1.6642,1.7821,1.94,1.9553,1.9989,-1.1441,-1.2535,-1.3929,-1.5969,-1.7593,-1.8897,-2.0123,-2.1476,-2.2333,-2.2333,-2.2939,-2.3474,-2.3474,-2.378,-2.405,-2.405,-2.4164,-2.4259,-2.4068,-2.405,-2.3954,-2.3858,-2.1852,-2.0458,-2.0458,-1.889,-1.7803,-1.7803,-1.8297,-1.8789,-1.9177,-1.8399,-1.7993,-1.8399,-1.7178,-1.6472,-1.6472,-1.6175,-1.6175,-1.6369,-1.5865,-1.5878,-1.6072,-1.5024,-1.4931,-1.5567,-1.4827,-1.4931,-1.5567,-1.5463,-1.4723,-1.3761,-1.3122,-1.1734,-0.9931,-0.9312,-0.8569,-0.793,-0.7601,-0.7493,-0.7493,-0.7175,-0.7175,-0.7067,-0.7072,-0.6969,-0.6948,-0.6864,-0.6726,-0.6573,-0.6205,-0.5859,-0.5592,-0.5185,-0.5132,-0.5045,-0.4781,-0.4608,-0.4521,-0.4348,-0.4001,-0.3304,-0.2436,-0.1565,-0.0696,0.0174,0.1221,0.2354,0.3907,0.4426,0.5376,0.7206,0.7378,0.7635,0.8397,0.8985,0.9653,1.0495,1.1082,1.1821,1.2731,1.2731,1.2978,1.3565,1.366,1.4705,1.6705,1.7005,1.8098,2.0064,2.0215,2.0626,-1.3436,-1.4441,-1.5739,-1.8342,-1.8977,-1.94,-2.0904,-2.1888,-2.2478,-2.2478,-2.3069,-2.357,-2.357,-2.3954,-2.4355,-2.4355,-2.4355,-2.4355,-2.4355,-2.4355,-2.4355,-2.4259,-2.2374,-2.1,-2.1099,-1.9877,-1.9076,-1.9177,-1.889,-1.9177,-2.0145,-1.8297,-1.7701,-1.8688,-1.7471,-1.6768,-1.6768,-1.6472,-1.6369,-1.6369,-1.6382,-1.6369,-1.6369,-1.6072,-1.5981,-1.5981,-1.5981,-1.5878,-1.5878,-1.5463,-1.4619,-1.3552,-1.2385,-1.1214,-1.0052,-0.8676,-0.8151,-0.8151,-0.793,-0.7822,-0.7708,-0.7487,-0.7379,-0.7379,-0.7072,-0.6959,-0.6901,-0.6673,-0.6594,-0.6473,-0.5946,-0.5826,-0.5758,-0.5627,-0.5661,-0.5574,-0.531,-0.4517,-0.3734,-0.3484,-0.2786,-0.1827,-0.0957,-0.0522,-0.0087,0.0873,0.2005,0.3044,0.408,0.5031,0.5984,0.6869,0.7041,0.7385,0.8405,0.8568,0.9578,1.1844,1.2022,1.2508,1.3565,1.3578,1.3565,1.3565,1.3919,1.5042,1.7146,1.738,1.8756,2.1145,2.1513,2.1805,-1.5184,-1.6612,-1.7858,-1.9697,-2.0591,-2.1274,-2.2422,-2.3284,-2.3852,-2.3852,-2.3922,-2.4068,-2.4068,-2.4355,-2.4545,-2.4545,-2.4735,-2.4849,-2.464,-2.4545,-2.4545,-2.4355,-2.2374,-2.1296,-2.2064,-2.0474,-1.9663,-2.0443,-2.0474,-2.0489,-2.0787,-1.9592,-1.8875,-1.8976,-1.7891,-1.7204,-1.7012,-1.6909,-1.6909,-1.6909,-1.6485,-1.6472,-1.6563,-1.6369,-1.6369,-1.6472,-1.6266,-1.5762,-1.4931,-1.4608,-1.3342,-1.1558,-1.101,-1.0052,-0.9098,-0.8783,-0.8575,-0.8569,-0.8145,-0.8043,-0.8043,-0.7708,-0.7708,-0.7601,-0.7385,-0.7155,-0.6902,-0.6734,-0.6367,-0.5982,-0.5862,-0.5796,-0.5648,-0.5677,-0.5661,-0.5661,-0.5574,-0.4175,-0.296,-0.296,-0.2612,-0.2088,-0.0957,-0.0522,0.0261,0.2003,0.2525,0.3304,0.5031,0.5462,0.6064,0.7021,0.7114,0.7371,0.7799,0.9061,1.0149,1.0737,1.2022,1.2945,1.344,1.3427,1.3509,1.3565,1.4137,1.5481,1.7503,1.8003,1.9098,2.0794,2.0849,2.1292,-1.647,-1.8421,-2.0099,-2.1736,-2.2225,-2.2566,-2.3413,-2.4022,-2.4259,-2.4259,-2.445,-2.464,-2.464,-2.4754,-2.4849,-2.4849,-2.4944,-2.5038,-2.4849,-2.4849,-2.4849,-2.464,-2.3167,-2.2374,-2.2973,-2.1771,-2.1264,-2.1852,-2.1379,-2.1,-2.1,-1.9592,-1.8875,-1.9177,-1.8196,-1.7803,-1.8007,-1.7511,-1.7217,-1.7114,-1.6806,-1.6793,-1.6883,-1.6575,-1.6678,-1.6896,-1.606,-1.5336,-1.4712,-1.396,-1.2596,-1.1027,-1.0699,-0.9953,-0.9098,-0.8998,-0.8891,-0.8897,-0.8683,-0.8474,-0.836,-0.8037,-0.7851,-0.7749,-0.7427,-0.7157,-0.6946,-0.6728,-0.6309,-0.5988,-0.5876,-0.5395,-0.4959,-0.4959,-0.4612,-0.4439,-0.4617,-0.3832,-0.2873,-0.2436,-0.1829,-0.122,-0.0523,0.0087,0.0957,0.2088,0.3131,0.4261,0.5295,0.5903,0.6426,0.7028,0.7114,0.7285,0.7885,0.9221,1.0234,1.0737,1.2093,1.311,1.3604,1.337,1.3522,1.4164,1.4933,1.6183,1.8003,1.8697,1.9838,2.1419,2.1419,2.2198,-1.7557,-1.9991,-2.219,-2.3804,-2.373,-2.3467,-2.417,-2.4355,-2.4355,-2.4355,-2.4754,-2.5038,-2.5038,-2.5038,-2.5038,-2.5038,-2.5038,-2.5038,-2.5038,-2.5038,-2.5038,-2.5038,-2.4164,-2.357,-2.3666,-2.3378,-2.3184,-2.3184,-2.1886,-2.1,-2.0902,-1.9206,-1.85,-1.9277,-1.8587,-1.8399,-1.8875,-1.8007,-1.7408,-1.7114,-1.7114,-1.7114,-1.7114,-1.6883,-1.6883,-1.6896,-1.5635,-1.4897,-1.4492,-1.3227,-1.2069,-1.1116,-1.0814,-1.0175,-0.9526,-0.9326,-0.9219,-0.9219,-0.9219,-0.8998,-0.8777,-0.8316,-0.8039,-0.7731,-0.7478,-0.7093,-0.6752,-0.6526,-0.6166,-0.5812,-0.5606,-0.4772,-0.3994,-0.3994,-0.3217,-0.2612,-0.305,-0.3137,-0.2876,-0.1827,-0.0698,0.0087,0.0087,0.1133,0.2001,0.2175,0.3915,0.5223,0.5391,0.626,0.6869,0.6955,0.6955,0.7292,0.8141,0.8976,0.9991,1.0998,1.201,1.3016,1.3932,1.344,1.385,1.5166,1.5816,1.6894,1.8579,1.9498,2.0897,2.2843,2.3034,2.406,-1.8883,-2.1081,-2.3032,-2.4357,-2.4227,-2.3813,-2.4755,-2.4944,-2.4944,-2.4944,-2.5038,-2.5038,-2.5038,-2.5038,-2.5038,-2.5038,-2.5038,-2.5038,-2.5038,-2.5038,-2.5038,-2.5038,-2.4164,-2.3858,-2.4735,-2.3954,-2.3474,-2.3474,-2.2374,-2.1296,-2.0406,-2.0007,-1.9407,-1.8486,-1.9177,-1.9076,-1.8108,-1.7905,-1.7715,-1.7408,-1.7408,-1.7319,-1.7114,-1.7306,-1.687,-1.6011,-1.5702,-1.4459,-1.2491,-1.2078,-1.1231,-1.0175,-0.9847,-0.9633,-0.9519,-0.9526,-0.9419,-0.9419,-0.9419,-0.9319,-0.907,-0.8711,-0.8396,-0.8005,-0.7557,-0.6717,-0.5862,-0.5555,-0.4787,-0.3956,-0.3926,-0.3745,-0.3571,-0.3571,-0.2354,-0.1135,-0.1222,-0.1222,-0.1222,-0.096,-0.0262,0.0436,0.0783,0.1914,0.3221,0.4175,0.4694,0.5213,0.599,0.6254,0.6426,0.6691,0.6691,0.6863,0.7213,0.8056,0.8985,0.9897,1.1344,1.259,1.366,1.4069,1.4881,1.6036,1.5991,1.6972,1.9138,2.0797,2.2435,2.4198,2.523,2.5929,-1.9966,-2.1467,-2.2636,-2.4356,-2.4542,-2.4427,-2.4942,-2.5038,-2.5208,-2.5826,-2.5565,-2.5227,-2.5227,-2.5302,-2.5358,-2.5358,-2.5358,-2.5377,-2.5322,-2.5227,-2.5227,-2.5133,-2.464,-2.4545,-2.5038,-2.4659,-2.4068,-2.357,-2.2471,-2.1591,-2.1099,-1.9992,-1.9592,-2.0092,-1.9478,-1.9076,-1.8875,-1.8399,-1.8007,-1.7715,-1.7511,-1.7422,-1.7319,-1.7613,-1.7178,-1.6229,-1.5197,-1.4169,-1.3237,-1.199,-1.1248,-1.0912,-1.006,-0.9854,-0.9961,-0.9747,-0.974,-0.9718,-0.9547,-0.9078,-0.8516,-0.8109,-0.7427,-0.6616,-0.6392,-0.5632,-0.4828,-0.5016,-0.4506,-0.4001,-0.4001,-0.3568,-0.305,-0.2873,-0.1918,-0.1048,-0.1048,-0.0786,-0.0524,-0.0437,0.0174,0.0784,0.1134,0.1744,0.2528,0.3568,0.4521,0.5218,0.565,0.599,0.6248,0.6426,0.6426,0.6598,0.7028,0.7955,0.9052,1.0411,1.1677,1.3003,1.4476,1.4867,1.5445,1.6116,1.7625,1.8952,2.0078,2.2533,2.4241,2.5078,2.5758,2.6675,-2.0779,-2.1775,-2.243,-2.4307,-2.5026,-2.5304,-2.5683,-2.5471,-2.5471,-2.6416,-2.6012,-2.551,-2.551,-2.5546,-2.5694,-2.5694,-2.5694,-2.562,-2.5491,-2.551,-2.5397,-2.5208,-2.5208,-2.5208,-2.5208,-2.5038,-2.464,-2.3744,-2.2665,-2.1886,-2.1575,-2.0176,-1.9977,-2.1083,-1.9693,-1.9177,-1.9563,-1.8789,-1.8196,-1.8007,-1.7803,-1.7613,-1.7613,-1.7701,-1.7484,-1.6973,-1.522,-1.4503,-1.4399,-1.251,-1.1875,-1.1963,-1.0707,-1.0297,-1.0297,-1.0075,-0.9817,-0.9607,-0.945,-0.8607,-0.7707,-0.7329,-0.6337,-0.5448,-0.5309,-0.4726,-0.4167,-0.4604,-0.4431,-0.4084,-0.4084,-0.3391,-0.2438,-0.1829,-0.1395,-0.1048,-0.0961,-0.0612,-0.0175,0.0087,0.0697,0.1219,0.1571,0.1747,0.2094,0.2876,0.4179,0.505,0.531,0.5737,0.6168,0.6248,0.634,0.6592,0.7443,0.811,0.9373,1.1333,1.2248,1.3496,1.5138,1.5525,1.5846,1.6116,1.897,2.0611,2.0976,2.4013,2.5758,2.6149,2.6535,2.7701,-2.099,-2.2376,-2.3444,-2.4706,-2.5708,-2.6551,-2.7695,-2.6672,-2.56,-2.5767,-2.5694,-2.56,-2.56,-2.5694,-2.5694,-2.5694,-2.5694,-2.5694,-2.56,-2.56,-2.56,-2.56,-2.56,-2.56,-2.56,-2.5095,-2.4508,-2.4054,-2.3438,-2.2374,-2.0838,-2.1411,-2.0921,-1.899,-1.9708,-1.9607,-1.8789,-1.8688,-1.8486,-1.8196,-1.8196,-1.8095,-1.7803,-1.7382,-1.7573,-1.8095,-1.6973,-1.5726,-1.4459,-1.3636,-1.2902,-1.2366,-1.146,-1.0839,-1.0297,-1.0297,-0.9674,-0.8894,-0.8866,-0.797,-0.6844,-0.6578,-0.6291,-0.5865,-0.5664,-0.4881,-0.408,-0.4167,-0.3564,-0.2873,-0.2873,-0.2525,-0.1829,-0.0524,-0.0175,-0.0087,0.0175,0.0262,0.0436,0.0696,0.1217,0.1827,0.2351,0.2876,0.3488,0.3926,0.41,0.4534,0.5488,0.5661,0.592,0.6518,0.6605,0.7107,0.8365,0.8535,0.9626,1.1976,1.2789,1.3621,1.4624,1.5831,1.6563,1.68,1.8931,2.0542,2.1494,2.4262,2.6395,2.779,2.9251,3.034,-2.113,-2.2098,-2.2878,-2.4614,-2.5435,-2.5897,-2.6462,-2.6261,-2.5984,-2.6043,-2.5963,-2.588,-2.588,-2.5993,-2.6086,-2.6086,-2.6086,-2.6066,-2.588,-2.588,-2.588,-2.5694,-2.5694,-2.5507,-2.5076,-2.517,-2.4774,-2.3612,-2.3612,-2.3385,-2.2772,-2.2014,-2.1444,-2.0822,-2.0505,-1.9823,-1.8688,-1.9005,-1.8904,-1.8486,-1.8399,-1.8007,-1.7613,-1.7878,-1.7674,-1.7088,-1.7191,-1.6254,-1.469,-1.3646,-1.3227,-1.3092,-1.151,-1.0915,-1.088,-0.9742,-0.918,-0.8729,-0.8061,-0.7073,-0.6194,-0.578,-0.4806,-0.3639,-0.3585,-0.3044,-0.2431,-0.2171,-0.226,-0.2262,-0.1654,-0.1391,-0.1132,-0.0609,-0.0262,0.0,0.0175,0.0437,0.0786,0.0872,0.1568,0.2607,0.3982,0.3561,0.3481,0.4681,0.3998,0.3915,0.572,0.7265,0.8211,0.8466,0.8466,0.8891,0.9728,0.9813,1.0737,1.2838,1.3168,1.3892,1.5109,1.5671,1.6309,1.7037,2.037,2.2468,2.3119,2.6687,2.8866,2.9655,3.0285,3.0874,-2.0902,-2.1531,-2.2192,-2.3965,-2.4752,-2.5083,-2.4837,-2.5146,-2.5587,-2.5796,-2.558,-2.5482,-2.574,-2.5892,-2.6154,-2.6416,-2.6476,-2.6384,-2.6178,-2.6178,-2.6086,-2.588,-2.588,-2.5713,-2.5283,-2.5433,-2.5132,-2.4204,-2.4357,-2.432,-2.3922,-2.271,-2.1852,-2.164,-2.1,-2.0222,-1.9206,-1.9722,-1.9622,-1.8904,-1.8702,-1.8413,-1.8122,-1.821,-1.779,-1.6973,-1.7101,-1.6575,-1.5635,-1.4492,-1.3896,-1.351,-1.1353,-1.0604,-1.0668,-0.9053,-0.8416,-0.8106,-0.7252,-0.6308,-0.5322,-0.4831,-0.3568,-0.2262,-0.2088,-0.174,-0.1304,-0.113,-0.1478,-0.174,-0.113,-0.0522,-0.0174,-0.0261,0.0087,0.0437,0.0524,0.1308,0.2001,0.209,0.3125,0.4409,0.5687,0.4921,0.4582,0.5859,0.5012,0.4758,0.6383,0.8264,0.955,0.9728,0.9738,1.0075,1.0821,1.0915,1.1749,1.344,1.3604,1.4394,1.6104,1.65,1.7331,1.8779,2.2446,2.4572,2.506,2.8636,3.0538,3.0955,3.1252,3.1806,-2.0111,-2.0814,-2.1456,-2.2493,-2.3735,-2.4453,-2.356,-2.356,-2.4011,-2.4742,-2.44,-2.4122,-2.4987,-2.5148,-2.543,-2.6315,-2.6476,-2.6476,-2.6476,-2.6476,-2.6476,-2.6476,-2.6476,-2.6456,-2.6384,-2.5694,-2.5581,-2.6364,-2.5694,-2.4717,-2.3445,-2.3349,-2.242,-2.0452,-2.1016,-2.1016,-2.0353,-2.1,-2.0703,-1.9436,-1.9436,-1.9436,-1.9336,-1.8122,-1.7905,-1.8587,-1.6973,-1.6781,-1.7408,-1.6588,-1.5134,-1.3227,-1.1022,-0.9817,-0.925,-0.8295,-0.7344,-0.6463,-0.6463,-0.5575,-0.4348,-0.3394,-0.296,-0.2612,-0.1914,-0.1565,-0.1391,-0.1654,-0.1565,-0.1391,-0.1391,0.0,0.1311,0.1048,0.1136,0.1398,0.1661,0.3128,0.4496,0.4758,0.6286,0.7556,0.7556,0.7556,0.7556,0.7556,0.7556,0.7556,0.7556,0.841,0.9111,0.9644,0.9822,1.0318,1.1206,1.1467,1.233,1.385,1.4027,1.5094,1.7574,1.8649,2.0316,2.263,2.4982,2.6522,2.7195,2.9457,3.0857,3.1528,3.2505,3.3443,-1.9814,-2.1045,-2.2268,-2.3004,-2.385,-2.4257,-2.2958,-2.3125,-2.3553,-2.3345,-2.3768,-2.4299,-2.4564,-2.4412,-2.4525,-2.541,-2.5461,-2.5862,-2.6784,-2.6957,-2.7141,-2.7485,-2.7232,-2.6773,-2.6178,-2.6066,-2.5993,-2.5694,-2.5581,-2.53,-2.4717,-2.39,-2.3132,-2.242,-2.2551,-2.2081,-2.1099,-2.1706,-2.1411,-2.0138,-2.0437,-2.0122,-1.9191,-1.8918,-1.8375,-1.7657,-1.6971,-1.627,-1.5729,-1.5058,-1.4098,-1.2759,-1.071,-0.9544,-0.8852,-0.7375,-0.6716,-0.6466,-0.5851,-0.4835,-0.3745,-0.3484,-0.2438,-0.1391,-0.113,-0.1044,-0.087,-0.0174,-0.0349,-0.0087,0.2597,0.3727,0.4167,0.4077,0.408,0.4167,0.4253,0.4767,0.5279,0.5704,0.639,0.7407,0.8925,0.8325,0.7902,0.8857,0.8249,0.781,0.8418,0.9111,0.9981,1.1438,1.1855,1.2354,1.3085,1.2768,1.3028,1.3945,1.5132,1.7031,1.9555,2.0172,2.1256,2.3113,2.5794,2.755,2.8271,3.1107,3.2679,3.2954,3.3384,3.3898,-1.9534,-2.054,-2.1671,-2.2414,-2.3145,-2.3738,-2.3574,-2.3313,-2.2989,-2.2757,-2.3108,-2.3525,-2.3444,-2.3679,-2.4092,-2.491,-2.5054,-2.5468,-2.677,-2.6915,-2.722,-2.7896,-2.7688,-2.7324,-2.6825,-2.6916,-2.6825,-2.6344,-2.6066,-2.5787,-2.53,-2.4413,-2.384,-2.3403,-2.3708,-2.3342,-2.2081,-2.278,-2.2119,-2.0139,-2.0234,-1.9837,-1.8943,-1.8973,-1.8271,-1.7112,-1.6545,-1.5699,-1.4727,-1.3984,-1.3043,-1.2026,-1.0742,-0.9463,-0.8059,-0.6215,-0.5559,-0.5559,-0.4608,-0.3745,-0.305,-0.2699,-0.1303,0.026,0.0434,0.0608,0.0955,0.2173,0.1737,0.1561,0.4504,0.5371,0.5371,0.5284,0.5371,0.5457,0.5371,0.5967,0.6646,0.6988,0.7677,0.8713,1.0149,0.9541,0.9204,1.0084,0.9466,0.9111,0.9719,1.0075,1.0757,1.2271,1.2697,1.311,1.3755,1.3535,1.385,1.4786,1.6515,1.8613,2.1097,2.1987,2.3327,2.5157,2.7705,2.943,3.0156,3.2536,3.3834,3.4161,3.4457,3.4989,-1.9205,-1.9539,-2.0162,-2.1188,-2.2065,-2.315,-2.4944,-2.3874,-2.2601,-2.2815,-2.2672,-2.2313,-2.1867,-2.2853,-2.3926,-2.4801,-2.4949,-2.5309,-2.6325,-2.6473,-2.6899,-2.7923,-2.8029,-2.805,-2.805,-2.8029,-2.7939,-2.7939,-2.7029,-2.6159,-2.5394,-2.4981,-2.4431,-2.3762,-2.4698,-2.4566,-2.3193,-2.3809,-2.2657,-1.9705,-1.9263,-1.8997,-1.8908,-1.8299,-1.7624,-1.6844,-1.5859,-1.5008,-1.4235,-1.3206,-1.2126,-1.1036,-1.0946,-0.938,-0.7021,-0.5208,-0.4344,-0.3994,-0.3047,-0.2612,-0.2262,-0.1217,0.0347,0.1905,0.2597,0.3032,0.3554,0.4849,0.4327,0.3724,0.4926,0.5537,0.5795,0.5527,0.5784,0.6041,0.603,0.7563,0.9,0.9,1.0382,1.1594,1.1594,1.1594,1.1605,1.1511,1.1521,1.1438,1.1365,1.1365,1.1605,1.2413,1.2649,1.2978,1.3565,1.4069,1.508,1.6797,1.8461,2.0336,2.2564,2.4236,2.6128,2.8283,3.0467,3.1892,3.2574,3.3682,3.4511,3.5118,3.5791,3.6487,-1.8777,-1.9645,-2.0865,-2.1601,-2.2732,-2.3675,-2.3877,-2.4036,-2.3827,-2.2744,-2.31,-2.3405,-2.2385,-2.2722,-2.332,-2.3905,-2.4054,-2.4728,-2.6728,-2.705,-2.7483,-2.8903,-2.8657,-2.8411,-2.8411,-2.8119,-2.7939,-2.7939,-2.7373,-2.6875,-2.6488,-2.5973,-2.5806,-2.6046,-2.4957,-2.4175,-2.3759,-2.2498,-2.1548,-2.079,-2.0704,-2.0198,-1.9441,-1.8299,-1.7401,-1.6649,-1.4813,-1.3769,-1.3204,-1.1839,-1.1099,-1.0665,-0.9276,-0.8203,-0.7285,-0.5472,-0.4604,-0.4257,-0.3307,-0.2438,-0.1391,-0.0087,0.1212,0.2424,0.372,0.4237,0.45,0.4844,0.587,0.7145,0.8688,0.9635,1.0475,1.1473,1.1791,1.226,1.3615,1.4252,1.4836,1.5545,1.5967,1.6405,1.6716,1.6515,1.6217,1.5887,1.5838,1.5298,1.3638,1.3732,1.3664,1.2978,1.4379,1.4928,1.3729,1.6421,1.9462,2.2381,2.3894,2.5461,2.7153,2.771,2.8549,2.9627,3.1464,3.2735,3.3521,3.5151,3.6135,3.6485,3.6853,3.7427,-1.9778,-2.0768,-2.2149,-2.3059,-2.3672,-2.4149,-2.4219,-2.4383,-2.4175,-2.2887,-2.3264,-2.3617,-2.2744,-2.2958,-2.3276,-2.3584,-2.3597,-2.4193,-2.5958,-2.661,-2.7355,-2.8609,-2.8837,-2.8925,-2.8925,-2.8747,-2.8657,-2.8657,-2.7514,-2.6796,-2.6686,-2.5716,-2.5249,-2.5121,-2.4419,-2.3836,-2.3402,-2.111,-2.0034,-2.0308,-1.9898,-1.9487,-1.8857,-1.785,-1.6819,-1.5891,-1.4453,-1.3179,-1.207,-1.1249,-1.0411,-0.9493,-0.8551,-0.735,-0.6064,-0.53,-0.3998,-0.2434,-0.1393,-0.0348,0.0608,0.1389,0.2857,0.4496,0.536,0.5618,0.5881,0.6653,0.9217,1.1827,1.268,1.3287,1.3787,1.4485,1.4711,1.5146,1.631,1.662,1.6945,1.7736,1.7829,1.7846,1.8132,1.7746,1.7456,1.7542,1.701,1.6436,1.5904,1.5684,1.5635,1.5793,1.6515,1.6921,1.6781,1.8326,2.0478,2.3169,2.5898,2.7906,2.8887,3.0115,3.0912,3.1394,3.3214,3.4467,3.4977,3.603,3.6856,3.7327,3.52,3.4585,-2.1486,-2.246,-2.3747,-2.4768,-2.4833,-2.4638,-2.4877,-2.44,-2.3625,-2.2752,-2.2579,-2.2605,-2.2617,-2.2822,-2.3074,-2.33,-2.3435,-2.3905,-2.4957,-2.5708,-2.66,-2.7604,-2.8564,-2.9144,-2.9144,-2.9278,-2.93,-2.9167,-2.757,-2.6602,-2.6431,-2.5146,-2.4173,-2.3467,-2.3514,-2.3209,-2.2473,-2.0063,-1.9017,-1.9287,-1.8656,-1.8193,-1.7882,-1.71,-1.607,-1.4962,-1.4218,-1.2814,-1.1166,-1.0988,-0.9981,-0.8389,-0.8048,-0.6481,-0.4586,-0.4776,-0.2951,-0.0261,0.0871,0.2003,0.2957,0.3217,0.4849,0.6909,0.7585,0.7755,0.8087,0.9794,1.3236,1.6357,1.6233,1.6451,1.6746,1.6716,1.6839,1.7176,1.7794,1.8056,1.8301,1.8866,1.8885,1.8847,1.8996,1.8473,1.8301,1.8866,1.7846,1.7379,1.8283,1.777,1.7881,1.9163,1.905,1.9368,2.0591,2.0644,2.1462,2.335,2.6944,2.9373,2.9964,3.1554,3.2049,3.1455,3.313,3.4123,3.4354,3.4589,3.505,3.558,3.1396,2.9697,-2.2659,-2.4392,-2.6191,-2.5929,-2.5848,-2.5544,-2.4611,-2.3104,-2.1663,-2.1107,-1.9727,-1.9058,-2.0669,-2.098,-2.1311,-2.2115,-2.2918,-2.3905,-2.4957,-2.5225,-2.5596,-2.6556,-2.756,-2.8185,-2.8185,-2.8899,-2.9033,-2.8252,-2.7944,-2.7394,-2.6507,-2.5606,-2.5034,-2.4953,-2.2875,-2.1666,-2.1396,-2.0988,-2.0327,-1.9591,-1.9439,-1.8579,-1.7021,-1.615,-1.5284,-1.4489,-1.3522,-1.2531,-1.1521,-1.0747,-0.9813,-0.8636,-0.6573,-0.5365,-0.4672,-0.3554,-0.2082,-0.0608,0.052,0.2167,0.408,0.5279,0.664,0.8249,1.0718,1.2049,1.2949,1.415,1.6248,1.8097,1.7439,1.8734,2.034,2.0737,2.1371,2.2158,2.325,2.3505,2.3574,2.3876,2.3968,2.3946,2.3946,2.3714,2.3527,2.3644,2.3131,2.2472,2.1598,2.1381,2.0996,2.0243,2.2164,2.3007,2.1874,2.5029,2.8027,3.0065,3.0835,3.2033,3.3889,3.1547,2.8629,2.5163,2.5225,2.5266,2.5301,2.609,2.6158,2.5539,2.4877,2.4337,-2.4016,-2.5407,-2.6801,-2.6515,-2.6253,-2.5806,-2.4931,-2.3444,-2.1917,-2.0856,-1.9437,-1.8701,-1.9615,-2.024,-2.091,-2.1781,-2.2383,-2.303,-2.4106,-2.4755,-2.5248,-2.5695,-2.7024,-2.7984,-2.7984,-2.8363,-2.843,-2.8006,-2.698,-2.6176,-2.5685,-2.4825,-2.4118,-2.376,-2.2559,-2.1922,-2.1805,-2.0997,-2.0496,-2.0476,-1.9134,-1.8055,-1.7211,-1.5831,-1.4948,-1.4394,-1.3098,-1.1938,-1.0831,-0.9906,-0.9061,-0.8048,-0.6058,-0.4586,-0.3464,-0.1817,-0.0087,0.1739,0.2851,0.4057,0.5613,0.8041,0.9626,1.1038,1.3155,1.5826,1.839,1.9704,2.1061,2.2023,2.1709,2.2657,2.3853,2.4306,2.4667,2.5223,2.6328,2.6508,2.6637,2.7135,2.7199,2.7109,2.7362,2.6893,2.6598,2.7034,2.6184,2.5519,2.5643,2.529,2.4976,2.4862,2.561,2.5909,2.5551,2.8855,3.137,3.2249,3.0592,3.0172,3.1482,2.8262,2.5826,2.4388,2.3816,2.3579,2.3612,2.3722,2.3583,2.3245,2.0937,1.9681,-2.5356,0.0,-2.6866,-2.6905,-2.649,-2.5897,0.0,-2.364,-2.1779,-2.0227,-1.8745,-1.7763,-1.7986,-1.9058,-2.024,-2.1092,-2.1713,-2.2271,-2.3007,-2.3811,-2.4487,-2.5005,-2.6356,-2.7433,-2.7655,-2.7717,-2.7598,-2.7374,-2.5964,-2.4904,-2.4436,-2.3684,-2.2887,-2.2096,-2.2457,-2.2507,-2.2147,-2.0923,-2.0346,-2.0327,-1.8442,-1.729,-1.6879,-1.5576,-1.461,-1.3961,-1.2661,-1.1333,-1.0149,-0.9391,-0.8373,-0.7015,-0.5451,-0.3634,-0.1644,0.0259,0.2338,0.4344,0.5613,0.6377,0.74,1.0449,1.2574,1.4189,1.5889,1.9405,2.2995,2.429,2.5241,2.5857,2.5791,2.6418,2.7095,2.7106,2.7268,2.7516,2.8122,2.821,2.8298,2.8889,2.8861,2.8834,2.913,2.8599,2.8358,2.8948,2.7904,2.7445,2.8412,2.8122,2.8007,2.8599,2.849,2.8582,2.9223,3.0816,3.1812,3.1943,2.8746,2.7204,2.7936,2.4732,2.3005,2.3144,2.1876,2.1004,2.0612,2.0104,1.9816,1.971,1.6308,1.4661,0.0,-2.6725,-2.6841,-2.7085,-2.6595,-2.5939,-2.5715,-2.2708,0.0,-1.8184,-1.5621,-1.3947,-1.4907,-1.663,-1.8187,-1.9124,-2.0758,-2.1959,-2.2026,-2.2115,-2.2831,-2.4681,-2.5206,-2.5796,-2.6659,-2.6925,-2.6646,-2.5511,-2.5308,-2.4496,-2.2679,-2.25,-2.2096,-2.1292,-2.2794,-2.2936,-2.1472,-2.1219,-2.0026,-1.776,-1.7603,-1.6626,-1.5175,-1.5014,-1.4029,-1.2389,-1.2319,-1.1311,-0.9728,-0.9728,-0.8187,-0.5784,-0.4229,-0.19,0.0778,0.3024,0.4749,0.6218,0.7755,0.8519,0.9178,1.1731,1.4523,1.7396,1.9535,2.2722,2.5617,2.6174,2.7258,2.8264,2.8,2.9016,2.9799,2.8866,2.9071,2.9365,2.8687,2.8506,2.8566,2.8594,2.8566,2.8566,2.8627,2.8566,2.8566,2.8594,2.8506,2.8412,2.8406,2.8746,2.9019,2.8929,3.0305,3.1234,3.1287,2.9262,2.8357,2.9207,2.6059,2.4625,2.5667,2.2451,1.9821,1.8036,1.5217,1.2825,1.0934,1.0853,1.0369,0.9413,0.9111,0.8664,-2.7009,-2.7047,-2.7175,-2.7493,-2.67,-2.5782,-2.5691,-2.3357,-2.0528,-1.8152,-1.6268,-1.4974,-1.4795,-1.6384,-1.8187,-1.9772,-2.0664,-2.1557,-2.2876,-2.2,-2.2038,-2.4129,-2.495,-2.5493,-2.5862,-2.5985,-2.5903,-2.5464,-2.4851,-2.4257,-2.3476,-2.3476,-2.31,-2.2313,-2.2722,-2.2722,-2.2147,-2.1051,-2.0382,-1.9913,-1.802,-1.6926,-1.6563,-1.4515,-1.3061,-1.2224,-1.1144,-1.0318,0.0,-0.7925,-0.6725,-0.5522,-0.2329,-0.0086,0.1721,0.4745,0.7131,0.9125,1.0904,1.2423,1.3895,1.5383,1.7627,1.9889,2.0936,2.4327,2.7781,2.7904,2.8659,2.951,2.922,3.0226,3.1222,3.0976,3.1407,3.1694,3.1453,3.1423,3.1445,3.137,3.1423,3.1498,3.1581,3.1476,3.1317,3.1317,3.124,3.1109,3.1055,3.1216,3.1294,3.1294,3.185,3.1142,2.8535,2.6905,2.5931,2.5713,2.1929,1.9575,1.9403,1.6292,1.4252,1.3497,1.2411,1.126,1.0149,0.9569,0.8721,0.7621,0.8738,0.849,-2.7149,-2.7277,-2.7493,-2.7807,-2.7021,-2.6022,-2.5823,-2.4012,-2.1562,-1.8712,-1.7049,-1.5869,-1.4929,-1.6384,-1.821,-1.9861,-2.0458,-2.1394,-2.3464,-2.2063,-2.1694,-2.3831,-2.5079,-2.5713,-2.5498,-2.5498,-2.5426,-2.5087,-2.4495,-2.4036,-2.3757,-2.399,-2.3827,-2.3171,-2.2865,-2.2651,-2.2342,-2.1272,-2.0606,-2.0343,-1.8295,-1.7067,-1.6579,-1.3879,-1.2413,-1.1904,-1.0485,-0.9728,-0.9306,-0.6712,-0.534,-0.4474,-0.0344,0.2064,0.3609,0.7124,0.9561,1.1368,1.3747,1.5556,1.7088,1.8443,2.0331,2.2186,2.2718,2.5829,2.9134,2.9071,2.9742,3.0538,3.0646,3.1353,3.2199,3.2434,3.2785,3.3031,3.2933,3.3,3.2781,3.1812,3.1695,3.151,3.0724,3.119,3.14,3.0578,3.1046,3.1275,3.0637,3.0509,3.0531,3.0713,3.0729,2.9448,2.6452,2.4416,2.3043,2.2392,1.8499,1.598,1.5358,1.3026,1.1699,1.1365,1.1208,1.0778,1.0075,0.923,0.8381,0.7621,0.8738,0.8661,-2.7213,-2.7493,-2.7834,-2.8153,-2.7629,-2.6867,-2.6194,-2.4641,-2.2564,-1.9657,-1.7518,-1.5914,-1.4974,-1.6406,-1.7986,-1.8924,-2.0047,-2.1499,-2.3441,-2.2171,-2.1797,-2.3877,-2.5539,-2.6178,-2.5515,-2.5557,-2.5313,-2.4383,-2.4314,-2.3874,-2.2958,-2.3687,-2.3897,-2.3546,-2.3242,-2.2701,-2.1981,-2.1784,-2.0492,-1.8106,-1.8123,-1.6815,-1.4327,-1.3168,-1.2176,-1.1249,-1.0569,-0.9728,-0.8713,-0.6183,-0.4201,-0.2313,0.1622,0.447,0.6665,1.0219,1.1885,1.281,1.6138,1.7497,1.8096,2.032,2.249,2.4367,2.5393,2.7488,2.9568,2.954,3.0425,3.1473,3.2434,3.2686,3.2736,3.2937,3.3003,3.2954,3.2647,3.2598,3.1789,2.9082,2.8558,2.769,2.4965,2.6754,2.7713,2.5265,2.7177,2.8249,2.6309,2.5821,2.5895,2.6538,2.6441,2.6163,2.5611,2.1794,1.938,1.938,1.6254,1.434,1.434,1.3768,1.2945,1.2022,1.1365,1.062,0.9699,0.8823,0.8397,0.8397,0.8389,0.8559,-2.7754,-2.803,-2.8153,-2.8487,-2.7905,-2.7123,-2.6505,-2.5338,-2.3627,-2.0837,-1.9159,-1.8098,-1.783,-1.8254,-1.9025,-2.0092,-2.058,-2.1523,-2.3563,-2.278,-2.2953,-2.5577,-2.6309,-2.6505,-2.6309,-2.5914,-2.5381,-2.4613,-2.4544,-2.4475,-2.4198,-2.3897,-2.3617,-2.3546,-2.2722,-2.2198,-2.1981,-2.0883,-2.0175,-1.9987,-1.839,-1.691,-1.5596,-1.4002,-1.2566,-1.0936,-0.8148,-0.6693,-0.6183,-0.2406,-0.0258,0.1116,0.5289,0.8017,0.9896,1.2773,1.5348,1.7712,1.9405,2.1503,2.3717,2.5085,2.628,2.7366,2.8176,2.9713,3.1198,3.1276,3.1702,3.2302,3.3,3.3385,3.3117,3.1189,3.0944,3.0558,2.8337,2.7951,2.775,2.682,2.6877,2.6798,2.6001,2.6546,2.683,2.6072,2.6652,2.6988,2.6391,2.6331,2.6413,2.6617,2.2726,2.0234,2.0331,1.8064,1.6439,1.5746,1.3666,1.2176,1.1561,1.15,1.1344,1.1093,1.0936,1.0778,1.0704,1.0,0.9981,1.0411,0.8985,0.9239,-2.8065,-2.8338,-2.8487,-2.8697,-2.8365,-2.7655,-2.666,-2.5848,-2.4591,-2.1939,-2.0496,-1.9682,-1.9719,-1.9383,-1.9509,-2.0663,-2.0944,-2.1656,-2.3642,-2.344,-2.3966,-2.6368,-2.6919,-2.7111,-2.7111,-2.644,-2.5914,-2.5472,-2.4955,-2.4567,-2.4268,-2.3757,-2.3405,-2.3051,-2.2436,-2.1909,-2.1577,-2.1011,-2.0473,-1.9912,-1.8355,-1.6956,-1.5646,-1.3582,-1.1528,-0.9421,-0.685,-0.5139,-0.3859,-0.0172,0.2144,0.3829,0.7994,1.0852,1.3036,1.6108,1.8599,2.0624,2.2708,2.4705,2.656,2.7481,2.8842,3.0084,3.0535,3.1383,3.2281,3.2434,3.2555,3.2704,3.3097,3.269,3.1526,2.8857,2.8463,2.8195,2.6335,2.6077,2.5741,2.424,2.4107,2.3825,2.2359,2.3018,2.3407,2.255,2.3328,2.3821,2.3184,2.2917,2.2917,2.3415,1.989,1.7603,1.7821,1.6626,1.5591,1.5094,1.4055,1.3237,1.2707,1.2224,1.1987,1.1987,1.1427,1.1198,1.1292,1.0663,1.0485,1.0821,0.9653,0.9484,-2.8092,-2.8426,-2.8663,-2.8575,-2.8663,-2.8269,-2.679,-2.6219,-2.5397,-2.3092,-2.1616,-2.0816,-2.0918,-2.0121,-1.9773,-2.0846,-2.1165,-2.1916,-2.3767,-2.4163,-2.4933,-2.6637,-2.7392,-2.7797,-2.7797,-2.7047,-2.6505,-2.6505,-2.5405,-2.4337,-2.3687,-2.3546,-2.3171,-2.2385,-2.2313,-2.1888,-2.1097,-2.1743,-2.0917,-1.8761,-1.7977,-1.6657,-1.4971,-1.2555,-0.9915,-0.714,-0.6232,-0.4274,-0.1456,0.1283,0.3814,0.6366,1.0296,1.3439,1.6248,1.9921,2.1541,2.2368,2.5808,2.7189,2.7578,2.8419,3.0253,3.2261,3.2261,3.2535,3.2853,3.3,3.3,3.2843,3.2654,3.1123,2.8986,2.6489,2.5871,2.5771,2.5364,2.5505,2.4701,2.1349,2.073,1.9729,1.6442,1.7948,1.896,1.6939,1.8712,1.9787,1.8344,1.7553,1.7492,1.839,1.7882,1.7447,1.7447,1.6753,1.6356,1.6356,1.6276,1.6196,1.6116,1.4786,1.3961,1.3798,1.2508,1.1783,1.1616,1.0915,1.0485,1.0485,1.0318,0.9382,-2.7896,-2.7959,-2.7834,-2.7239,-2.7556,-2.7771,-2.679,-2.644,-2.5997,-2.4714,-2.3204,-2.2102,-2.1886,-2.12,-2.0732,-2.1058,-2.1684,-2.2758,-2.4578,-2.5385,-2.6392,-2.8108,-2.8021,-2.7797,-2.7797,-2.6635,-2.589,-2.589,-2.5135,-2.4636,-2.4475,-2.3827,-2.3171,-2.2385,-2.1649,-2.1577,-2.2075,-2.0304,-1.9461,-1.9555,-1.7702,-1.5899,-1.4326,-1.3281,-1.0635,-0.6732,-0.4435,-0.1534,0.1878,0.5864,0.8572,1.0398,1.4584,1.7355,1.9531,2.2354,2.4371,2.5898,2.763,2.8609,2.9396,3.0482,3.1443,3.2075,3.2002,3.2281,3.2785,3.3225,3.3369,3.29,3.1146,3.0511,2.9626,2.6847,2.4576,2.2438,2.0263,1.9807,1.9627,1.882,1.9011,1.9062,1.8278,1.8922,1.9332,1.8832,1.9325,1.9567,1.8756,1.8786,1.8442,1.7414,1.71,1.7195,1.7447,1.6753,1.6356,1.6356,1.5686,1.4948,1.4218,1.4381,1.3811,1.2508,1.285,1.2614,1.1699,1.1866,1.1855,1.1677,1.0402,0.9981,-2.7175,-2.7239,-2.7111,-2.6725,-2.7175,-2.7582,-2.679,-2.6357,-2.5786,-2.4697,-2.328,-2.2111,-2.1734,-2.1386,-2.1226,-2.1743,-2.2568,-2.3621,-2.487,-2.5848,-2.6752,-2.7603,-2.7429,-2.7239,-2.7239,-2.657,-2.5956,-2.5691,-2.5313,-2.5023,-2.4705,-2.3967,-2.2936,-2.1722,-2.1649,-2.1284,-2.0602,-2.01,-1.9329,-1.8243,-1.6783,-1.5197,-1.3677,-1.1214,-0.8329,-0.5034,-0.1791,0.1791,0.5463,0.8345,1.1325,1.4388,1.659,1.9552,2.2891,2.4619,2.6522,2.831,2.9485,3.017,3.0593,3.1419,3.2158,3.2704,3.2636,3.2933,3.3136,3.2144,3.1815,3.1182,2.8694,2.7311,2.6124,2.4576,2.2149,1.9849,1.8545,1.7994,1.7743,1.7414,1.7273,1.7132,1.699,1.7132,1.7368,1.7682,1.7838,1.7838,1.762,1.8382,1.8519,1.7352,1.7195,1.729,1.7447,1.7148,1.6911,1.6911,1.6086,1.5445,1.4962,1.4381,1.3729,1.2826,1.2863,1.2626,1.2044,1.2306,1.2377,1.2199,1.1438,1.1009,-2.6375,-2.644,-2.644,-2.644,-2.7047,-2.7456,-2.679,-2.6239,-2.5547,-2.4583,-2.3252,-2.2155,-2.1747,-2.1602,-2.1785,-2.2661,-2.3635,-2.4522,-2.5226,-2.6242,-2.679,-2.6635,-2.6505,-2.644,-2.644,-2.6375,-2.6046,-2.5515,-2.5624,-2.5381,-2.4705,-2.3967,-2.2914,-2.1681,-2.2126,-2.1305,-1.9083,-1.995,-1.9119,-1.672,-1.5676,-1.4299,-1.2495,-0.8681,-0.5373,-0.2477,0.1024,0.4775,0.8807,1.0449,1.3654,1.7533,1.8412,2.1482,2.5561,2.6701,2.8243,2.9943,3.0929,3.1341,3.1449,3.1845,3.2636,3.3289,3.2782,3.2945,3.275,3.0134,2.9334,2.8632,2.5932,2.3742,2.2067,2.1494,1.9716,1.8287,1.8495,1.8011,1.7368,1.68,1.6165,1.5781,1.5621,1.5621,1.5796,1.6371,1.6435,1.6515,1.6594,1.7665,1.8132,1.7603,1.7603,1.7603,1.7603,1.7603,1.7525,1.7368,1.6895,1.6435,1.6036,1.48,1.3892,1.3484,1.2945,1.2543,1.2472,1.2472,1.2472,1.2472,1.2128,1.1649,-2.5823,-2.5782,-2.5782,-2.5782,-2.6309,-2.679,-2.6635,-2.6598,-2.6407,-2.6174,-2.5157,-2.4135,-2.3637,-2.3178,-2.3051,-2.3756,-2.4471,-2.5302,-2.628,-2.7161,-2.7392,-2.6725,-2.6112,-2.5782,-2.5782,-2.527,-2.4887,-2.4818,-2.5313,-2.5381,-2.4705,-2.3967,-2.3757,-2.4175,-2.3029,-2.1857,-2.0829,-1.8431,-1.7269,-1.7503,-1.5023,-1.261,-1.0141,-0.8521,-0.4686,0.0856,0.2957,0.6417,1.0821,1.4757,1.6933,1.8361,2.2343,2.4757,2.6177,2.8243,2.9799,3.0929,3.1094,3.1449,3.1845,3.2251,3.2804,3.2821,3.0308,2.9929,2.9779,2.7273,2.6563,2.5952,2.333,2.2555,2.1878,1.9529,1.8861,1.8727,1.8822,1.8245,1.776,1.7447,1.7447,1.7682,1.796,1.815,1.834,1.8435,1.8555,1.846,1.7882,1.7899,1.7916,1.7838,1.7899,1.796,1.796,1.796,1.7726,1.7037,1.7492,1.6863,1.4747,1.5606,1.5109,1.2838,1.325,1.3098,1.2472,1.2472,1.2472,1.2377,1.0841,1.0267,-2.4908,-2.4976,-2.5135,-2.5135,-2.5582,-2.6087,-2.6087,-2.6153,-2.6044,-2.5734,-2.4733,-2.3758,-2.3232,-2.3113,-2.3327,-2.4038,-2.4843,-2.558,-2.6038,-2.6375,-2.6309,-2.5606,-2.527,-2.5135,-2.5135,-2.5203,-2.5067,-2.4705,-2.5246,-2.5381,-2.4705,-2.3479,-2.3127,-2.3967,-2.1577,-2.0547,-2.1219,-1.8508,-1.6547,-1.5342,-1.2667,-1.0501,-0.8589,-0.3529,0.0168,0.2712,0.7057,1.0726,1.3774,1.6311,1.8937,2.167,2.3854,2.5979,2.8034,2.8893,3.0171,3.1419,3.1419,3.1919,3.2535,3.2704,3.2123,3.107,2.9943,2.8714,2.7135,2.4586,2.3888,2.3241,2.0557,2.0042,1.9967,1.8768,1.8727,1.8863,1.84,1.815,1.7743,1.699,1.6832,1.6974,1.7492,1.7665,1.7838,1.8089,1.8167,1.815,1.7977,1.7977,1.7977,1.7977,1.8055,1.8115,1.8115,1.8115,1.796,1.757,1.7492,1.6942,1.5846,1.5911,1.5189,1.366,1.3906,1.3591,1.2792,1.2792,1.2792,1.2721,1.1938,1.1517,-2.3944,-2.4245,-2.4613,-2.4887,-2.5313,-2.5624,-2.5624,-2.5697,-2.5675,-2.5342,-2.4382,-2.3568,-2.3353,-2.3439,-2.3729,-2.4389,-2.5177,-2.5624,-2.5624,-2.5624,-2.5448,-2.4774,-2.4705,-2.4705,-2.4705,-2.527,-2.5381,-2.4774,-2.5135,-2.5203,-2.4705,-2.3317,-2.28,-2.3524,-2.0749,-1.9725,-2.068,-1.8756,-1.6106,-1.2704,-1.0418,-0.8062,-0.5543,0.0839,0.4199,0.5222,1.1074,1.4575,1.6233,1.7849,2.0704,2.4152,2.4833,2.6778,2.9189,2.9449,3.0454,3.1656,3.1919,3.2586,3.3226,3.2736,3.1354,2.9675,2.8745,2.6856,2.455,2.2175,2.1358,2.0803,1.9067,1.8537,1.859,1.8572,1.8863,1.894,1.8382,1.8287,1.796,1.7116,1.6658,1.6579,1.7116,1.7116,1.7116,1.7447,1.7542,1.7682,1.7916,1.8055,1.821,1.821,1.821,1.8287,1.8287,1.8287,1.821,1.7977,1.7587,1.7195,1.6721,1.623,1.5591,1.48,1.4489,1.4014,1.337,1.3123,1.3053,1.3053,1.2792,1.262,-2.3078,-2.3735,-2.4497,-2.5357,-2.5624,-2.5624,-2.5624,-2.5642,-2.5683,-2.5617,-2.5083,-2.4789,-2.5411,-2.5015,-2.4816,-2.5484,-2.56,-2.5624,-2.5624,-2.5624,-2.5448,-2.4774,-2.4705,-2.4705,-2.4705,-2.527,-2.5381,-2.4774,-2.4705,-2.4705,-2.4705,-2.3897,-2.3476,-2.3546,-2.1951,-2.0512,-1.9347,-1.8484,-1.5413,-1.0276,-0.894,-0.5204,0.0428,0.2191,0.5295,0.9441,1.3721,1.6248,1.748,2.0508,2.2586,2.4083,2.6109,2.7596,2.8774,3.0114,3.1014,3.1656,3.2605,3.3433,3.3694,3.1959,3.0799,2.9339,2.5134,2.3168,2.2011,2.0223,1.9218,1.8819,1.9724,1.94,1.8899,1.9017,1.9017,1.9094,1.9324,1.8981,1.862,1.8544,1.8115,1.776,1.7838,1.7603,1.7447,1.7447,1.7682,1.7916,1.8037,1.8322,1.8417,1.8417,1.865,1.8822,1.8822,1.8822,1.8417,1.7603,1.834,1.8011,1.6245,1.6689,1.6674,1.5896,1.4881,1.434,1.434,1.3453,1.3053,1.297,1.2176,1.235,-2.2794,-2.329,-2.3804,-2.4795,-2.4999,-2.4999,-2.4999,-2.5381,-2.5557,-2.5039,-2.5087,-2.5246,-2.4972,-2.4771,-2.4774,-2.5023,-2.4999,-2.4999,-2.4999,-2.4999,-2.4955,-2.4705,-2.4705,-2.4705,-2.4705,-2.527,-2.5381,-2.4774,-2.4635,-2.4405,-2.399,-2.2177,-2.1451,-2.2023,-1.9574,-1.8295,-1.8484,-1.464,-1.184,-1.0019,-0.5442,-0.1969,0.0684,0.5629,0.9305,1.2038,1.6342,1.9387,2.1412,2.25,2.4515,2.6943,2.772,2.8834,3.0057,3.0929,3.158,3.194,3.1561,3.1463,3.1241,2.9493,2.7171,2.4837,2.3915,2.2167,2.0527,2.0637,2.0045,1.9553,1.9913,1.9476,1.9017,1.9017,1.9382,1.9534,1.904,1.9058,1.9058,1.8697,1.8484,1.8347,1.8287,1.821,1.8055,1.776,1.8501,1.8878,1.8374,1.8572,1.8745,1.8745,1.8822,1.8822,1.8822,1.8958,1.8786,1.8417,1.8727,1.8632,1.7933,1.8089,1.7838,1.6958,1.6563,1.6086,1.5525,1.4719,1.4313,1.4218,1.332,1.3141,-2.1478,-2.2057,-2.2477,-2.326,-2.3466,-2.3442,-2.3323,-2.3951,-2.4405,-2.4072,-2.4714,-2.5179,-2.4656,-2.4658,-2.4705,-2.4705,-2.4705,-2.4705,-2.4705,-2.4705,-2.4705,-2.4705,-2.4705,-2.4705,-2.4705,-2.4863,-2.4771,-2.4337,-2.3991,-2.3619,-2.3171,-2.0823,-1.9781,-2.0418,-1.778,-1.6042,-1.5398,-1.177,-0.9451,-0.8273,-0.281,0.0257,0.1528,0.9022,1.3134,1.4626,1.8819,2.1722,2.3576,2.3992,2.5889,2.8566,2.8566,2.948,3.0766,3.1282,3.1456,3.1265,3.0281,2.983,2.9395,2.7641,2.5285,2.3102,2.3234,2.183,2.0402,2.1071,2.0774,2.0196,2.0196,1.9762,1.9229,1.9382,1.9762,1.997,1.9402,1.9667,1.9762,1.9269,1.9161,1.9185,1.8907,1.8958,1.8891,1.8665,1.9132,1.9693,2.0167,1.9971,1.9772,1.9723,1.9324,1.9189,1.94,1.9247,1.9189,1.9035,1.9094,1.9094,1.8958,1.8881,1.865,1.7933,1.762,1.7211,1.6563,1.5751,1.5336,1.535,1.4462,1.4343,-1.9114,-1.9955,-2.0619,-2.0848,-2.1004,-2.0902,-2.0669,-2.1417,-2.231,-2.2918,-2.3841,-2.4611,-2.4543,-2.4611,-2.4635,-2.4658,-2.4658,-2.4658,-2.4636,-2.4636,-2.4705,-2.4636,-2.4705,-2.4705,-2.4636,-2.3967,-2.3476,-2.3476,-2.2744,-2.2241,-2.2241,-2.0042,-1.8743,-1.8801,-1.6813,-1.3949,-1.0193,-1.0203,-0.8364,-0.469,-0.111,0.1444,0.3345,1.184,1.6248,1.7359,2.0951,2.2942,2.3762,2.4992,2.6765,2.8627,2.8627,2.948,3.0792,3.1264,3.0691,2.9578,2.8906,2.8682,2.8327,2.653,2.5413,2.4482,2.2894,2.193,2.1419,2.1492,2.1051,2.0645,2.0645,2.0121,1.9667,1.9989,2.0121,2.0346,2.0571,2.0814,2.0814,2.0253,2.034,2.0316,1.9816,2.001,2.0128,2.0145,1.9719,2.0432,2.3368,2.2613,2.1723,2.1447,2.0271,1.9838,2.0571,1.9913,1.9553,1.9476,1.9553,1.94,1.9171,1.9152,1.9017,1.8976,1.8011,1.7603,1.7525,1.6642,1.6165,1.6165,1.5336,1.5616,-1.8197,-1.8633,-1.9028,-1.9893,-2.06,-2.0902,-2.0669,-2.1353,-2.1868,-2.13,-2.1831,-2.2267,-2.1698,-2.2015,-2.2649,-2.3463,-2.3538,-2.3638,-2.3806,-2.4337,-2.4475,-2.3897,-2.4337,-2.4498,-2.3897,-2.31,-2.2672,-2.2672,-2.0877,-1.9818,-1.9818,-1.7669,-1.6515,-1.6751,-1.3265,-1.1117,-1.0368,-0.5674,-0.2558,-0.1026,0.3065,0.5611,0.6854,1.1644,1.5765,1.9312,2.1608,2.4014,2.6522,2.6867,2.823,3.0143,3.0143,3.037,3.068,3.0346,2.9484,2.8337,2.7201,2.6432,2.5658,2.395,2.2848,2.2225,2.2419,2.2364,2.2364,2.3171,2.2507,2.1565,2.1565,2.0829,2.0102,2.0102,2.0496,2.0794,2.0888,2.1057,2.1257,2.1779,2.2254,2.2535,2.258,2.2853,2.3009,2.2607,2.3189,2.393,2.4686,2.3541,2.2418,2.1741,2.1366,2.1219,2.1439,2.1345,2.1198,2.1145,2.1219,2.1198,2.0997,2.0829,2.068,2.07,1.9819,1.9287,1.9287,1.7821,1.7132,1.7132,1.6245,1.6554,-1.5822,-1.6169,-1.6407,-1.6881,-1.7544,-1.8093,-1.8098,-1.8811,-1.952,-1.955,-2.0202,-2.0676,-2.0221,-2.0553,-2.1064,-2.163,-2.1721,-2.186,-2.2226,-2.2714,-2.3072,-2.3306,-2.292,-2.2449,-2.2048,-2.1282,-2.0719,-2.0409,-1.8793,-1.7725,-1.7497,-1.4683,-1.321,-1.3372,-0.9543,-0.7119,-0.6345,-0.2219,0.0516,0.198,0.5978,0.8747,1.0306,1.3333,1.7055,2.1215,2.3298,2.5502,2.7649,2.823,2.9363,3.071,3.071,3.0382,2.9766,2.8867,2.8077,2.7282,2.5576,2.4698,2.4162,2.3215,2.2579,2.2364,2.3007,2.3313,2.3454,2.3383,2.2887,2.2219,2.1565,2.0997,2.0571,2.0571,2.0814,2.1057,2.1057,2.1582,2.2159,2.2412,2.3418,2.4153,2.4054,2.4625,2.5233,2.5856,2.6642,2.7177,2.7177,2.568,2.4385,2.3718,2.3147,2.2744,2.2529,2.2313,2.2075,2.2023,2.2075,2.2075,2.1878,2.1638,2.1492,2.1419,2.0774,2.0496,2.0496,1.9211,1.8537,1.8519,1.7352,1.7864,-1.275,-1.3168,-1.3349,-1.2921,-1.3332,-1.3931,0.0,-1.5162,-1.6246,-1.7536,-1.8644,-1.9372,-1.9311,-1.9458,-1.9628,-1.9736,-1.982,-1.9987,-2.0301,-2.0508,-2.107,-2.2459,-2.0636,-1.9404,-1.951,-1.8682,-1.7911,-1.7324,-1.6483,-1.5618,-1.4771,-1.1378,-0.9259,-0.9037,-0.5791,-0.2915,-0.0516,0.0343,0.215,0.4763,0.8201,1.116,1.3574,1.6436,1.9518,2.2701,2.5351,2.688,2.7613,2.9068,3.0086,3.0654,3.0654,2.9886,2.8595,2.7293,2.676,2.6325,2.4214,2.3546,2.3546,2.3665,2.3735,2.3804,2.4106,2.4406,2.4406,2.3029,2.2815,2.2672,2.1219,2.0943,2.1037,2.1037,2.1151,2.1191,2.1366,2.2449,2.3221,2.2854,2.4377,2.5545,2.5013,2.5712,2.7079,2.9102,2.9566,2.9676,2.9764,2.8258,2.6953,2.6466,2.5265,2.429,2.3687,2.3029,2.2601,2.2601,2.2601,2.2529,2.2292,2.2147,2.1951,2.1711,2.1419,2.1292,2.1292,2.0496,2.014,2.0121,1.8751,1.9264,0.0,0.0,0.0,0.0,0.0,0.0,0.0,-1.3796,-1.4504,-1.4888,-1.5726,-1.6365,-1.6408,-1.7322,-1.8344,-1.9098,-1.9602,-1.9756,-1.9111,-1.9928,-2.0246,-1.931,-1.7443,-1.6528,-1.7359,-1.6023,-1.4988,-1.4858,-1.3539,-1.19,-0.9852,-0.8211,-0.6579,-0.4935,-0.2567,-0.0859,0.0171,0.2329,0.5078,0.8462,1.1057,1.3748,1.6468,1.9799,2.1743,2.2629,2.4543,2.5848,2.6803,2.8676,2.9855,3.0399,3.0399,2.9606,2.834,2.7216,2.6213,2.5218,2.3979,2.3594,2.3665,2.3735,2.3944,2.4245,2.4475,2.4681,2.4818,2.4589,2.3874,2.3007,2.2722,2.1899,2.1151,2.1151,2.1151,2.1501,2.2669,2.3133,2.383,2.546,2.6474,2.7224,2.7692,2.8349,2.8814,2.9279,2.9367,2.9478,2.9764,2.8872,2.7966,2.7268,2.6399,2.5453,2.4545,2.4337,2.4268,2.4268,2.4268,2.4198,2.4175,2.3827,2.3617,2.3594,2.2601,2.2096,2.2096,2.1366,2.0923,2.0923,2.0045,2.0273,0.0,0.0,0.0,0.0,0.0,0.0,0.0,0.0,0.0,0.0,0.0,-1.3306,-1.3325,0.0,-1.515,-1.5568,-1.6155,-1.6598,-1.6762,-1.738,-1.694,-1.4741,-1.391,-1.3697,-1.4269,-1.3495,-1.2793,-1.2462,-1.0759,-0.9101,-0.7726,-0.5165,-0.3134,-0.1923,0.1309,0.3312,0.3965,0.7057,0.9488,1.1314,1.4121,1.6513,1.8671,2.1191,2.2958,2.4014,2.4795,2.5782,2.7021,2.8003,2.8976,2.9855,3.0028,2.9666,2.8913,2.7883,2.7146,2.6403,2.4925,2.4429,2.4416,2.4107,2.4245,2.4544,2.475,2.4979,2.5091,2.4795,2.4014,2.3242,2.2815,2.2262,2.1773,2.1826,2.1972,2.239,2.3718,2.4295,2.5123,2.6706,2.772,2.8462,2.8947,2.9455,2.9871,2.9871,3.0219,3.0628,3.1079,3.0429,2.9754,2.9227,2.7891,2.6806,2.6205,2.5332,2.5023,2.5606,2.5673,2.5606,2.5496,2.5338,2.5135,2.4774,2.4291,2.3921,2.3735,2.2651,2.2147,2.2126,2.0711,2.0278,0.0,0.0,0.0,0.0,0.0,0.0,0.0,0.0,0.0,0.0,0.0,0.0,0.0,0.0,0.0,-1.2393,-1.2744,-1.3415,-1.4317,-1.4278,-1.3322,-1.115,-1.1164,-1.1136,-1.0733,-1.0552,-1.0063,-0.9081,-0.7502,-0.6236,-0.551,-0.2215,0.0,0.0751,0.4576,0.7062,0.8057,1.119,1.3204,1.4041,1.6839,0.0,2.0517,2.2156,2.3804,2.5386,2.5294,2.6046,2.7377,2.7377,2.8126,2.936,2.9477,2.9651,2.9626,2.8592,2.815,2.7795,2.5908,2.5294,2.5229,2.4559,2.4613,2.4842,2.4979,2.5251,0.0,2.4727,2.4175,2.3524,2.2815,2.2601,2.2601,2.2579,2.2794,2.3502,2.4994,2.563,2.6353,2.7731,2.8658,2.9367,2.9367,2.9799,3.0177,3.0177,3.1107,3.19,3.2341,3.1926,3.1462,3.1135,2.9615,2.8391,2.7802,2.6364,2.5758,2.6595,2.6505,2.6375,2.6203,2.6269,2.603,2.552,2.5254,2.5067,2.4824,2.3534,2.2874,2.2829,2.0717,2.0008,0.0,0.0,0.0,0.0,0.0,0.0,0.0,0.0,0.0,0.0,0.0,0.0,0.0,0.0,0.0,0.0,-1.3114,-1.3064,-1.2625,-1.1735,-1.127,-1.1525,-1.068,-0.942,-0.7505,-0.6531,-0.5173,-0.3224,-0.3099,-0.2188,-0.007,0.0423,0.0,0.0,0.0,0.75,0.9667,1.1227,1.3803,1.7353,1.875,2.039,2.2126,2.3804,2.4795,2.5159,2.5697,2.6465,2.7277,2.7277,2.8003,2.9095,2.8433,2.8851,2.9626,2.8592,2.7993,2.7441,2.5825,0.0,0.0,2.4807,2.4979,2.541,2.5386,2.552,2.5588,2.552,2.4931,2.4222,2.3546,2.3405,2.3242,2.2722,2.3078,2.4325,2.6863,2.6961,2.72,2.9497,2.9629,2.9367,2.9367,2.9653,2.9708,2.9486,3.0928,3.2008,3.2115,3.2547,3.2583,3.1857,3.1552,0.0,2.8598,2.7861,2.7224,2.6646,2.6244,2.5956,2.589,2.5823,2.5691,2.5648,2.4179,2.3637,2.4043,2.2609,2.1939,2.1892,1.9672,1.9617,0.0,0.0,0.0,0.0,0.0,0.0,0.0,0.0,0.0,0.0,0.0,0.0,0.0,0.0,0.0,0.0,-1.0355,-1.0254,-0.8647,-0.799,-0.742,-0.6754,-0.6235,-0.5481,-0.4195,-0.3831,-0.3331,-0.244,-0.1542,-0.052,0.0667,0.1875,0.319,0.4731,0.7328,0.9446,1.1133,1.4052,1.6917,1.9652,2.0501,2.1956,2.3944,2.4589,2.5159,2.5697,2.5964,2.6203,2.653,2.6595,2.7377,2.8433,0.0,0.0,0.0,0.0,2.8871,2.8322,2.6802,2.6322,2.6223,2.5239,2.5183,2.5477,2.5477,2.552,2.5655,2.5655,2.5067,2.4497,2.4314,2.4314,2.4314,2.4268,2.4543,2.538,2.7192,2.7085,2.7131,2.868,2.8717,0.0,2.8554,2.8984,2.9399,2.9476,3.0331,3.1421,3.2755,3.3065,3.3168,3.3634,3.3135,3.2397,3.1328,2.9464,0.0,0.0,0.0,2.7213,2.7655,2.7314,0.0,0.0,0.0,2.4329,2.2868,2.2137,0.0,0.0,1.7588,1.7452,0.0,0.0,0.0,0.0,0.0,0.0,0.0,0.0,0.0,0.0,0.0,0.0,0.0,0.0,0.0,0.0,-0.7758,-0.7658,-0.5494,-0.5078,-0.4424,-0.3054,-0.2925,-0.2504,-0.1282,-0.1412,-0.1349,-0.0771,0.0515,0.1419,0.1679,0.3245,0.468,0.5886,0.8863,1.1306,1.3018,1.6388,1.9021,2.086,2.1804,2.3115,2.4705,2.5083,2.5563,2.6096,2.6162,2.6162,2.6096,2.6228,2.6829,2.7639,2.6936,2.7123,2.7833,2.8353,2.8382,2.8065,2.7138,2.6688,2.6333,2.5358,2.4867,2.4673,2.4673,2.4932,2.5217,2.5217,2.5011,2.4863,2.4887,2.5023,2.5227,2.5448,2.5648,2.621,2.7414,2.7212,2.7168,2.8098,2.7985,2.765,2.765,2.8406,2.909,2.9427,3.0092,3.1256,3.3137,3.3587,3.4073,3.5013,3.4856,3.4465,3.3994,3.185,3.0725,3.1098,2.9651,2.8935,2.9266,2.8763,2.7711,2.6115,2.522,2.3684,0.0,0.0,0.0,0.0,0.0,0.0,0.0,0.0,0.0,0.0,0.0,0.0,0.0,0.0,0.0,0.0,0.0,0.0,0.0,0.0,0.0,0.0,0.0,0.0,-0.4344,-0.3932,-0.3407,-0.2456,-0.2475,-0.1538,0.1026,0.103,0.1681,0.3715,0.4293,0.4545,0.4545,0.4944,0.5942,0.7625,0.9751,1.2308,1.5394,1.7319,1.9016,2.0473,2.2516,2.3582,2.3844,2.534,2.6071,2.6203,2.64,2.6334,2.6203,2.6203,2.653,2.679,2.4572,2.4369,2.5394,2.5394,2.5551,2.5838,2.6137,2.5759,2.5103,2.4938,2.3851,2.2622,2.2622,2.3354,2.416,2.416,2.4851,2.552,2.5023,2.5429,2.5897,2.5515,2.5914,2.6767,2.8054,2.7847,2.7697,2.8898,2.7867,2.6838,2.6838,2.7741,2.8607,2.9259,3.0667,0.0,3.2594,3.433,3.5531,3.556,3.6751,3.7121,3.5988,3.5292,3.4121,3.2116,3.1464,3.0838,3.0143,2.9477,2.8541,2.721,2.2834,2.0294,1.9714,0.0,0.0,0.0,0.0,0.0,0.0,0.0,0.0,0.0,0.0,0.0,0.0,0.0,0.0,0.0,0.0,0.0,0.0,0.0,0.0,0.0,0.0,0.0,0.0,-0.2022,-0.1371,0.0663,0.0851,0.1438,0.2991,0.2766,0.2942,0.3887,0.3761,0.4339,0.5869,0.6404,0.7639,0.9799,1.2026,1.3824,1.5129,1.6365,1.8152,2.0556,2.0651,2.1956,2.4212,2.4794,2.5466,2.6203,2.64,2.5869,2.4942,2.5132,2.477,2.4046,2.3644,2.3765,2.4153,2.4482,2.4779,2.4901,2.5048,2.4804,2.4368,2.3983,2.3496,2.3022,2.2642,2.2793,2.3062,2.3062,2.3843,2.4648,2.4687,2.5486,2.6228,2.6359,2.6515,2.6812,2.7233,2.7202,2.7127,2.7572,2.697,2.6227,2.5524,2.6492,2.7503,2.7859,2.9044,3.0395,3.1833,3.3236,3.4538,3.5555,3.6921,3.7593,3.7134,3.6263,3.5033,3.3599,3.2464,3.1313,3.0343,2.9117,2.7875,2.6448,2.314,2.093,1.9897,0.0,0.0,0.0,0.0,0.0,0.0,0.0,0.0,0.0,0.0,0.0,0.0,0.0,0.0,0.0,0.0,0.0,0.0,0.0,0.0,0.0,0.0,0.0,0.0,0.0,0.0,0.291,0.3105,0.0,0.4069,0.3896,0.3789,0.3962,0.4265,0.5134,0.6725,0.7419,0.8707,1.0818,1.3006,1.4294,1.4675,1.6079,1.7605,1.9074,1.9386,2.0639,2.2736,2.3572,2.4323,2.4843,2.5158,2.4659,2.3769,2.3528,2.2428,2.0929,2.125,2.1357,2.1393,2.1468,2.1786,2.2179,2.2424,2.2564,2.2481,2.1968,2.1429,2.0856,2.0416,2.0929,2.1599,2.1489,2.2544,2.383,2.4166,2.5179,2.6178,2.6669,2.7169,2.7418,2.7227,2.7227,2.7095,2.6264,2.5957,2.5584,2.4994,2.5672,2.6465,2.6928,2.8019,2.9258,3.0688,3.2331,3.3887,3.5409,3.6781,3.7808,3.8175,3.7178,3.5962,3.4648,3.3274,3.1788,3.0069,2.86,2.6993,2.5185,2.2507,2.0462,0.0,0.0,0.0,0.0,0.0,0.0,0.0,0.0,0.0,0.0,0.0,0.0,0.0,0.0,0.0,0.0,0.0,0.0,0.0,0.0,0.0,0.0,0.0,0.0,0.0,0.0,0.0,0.4102,0.4127,0.0,0.0,0.0,0.0,0.4139,0.57,0.6843,0.7215,0.7985,0.9173,1.0915,1.2713,1.3821,1.4181,1.6373,1.7135,1.6395,1.8754,1.9757,1.9602,2.1947,2.2775,2.2393,2.2882,2.2915,2.2503,2.1353,1.9702,1.7773,1.7525,1.7401,1.7318,1.6695,1.7041,1.792,1.8679,1.9275,1.9679,1.9162,1.7999,1.6705,1.6282,1.7879,0.0,0.0,2.1097,2.3075,2.3332,2.4489,2.5781,2.6393,2.7544,2.8412,2.7799,2.787,2.7362,2.5183,2.4722,2.4745,2.4947,0.0,2.5495,2.634,2.7528,2.856,2.9275,3.1554,3.3664,3.5031,3.6619,3.8,3.8893,3.8145,3.6891,3.524,3.4048,3.2136,2.9457,2.7881,2.5864,2.3425,2.0877,0.0,0.0,0.0,0.0,0.0,0.0,0.0,0.0,0.0,0.0,0.0,0.0,0.0,0.0,0.0,0.0,0.0,0.0,0.0,0.0,0.0,0.0,0.0,0.0,0.0,0.0,0.206,0.2533,0.3838,0.3968,0.4011,0.0,0.0,0.0,0.0,0.0,0.0,0.783,0.8376,0.9698,1.1972,1.3265,1.3921,1.4056,1.4855,1.5899,1.72,1.7637,1.9036,2.1189,2.1432,2.1832,2.2335,2.251,2.1931,2.0706,1.828,1.6961,1.643,1.6257,1.6125,1.6005,1.5738,1.6161,1.689,1.7084,1.7831,1.8633,1.8287,1.7925,1.7469,1.6906,0.0,0.0,0.0,0.0,2.1409,2.1357,2.3156,2.4963,2.5018,2.5369,2.5667,2.5499,2.5611,2.521,2.3363,2.2474,2.1792,2.1173,2.2844,0.0,2.4436,2.6371,2.8167,2.9198,3.101,3.2931,3.485,3.7265,3.8425,3.7681,3.8363,3.7526,3.4505,3.3403,3.1625,2.8887,2.6368,2.3797,2.1119,0.0,0.0,0.0,0.0,0.0,0.0,0.0,0.0,0.0,0.0,0.0,0.0,0.0,0.0,0.0,0.0,0.0,0.0,0.0,0.0,0.0,0.0,0.0,0.0,0.0,0.0,0.0,0.2856,0.3448,0.4203,0.433,0.428,0.0,0.0,0.0,0.0,0.0,0.0,0.0,0.0,0.0,1.0772,1.2416,1.3118,1.2723,1.3781,1.4644,1.5372,1.5689,1.6711,1.8278,1.8693,1.9034,1.9364,1.9621,1.9027,1.7715,1.6103,1.5393,1.531,0.0,0.0,0.0,0.0,1.4347,1.4925,1.5022,1.5634,1.6354,1.6491,0.0,0.0,0.0,0.0,0.0,0.0,0.0,1.9339,1.9313,2.094,2.2714,2.3481,2.4179,2.4754,2.5069,2.3851,2.2392,2.1414,2.0866,2.0383,2.0042,2.1302,0.0,0.0,0.0,2.6752,2.791,2.9921,3.2442,3.5449,3.7101,3.7986,3.7748,3.7989,3.6661,3.3147,3.12,2.9086,2.6618,2.3609,2.13,0.0,0.0,0.0,0.0,0.0,0.0,0.0,0.0,0.0,0.0,0.0,0.0,0.0,0.0,0.0,0.0,0.0,0.0,0.0,0.0,0.0,0.0,0.0,0.0,0.0,0.0,0.0,0.0,0.0,0.4734,0.4967,0.0,0.0,0.0,0.0,0.0,0.0,0.0,0.0,0.0,0.0,0.0,0.0,0.0,1.1608,1.0727,1.2775,1.3468,1.269,1.3683,1.413,1.4087,1.5376,1.574,1.5395,1.5634,0.0,1.4388,1.4323,0.0,0.0,0.0,0.0,0.0,0.0,0.0,0.0,0.0,0.0,0.0,0.0,0.0,0.0,0.0,0.0,0.0,0.0,0.0,0.0,0.0,0.0,2.0129,2.1696,2.3052,2.4143,2.4695,2.2063,1.9581,1.9646,1.9494,1.9501,0.0,0.0,0.0,0.0,0.0,0.0,2.6292,2.8599,3.1766,3.6213,3.6691,3.7014,3.7777,3.6904,3.4785,3.1016,2.8453,2.6043,2.37,2.0812,0.0,0.0,0.0,0.0,0.0,0.0,0.0,0.0,0.0,0.0,0.0,0.0,0.0,0.0,0.0,0.0,0.0,0.0,0.0,0.0,0.0,0.0,0.0,0.0,0.0,0.0,0.0,0.0,0.0,0.0,0.0,0.0,0.0,0.0,0.0,0.0,0.0,0.0,0.0,0.0,0.0,0.0,0.0,0.0,0.0,0.0,0.0,0.0,0.0,0.0,1.3697,1.4441,1.5224,1.4988,1.4749,1.4528,1.3229,1.2557,1.2347,1.2141,0.0,0.0,0.0,0.0,0.0,0.0,0.0,0.0,0.0,0.0,0.0,0.0,0.0,0.0,0.0,0.0,0.0,0.0,0.0,0.0,0.0,0.0,1.9407,1.9602,1.9944,2.0258,2.061,0.0,0.0,0.0,0.0,0.0,0.0,0.0,0.0,0.0,0.0,0.0,2.6282,2.7271,2.9898,3.5803,3.6418,3.5871,3.458,3.4273,3.2161,2.7451,2.7269,2.5735,0.0,0.0,0.0,0.0,0.0,0.0,0.0,0.0,0.0,0.0,0.0,0.0,0.0,0.0,0.0,0.0,0.0,0.0,0.0,0.0,0.0,0.0,0.0,0.0,0.0,0.0,0.0,0.0,0.0,0.0,0.0,0.0,0.0,0.0,0.0,0.0,0.0,0.0,0.0,0.0,0.0,0.0,0.0,0.0,0.0,0.0,0.0,0.0,0.0,0.0,0.0,0.0,0.0,0.0,0.0,0.0,0.0,0.0,1.1892,1.1218,0.0,0.0,0.0,0.0,0.0,0.0,0.0,0.0,0.0,0.0,0.0,0.0,0.0,0.0,0.0,0.0,0.0,0.0,0.0,0.0,0.0,0.0,0.0,0.0,0.0,0.0,0.0,0.0,0.0,0.0,0.0,0.0,0.0,0.0,0.0,0.0,0.0,0.0,0.0,0.0,2.5676,2.5975,2.8113,3.4082,3.381,3.3281,3.3407,3.2179,3.0441,2.8086,2.5434,0.0,0.0,0.0,0.0,0.0,0.0,0.0,0.0,0.0,0.0,0.0,0.0,0.0,0.0,0.0,0.0,0.0,0.0,0.0,0.0,0.0,0.0,0.0,0.0,0.0,0.0,0.0,0.0,0.0,0.0,0.0,0.0,0.0,0.0,0.0,0.0,0.0,0.0,0.0,0.0,0.0,0.0,0.0,0.0,0.0,0.0,0.0,0.0,0.0,0.0,0.0,0.0,0.0,0.0,0.0,0.0,0.0,0.0,0.0,1.098,1.0216,0.0,0.0,0.0,0.0,0.0,0.0,0.0,0.0,0.0,0.0,0.0,0.0,0.0,0.0,0.0,0.0,0.0,0.0,0.0,0.0,0.0,0.0,0.0,0.0,0.0,0.0,0.0,0.0,0.0,0.0,0.0,0.0,0.0,0.0,0.0,0.0,0.0,0.0,0.0,0.0,2.4406,2.4328,2.6005,3.1505,3.0476,2.9993,3.142,2.9328,2.7967,2.7961,2.3463,0.0,0.0,0.0,0.0,0.0,0.0,0.0,0.0,0.0,0.0,0.0,0.0,0.0,0.0,0.0,0.0,0.0,0.0,0.0,0.0,0.0,0.0,0.0,0.0,0.0,0.0,0.0,0.0,0.0,0.0,0.0,0.0,0.0,0.0,0.0,0.0,0.0,0.0,0.0,0.0,0.0,0.0,0.0,0.0,0.0,0.0,0.0,0.0,0.0,0.0,0.0,0.0,0.0,0.0,0.0,0.0,0.0,0.0,0.0,0.0,0.0,0.0,0.0,0.0,0.0,0.0,0.0,0.0,0.0,0.0,0.0,0.0,0.0,0.0,0.0,0.0,0.0,0.0,0.0,0.0,0.0,0.0,0.0,0.0,0.0,0.0,0.0,0.0,0.0,0.0,0.0,0.0,0.0,0.0,0.0,0.0,0.0,0.0,0.0,0.0,0.0,2.207,2.18,2.3133,2.7801,2.7206,2.6308,2.6015,2.4379,2.3214,2.2853,0.0,0.0,0.0,0.0,0.0,0.0,0.0,0.0,0.0,0.0,0.0,0.0,0.0,0.0,0.0,0.0,0.0,0.0,0.0,0.0,0.0,0.0,0.0,0.0,0.0,0.0,0.0,0.0,0.0,0.0,0.0,0.0,0.0,0.0,0.0,0.0,0.0,0.0,0.0,0.0,0.0,0.0,0.0,0.0,0.0,0.0,0.0,0.0,0.0,0.0,0.0,0.0,0.0,0.0,0.0,0.0,0.0,0.0,0.0,0.0,0.0,0.0,0.0,0.0,0.0,0.0,0.0,0.0,0.0,0.0,0.0,0.0,0.0,0.0,0.0,0.0,0.0,0.0,0.0,0.0,0.0,0.0,0.0,0.0,0.0,0.0,0.0,0.0,0.0,0.0,0.0,0.0,0.0,0.0,0.0,0.0,0.0,0.0,0.0,0.0,0.0,0.0,2.1297,2.047,2.0894,2.4369,2.3751,2.3463,2.4388,2.2394,2.24,2.5353,0.0,0.0,0.0,0.0,0.0,0.0,0.0,0.0,0.0,0.0,0.0,0.0,0.0,0.0,0.0,0.0,0.0,0.0,0.0,0.0,0.0,0.0,0.0,0.0,0.0,0.0,0.0,0.0,0.0,0.0,0.0,0.0,0.0,0.0,0.0,0.0,0.0,0.0,0.0,0.0,0.0,0.0,0.0,0.0,0.0,0.0,0.0,0.0,0.0,0.0,0.0,0.0,0.0,0.0,0.0,0.0,0.0,0.0,0.0,0.0,0.0,0.0,0.0,0.0,0.0,0.0,0.0,0.0,0.0,0.0,0.0,0.0,0.0,0.0,0.0,0.0,0.0,0.0,0.0,0.0,0.0,0.0,0.0,0.0,0.0,0.0,0.0,0.0,0.0,0.0,0.0,0.0,0.0,0.0,0.0,0.0,0.0,0.0,0.0,0.0,0.0,0.0,2.085,1.9689,1.9427,2.1639,2.1625,2.1827,2.2913,2.1315,2.2169,2.6586,0.0,0.0,0.0,0.0,0.0,0.0,0.0,0.0,0.0,0.0,0.0,0.0,0.0,0.0,0.0,0.0,0.0,0.0,0.0,0.0,0.0,0.0,0.0,0.0,0.0,0.0,0.0,0.0,0.0,0.0,0.0,0.0,0.0,0.0,0.0,0.0,0.0,0.0,0.0,0.0,0.0,0.0,0.0,0.0,0.0,0.0,0.0,0.0,0.0,0.0,0.0,0.0,0.0,0.0,0.0,0.0,0.0,0.0,0.0,0.0,0.0,0.0,0.0,0.0,0.0,0.0,0.0,0.0,0.0,0.0,0.0,0.0,0.0,0.0,0.0,0.0,0.0,0.0,0.0,0.0,0.0,0.0,0.0,0.0,0.0,0.0,0.0,0.0,0.0,0.0,0.0,0.0,0.0,0.0,0.0,0.0,0.0,0.0,0.0,0.0,0.0,0.0,2.05,1.9421,1.8796,1.978,2.112,2.1662,2.0915,2.095,2.2035,0.0,0.0,0.0,0.0,0.0,0.0,0.0,0.0,0.0,0.0,0.0,0.0,0.0,0.0,0.0,0.0,0.0,0.0,0.0,0.0,0.0,0.0,0.0,0.0,0.0,0.0,0.0,0.0,0.0,0.0,0.0,0.0,0.0,0.0,0.0,0.0,0.0,0.0,0.0,0.0,0.0,0.0,0.0,0.0,0.0,0.0,0.0,0.0,0.0,0.0,0.0,0.0,0.0,0.0,0.0,0.0,0.0,0.0,0.0,0.0,0.0,0.0,0.0,0.0,0.0,0.0,0.0,0.0,0.0,0.0,0.0,0.0,0.0,0.0,0.0,0.0,0.0,0.0,0.0,0.0,0.0,0.0,0.0,0.0,0.0,0.0,0.0,0.0,0.0,0.0,0.0,0.0,0.0,0.0,0.0,0.0,0.0,0.0,0.0,0.0,0.0,0.0,0.0,2.0447,2.0959,2.1152,2.0928,2.2492,2.3841,2.4598,2.3689,2.4253,2.6918,0.0,0.0,0.0,0.0,0.0,0.0,0.0,0.0,0.0,0.0,0.0,0.0,0.0,0.0,0.0,0.0,0.0,0.0,0.0,0.0,0.0,0.0,0.0,0.0,0.0,0.0,0.0,0.0,0.0,0.0,0.0,0.0,0.0,0.0,0.0,0.0,0.0,0.0,0.0,0.0,0.0,0.0,0.0,0.0,0.0,0.0,0.0,0.0,0.0,0.0,0.0,0.0,0.0,0.0,0.0,0.0,0.0,0.0,0.0,0.0,0.0,0.0,0.0,0.0,0.0,0.0,0.0,0.0,0.0,0.0,0.0,0.0,0.0,0.0,0.0,0.0,0.0,0.0,0.0,0.0,0.0,0.0,0.0,0.0,0.0,0.0,0.0,0.0,0.0,0.0,0.0,0.0,0.0,0.0,0.0,0.0,0.0,0.0,0.0,0.0,0.0,0.0,0.0,2.2991,2.335,2.3223,2.5196,2.6829,2.7426,2.6211,2.6222,2.8173,0.0,0.0,0.0,0.0,0.0,0.0,0.0,0.0,0.0,0.0,0.0,0.0,0.0,0.0,0.0,0.0,0.0,0.0,0.0,0.0,0.0,0.0,0.0,0.0,0.0,0.0,0.0,0.0,0.0,0.0,0.0,0.0,0.0,0.0,0.0,0.0,0.0,0.0,0.0,0.0,0.0,0.0,0.0,0.0,0.0,0.0,0.0,0.0,0.0,0.0,0.0,0.0,0.0,0.0,0.0,0.0,0.0,0.0,0.0,0.0,0.0,0.0,0.0,0.0,0.0,0.0,0.0,0.0,0.0,0.0,0.0,0.0,0.0,0.0,0.0,0.0,0.0,0.0,0.0,0.0,0.0,0.0,0.0,0.0,0.0,0.0,0.0,0.0,0.0,0.0,0.0,0.0,0.0,0.0,0.0,0.0,0.0,0.0,0.0,0.0,0.0,0.0,0.0,2.5473,2.5563,2.6456,2.8908,3.0231,2.9578,2.8473,2.8041,2.8611,2.4603,0.0,0.0,0.0,0.0,0.0,0.0,0.0,0.0,0.0,0.0,0.0,0.0,0.0,0.0,0.0,0.0,0.0,0.0,0.0,0.0,0.0,0.0,0.0,0.0,0.0,0.0,0.0,0.0,0.0,0.0,0.0,0.0,0.0,0.0,0.0,0.0,0.0,0.0,0.0,0.0,0.0,0.0,0.0,0.0,0.0,0.0,0.0,0.0,0.0,0.0,0.0,0.0,0.0,0.0,0.0,0.0,0.0,0.0,0.0,0.0,0.0,0.0,0.0,0.0,0.0,0.0,0.0,0.0,0.0,0.0,0.0,0.0,0.0,0.0,0.0,0.0,0.0,0.0,0.0,0.0,0.0,0.0,0.0,0.0,0.0,0.0,0.0,0.0,0.0,0.0,0.0,0.0,0.0,0.0,0.0,0.0,0.0,0.0,0.0,0.0,0.0,0.0,2.8197,2.8751,2.9572,3.1032,3.2304,3.3265,3.1184,3.0266,3.1284,2.6025,0.0,0.0,0.0,0.0,0.0,0.0,0.0,0.0,0.0,0.0,0.0,0.0,0.0,0.0,0.0,0.0,0.0,0.0,0.0,0.0,0.0,0.0,0.0,0.0,0.0,0.0,0.0,0.0,0.0,0.0,0.0,0.0,0.0,0.0,0.0,0.0,0.0,0.0,0.0,0.0,0.0,0.0,0.0,0.0,0.0,0.0,0.0,0.0,0.0,0.0,0.0,0.0,0.0,0.0,0.0,0.0,0.0,0.0,0.0,0.0,0.0,0.0,0.0,0.0,0.0,0.0,0.0,0.0,0.0,0.0,0.0,0.0,0.0,0.0,0.0,0.0,0.0,0.0,0.0,0.0,0.0,0.0,0.0,0.0,0.0,0.0,0.0,0.0,0.0,0.0,0.0,0.0,0.0,0.0,0.0,0.0,0.0,0.0,0.0,0.0,0.0,0.0,2.8331,3.0535,3.1999,3.3297,3.4389,3.5138,3.2602,3.1355,3.2301,2.7363,0.0,0.0,0.0,0.0,0.0,0.0,0.0,0.0,0.0,0.0,0.0,0.0,0.0,0.0,0.0,0.0,0.0,0.0,0.0,0.0,0.0,0.0,0.0,0.0,0.0,0.0,0.0,0.0,0.0,0.0,0.0,0.0,0.0,0.0,0.0,0.0,0.0,0.0,0.0,0.0,0.0,0.0,0.0,0.0,0.0,0.0,0.0,0.0,0.0,0.0,0.0,0.0,0.0,0.0,0.0,0.0,0.0,0.0,0.0,0.0,0.0,0.0,0.0,0.0,0.0,0.0,0.0,0.0,0.0,0.0,0.0,0.0,0.0,0.0,0.0,0.0,0.0,0.0,0.0,0.0,0.0,0.0,0.0,0.0,0.0,0.0,0.0,0.0,0.0,0.0,0.0,0.0,0.0,0.0,0.0,0.0,0.0,0.0,0.0,0.0,0.0,0.0,0.0,3.1594,3.3406,3.5132,3.6095,3.6095,3.3583,3.2148,3.251,0.0,0.0,0.0,0.0,0.0,0.0,0.0,0.0,0.0,0.0,0.0,0.0,0.0,0.0,0.0,0.0,0.0,0.0,0.0,0.0,0.0,0.0,0.0,0.0,0.0,0.0,0.0,0.0,0.0,0.0,0.0,0.0,0.0,0.0,0.0,0.0,0.0,0.0,0.0,0.0,0.0,0.0,0.0,0.0,0.0,0.0,0.0,0.0,0.0,0.0,0.0,0.0,0.0,0.0,0.0,0.0,0.0,0.0,0.0,0.0,0.0,0.0,0.0,0.0,0.0,0.0,0.0,0.0,0.0,0.0,0.0,0.0,0.0,0.0,0.0,0.0,0.0,0.0,0.0,0.0,0.0,0.0,0.0,0.0,0.0,0.0,0.0,0.0,0.0,0.0,0.0,0.0,0.0,0.0,0.0,0.0,0.0,0.0,0.0,0.0,0.0,0.0,0.0,0.0,3.2653,3.2679,3.5152,3.6731,3.6592,3.5283,3.3998,3.3032,0.0,0.0,0.0,0.0,0.0,0.0,0.0,0.0,0.0,0.0,0.0,0.0,0.0,0.0]}],[{"header":{"parameterUnit":"kt","parameterCategory":2,"dx":1,"dy":1,"la1":29.285339999999998,"la2":30.599998999999997,"lo1":-89.70041500000002,"lo2":-87.6738589999976,"nx":112,"ny":82,"refTime":"2022-09-19T18:00:00:Z","depth":0,"parameterNumber":2,"parameterNumberName":"V-component_of_WINDS"},"data":[4.6523,4.4417,4.1828,4.0503,3.8603,3.6562,3.4455,3.2256,3.03,2.8958,2.6955,2.4969,2.3381,2.2643,2.1642,1.9918,1.9575,1.9265,0.0,1.8654,0.0,0.0,0.0,0.0,0.0,0.0,0.0,0.0,0.0,4.2103,4.4706,4.6349,4.7443,4.7991,4.8109,4.8215,4.8405,4.8774,4.9011,4.9185,4.9452,4.9559,4.9566,4.9566,4.9654,4.9779,4.9753,4.9765,4.9765,4.9765,4.9765,4.9765,4.9765,4.9765,4.9765,4.9765,4.9765,4.9765,4.9765,4.9765,4.9765,4.9765,4.9765,4.9776,4.9771,4.9753,4.9763,4.975,4.978,4.9786,4.9924,4.996,4.9948,4.9945,4.9955,4.9955,4.9955,4.9955,4.9955,4.9955,4.9955,4.9955,4.9955,4.9909,4.9522,4.8478,4.6887,4.5759,4.5563,4.4892,4.3936,4.2682,4.2449,4.1921,4.0823,4.0661,4.0409,4.0035,4.0035,3.9933,3.9629,3.9467,3.9379,3.9379,3.9114,3.892,3.892,3.8824,3.851,3.7947,3.7947,3.763,4.3206,4.1219,3.8856,3.6403,3.4301,3.2134,2.9421,2.7527,2.5974,2.4624,2.3531,2.233,2.0753,2.0435,2.0014,1.8785,1.8564,1.8535,0.0,1.8921,0.0,0.0,0.0,0.0,0.0,0.0,0.0,0.0,4.1518,0.0,4.5525,4.7158,4.8034,4.8027,4.8027,4.808,4.827,4.8559,4.8782,4.9053,4.9313,4.9499,4.9577,4.9577,4.959,4.9705,4.9692,4.9741,4.9753,4.9753,4.9753,4.9765,4.9765,4.9765,4.9765,4.9765,4.9765,4.9765,4.9765,4.9765,4.9765,4.9765,4.9765,4.9776,4.9781,4.9753,4.9763,4.9771,4.9741,4.9787,4.9919,4.9963,4.9961,4.9958,4.9962,4.9962,4.9955,4.9955,4.9955,4.9955,4.9955,4.9955,4.9955,4.9008,4.7872,4.6735,4.5145,4.3988,4.3922,4.3267,4.2334,4.1121,4.0826,4.0274,3.916,3.8951,3.8726,3.838,3.8247,3.8035,3.7804,3.7525,3.738,3.738,3.7231,3.7102,3.7102,3.7102,3.7102,3.7102,3.7102,3.7102,3.9845,3.8082,3.6415,3.3035,2.9921,2.7222,2.5697,2.4148,2.2654,2.1231,2.0929,2.0433,1.8923,1.8795,1.8831,1.8586,1.8692,0.0,0.0,1.9757,0.0,0.0,0.0,0.0,0.0,3.5425,3.7964,0.0,4.2843,4.4696,4.5553,4.7141,4.8009,4.7997,4.8027,4.8027,4.8027,4.827,4.8559,4.8782,4.9049,4.9313,4.9544,4.9559,4.9535,4.9539,4.9553,4.9616,4.9755,4.9755,4.9779,4.9765,4.9765,4.9765,4.9765,4.9765,4.9765,4.9765,4.9765,4.9765,4.9765,4.9765,4.9765,4.9765,4.9765,4.9765,4.9776,4.9763,4.9773,4.9788,4.9913,4.9961,4.9962,4.9976,4.9945,4.9939,4.9962,4.9955,4.9955,4.9955,4.9917,4.9879,4.9879,4.7076,4.4842,4.4842,4.3365,4.2304,4.2304,4.0636,3.9464,3.9464,3.9239,3.9067,3.9048,3.8955,3.8779,3.851,3.8122,3.7804,3.7525,3.726,3.7102,3.7102,3.7102,3.7102,3.7102,3.7102,3.7102,3.7102,3.7102,3.7137,3.6207,3.3141,2.999,2.7904,2.5873,2.3986,2.2413,2.1667,2.086,1.9343,1.9029,0.0,0.0,0.0,1.9955,1.9861,0.0,2.1615,2.1573,2.2995,0.0,0.0,0.0,0.0,0.0,3.8,4.0409,4.3679,4.433,4.5334,4.709,4.763,4.7879,4.7879,4.7942,4.8057,4.8142,4.8315,4.8559,4.8782,4.8864,4.8949,4.9011,4.9203,4.9183,4.9035,4.9416,4.9498,4.9333,4.9526,4.9616,4.9629,4.9729,4.9717,4.9629,4.9729,4.9767,4.9779,4.9753,4.9765,4.9765,4.9765,4.9765,4.9765,4.9765,4.9765,4.9765,4.9749,4.9749,4.9773,4.9819,4.9837,4.9847,4.992,4.9964,4.9958,4.9939,4.9976,4.9969,4.9955,4.897,4.8137,4.8137,4.5296,4.3062,4.3062,4.1543,4.0407,4.0407,3.9831,3.9451,3.9437,3.9318,3.921,3.9214,3.903,3.884,3.879,3.8222,3.7804,3.7525,3.726,3.7102,3.7102,3.7102,3.7102,3.7102,3.7102,3.7102,3.7102,3.7102,3.697,3.1974,2.9127,2.6213,2.3983,2.2723,2.1653,2.0092,1.9688,1.9353,1.8452,0.0,0.0,0.0,0.0,0.0,0.0,2.3112,2.3859,0.0,0.0,2.8383,3.214,0.0,0.0,3.9413,4.0917,4.2728,4.5022,4.5444,4.6198,4.7679,4.7748,4.7748,4.7816,4.7916,4.8003,4.8072,4.8167,4.8325,4.8534,4.8596,4.8704,4.8782,4.8954,4.8994,4.8974,4.9273,4.9371,4.9355,4.9498,4.9577,4.9566,4.9641,4.9628,4.9577,4.9654,4.9705,4.9755,4.9779,4.9753,4.9765,4.9765,4.9765,4.9765,4.9765,4.9765,4.9765,4.9765,4.9765,4.9771,4.9769,4.9759,4.9784,4.9915,4.9974,4.9966,4.9964,4.9952,4.9749,4.906,4.8106,4.6963,4.5537,4.3106,4.1326,4.1326,4.0393,3.9655,3.9655,3.9511,3.9359,3.9369,3.9287,3.9172,3.9177,3.9068,3.8955,3.8933,3.8587,3.8247,3.7966,3.7525,3.7224,3.7132,3.7135,3.7102,3.7102,3.7102,3.7102,3.7102,3.7102,3.6903,2.7458,2.5719,2.4001,2.1073,2.0324,1.9993,1.878,0.0,1.8536,1.8727,0.0,2.0887,2.0887,0.0,0.0,2.5307,2.56,2.6063,2.7345,2.9203,3.2106,3.6557,4.0058,4.2137,4.2167,4.3631,4.4805,4.5322,4.6344,4.7133,4.7581,4.7614,4.7683,4.7784,4.7816,4.7816,4.7816,4.7947,4.8057,4.8169,4.8325,4.8483,4.8728,4.8714,4.8864,4.9049,4.9128,4.9295,4.9514,4.9544,4.9587,4.9577,4.9573,4.9559,4.9559,4.9577,4.9641,4.9742,4.9755,4.9729,4.9753,4.9753,4.9753,4.9753,4.9765,4.9765,4.9765,4.9765,4.9765,4.9749,4.9779,4.9773,4.9813,4.9924,4.9961,4.9917,4.9688,4.9661,4.915,4.7482,4.6977,4.584,4.2643,4.0851,3.9854,3.9849,3.975,3.9646,3.9636,3.9426,3.928,3.9249,3.9155,3.9049,3.9049,3.9049,3.9068,3.9085,3.9085,3.8893,3.8506,3.7903,3.743,3.7125,3.7132,3.7102,3.7102,3.7102,3.7102,3.7102,3.7102,3.6903,2.3909,2.2331,2.0809,1.9142,1.8565,1.8676,0.0,0.0,0.0,2.1451,2.2867,2.3869,2.3869,2.6091,2.8006,2.8314,2.9408,3.0299,3.0607,3.5048,3.8722,4.0016,4.1069,4.1824,4.2137,4.3869,4.5578,4.7012,4.7375,4.752,4.7657,4.762,4.7657,4.7657,4.765,4.7647,4.7647,4.7816,4.7879,4.7905,4.8034,4.8094,4.8182,4.8389,4.8379,4.8243,4.8923,4.9089,4.8991,4.9402,4.9567,4.9567,4.9567,4.9552,4.9567,4.9559,4.9587,4.9587,4.959,4.9616,4.9616,4.9717,4.9767,4.9767,4.9753,4.9765,4.9765,4.9765,4.9765,4.9749,4.9779,4.9769,4.9819,4.9924,4.9957,4.9595,4.8208,4.7895,4.7397,4.5713,4.4267,4.2724,4.0674,4.0057,3.9847,3.9854,3.975,3.9617,3.9523,3.9359,3.9234,3.9121,3.9085,3.9049,3.9049,3.9049,3.9068,3.9085,3.9085,3.8873,3.851,3.8158,3.7707,3.7167,3.7135,3.7102,3.7102,3.7102,3.7102,3.7102,3.7102,3.6903,2.1577,2.0257,1.887,1.8234,1.8553,0.0,0.0,2.1418,2.2668,2.3367,2.5306,2.6808,2.6842,2.9256,3.153,3.2243,3.3671,3.4966,3.5676,3.9039,4.1562,4.196,4.308,4.4008,4.4381,4.5624,4.6687,4.7551,4.7623,4.7623,4.7623,4.7623,4.7623,4.7623,4.762,4.7617,4.7617,4.7683,4.7715,4.7715,4.7848,4.7947,4.8014,4.8153,4.828,4.8431,4.8819,4.9069,4.9185,4.9435,4.9589,4.9589,4.9589,4.9589,4.9552,4.9567,4.9582,4.9559,4.9549,4.9577,4.9604,4.9654,4.9654,4.9667,4.9679,4.9692,4.9741,4.9753,4.9765,4.9776,4.9753,4.9771,4.956,4.8786,4.8582,4.8138,4.6507,4.6162,4.5667,4.3958,4.2246,4.0839,3.9972,3.9843,3.9856,3.986,3.9712,3.9617,3.9488,3.9346,3.9218,3.9085,3.9049,3.9049,3.9049,3.9049,3.9086,3.9049,3.9049,3.8992,3.8795,3.8417,3.8039,3.7613,3.7291,3.7102,3.7102,3.7132,3.7034,3.6835,3.6835,3.6486,1.977,1.885,1.7964,1.8271,1.9519,0.0,2.1384,2.3563,2.5544,2.5738,2.8176,3.0242,3.0242,3.2675,3.5108,3.6257,3.7523,3.8911,4.0616,4.2014,4.29,4.3245,4.4897,4.6143,4.6463,4.7133,4.7556,4.759,4.759,4.759,4.7623,4.7623,4.7623,4.7623,4.7623,4.7623,4.7623,4.7617,4.7614,4.7614,4.7715,4.7848,4.7947,4.7947,4.8224,4.8691,4.8737,4.9032,4.9505,4.9536,4.9505,4.9365,4.9402,4.9419,4.9419,4.9489,4.9483,4.9514,4.9544,4.9573,4.9577,4.9577,4.959,4.959,4.9553,4.9654,4.9717,4.9741,4.9753,4.9753,4.9765,4.9512,4.8911,4.7554,4.7014,4.6325,4.4738,4.4407,4.3914,4.2227,4.0794,3.9856,3.9863,3.9858,3.9833,3.9843,3.9741,3.9636,3.9488,3.9359,3.9249,3.9085,3.9049,3.9049,3.9049,3.9049,3.9049,3.9049,3.9049,3.9086,3.9086,3.8646,3.8283,3.8086,3.7525,3.7231,3.7135,3.7029,3.6798,3.6413,3.6413,3.6049,1.8134,1.7998,1.8202,1.96,2.1122,0.0,2.551,2.7321,2.8851,3.014,3.2742,3.4837,3.4837,3.727,3.9375,3.9511,3.968,4.0751,4.3442,4.408,4.4314,4.4329,4.5257,4.5894,4.5936,4.6766,4.7347,4.7453,4.7453,4.7487,4.7623,4.7623,4.7623,4.7623,4.7623,4.7623,4.7623,4.7623,4.7623,4.7623,4.765,4.7647,4.7647,4.778,4.7984,4.8268,4.8522,4.887,4.9241,4.9489,4.9222,4.87,4.8826,4.8848,4.8907,4.9128,4.9223,4.9259,4.9505,4.9552,4.9567,4.9559,4.9573,4.9573,4.959,4.9604,4.9604,4.9566,4.9667,4.9767,4.9753,4.8666,4.7478,4.7266,4.6184,4.4703,4.3033,4.2653,4.2178,4.0469,3.9977,3.983,3.9833,3.985,3.9864,3.985,3.9814,3.972,3.95,3.9451,3.9346,3.9103,3.9049,3.9049,3.9049,3.9049,3.9049,3.9049,3.9049,3.9068,3.9067,3.8811,3.8474,3.8086,3.7812,3.7466,3.7125,3.6763,3.6417,3.6008,3.6008,3.597,1.7872,1.8537,1.9592,2.11,0.0,0.0,2.7597,3.0546,3.2945,3.3478,3.6007,3.802,3.7967,3.9726,4.1172,4.1172,4.1879,4.2805,4.4031,4.425,4.4301,4.4301,4.5178,4.5766,4.5766,4.6651,4.7241,4.7312,4.7312,4.7347,4.7382,4.7487,4.7556,4.7623,4.7623,4.7623,4.7623,4.7623,4.7623,4.7623,4.762,4.7617,4.7647,4.7869,4.8043,4.8234,4.846,4.8691,4.8841,4.8966,4.8841,4.8596,4.8654,4.8767,4.8933,4.9109,4.9259,4.9419,4.9521,4.9589,4.9552,4.9567,4.9567,4.9567,4.9559,4.9573,4.9549,4.9549,4.9628,4.9441,4.8522,4.7747,4.6729,4.4772,4.3783,4.2866,4.1231,4.089,4.068,3.9994,3.9832,3.9841,3.9849,3.984,3.9864,3.986,3.9833,3.9792,3.9594,3.9561,3.9501,3.923,3.9177,3.9159,3.9067,3.9049,3.9049,3.9049,3.9049,3.8993,3.8836,3.8565,3.8308,3.7976,3.7678,3.7287,3.6796,3.6627,3.6346,3.5977,3.5671,3.5393,1.7867,0.0,0.0,0.0,0.0,0.0,2.9701,3.3246,3.6141,3.6026,3.8337,4.042,4.0327,4.1567,4.2606,4.2606,4.3478,4.4148,4.4148,4.4148,4.4148,4.4148,4.504,4.5601,4.5601,4.6573,4.7205,4.7169,4.7169,4.7133,4.706,4.7277,4.7417,4.7556,4.7556,4.759,4.7623,4.7623,4.7623,4.7623,4.7623,4.762,4.765,4.7838,4.7984,4.8187,4.8342,4.8405,4.8325,4.8352,4.8315,4.8315,4.846,4.8593,4.8826,4.9069,4.9297,4.9473,4.9558,4.9589,4.9589,4.9589,4.9589,4.9589,4.9589,4.9567,4.9582,4.9582,4.9587,4.92,4.7606,4.6499,4.5212,4.2759,4.1816,4.1184,4.0042,3.9778,3.9816,3.9863,3.9852,3.9863,3.9836,3.9833,3.9862,3.9863,3.9881,3.9849,3.9673,3.9642,3.9539,3.9281,3.9267,3.9212,3.9122,3.9122,3.9086,3.8974,3.8974,3.884,3.8572,3.8404,3.8158,3.7895,3.762,3.7193,3.6661,3.6523,3.6166,3.5676,3.5238,3.4857,0.0,0.0,0.0,2.3679,2.669,2.9634,3.2467,3.5461,3.7607,3.7477,3.9857,4.1936,4.1936,4.3109,4.4081,4.4081,4.4114,4.4148,4.4148,4.4148,4.4148,4.4148,4.4946,4.547,4.547,4.6451,4.7023,4.7025,4.7061,4.6914,4.6683,4.7024,4.7312,4.7418,4.7453,4.7487,4.7623,4.7623,4.7623,4.7623,4.7623,4.7623,4.7623,4.7623,4.778,4.8007,4.8036,4.79,4.762,4.7647,4.7647,4.7675,4.8072,4.8243,4.8325,4.896,4.9163,4.9203,4.9473,4.9589,4.9589,4.9589,4.9589,4.9589,4.9589,4.9589,4.9589,4.9589,4.9582,4.9182,4.7503,4.4717,4.2302,4.2189,4.0918,3.9731,3.9693,3.9655,3.9693,3.9825,3.9863,3.9861,3.9836,3.9856,3.9852,3.9864,3.9962,3.9936,3.9673,3.9642,3.9551,3.9292,3.9243,3.9264,3.925,3.925,3.9105,3.8738,3.8717,3.8572,3.832,3.8296,3.8173,3.7903,3.7867,3.7561,3.6901,3.6416,3.5782,3.4999,3.4752,3.4622,1.895,2.1105,2.3667,2.6604,3.0308,3.371,3.5641,3.8393,4.0541,4.0494,4.207,4.3444,4.3444,4.3744,4.3993,4.3993,4.3923,4.3889,4.4027,4.3993,4.4045,4.4097,4.4912,4.547,4.547,4.6451,4.7021,4.7023,4.6725,4.6495,4.6411,4.6609,4.6725,4.6799,4.7097,4.7312,4.7382,4.7453,4.7453,4.7382,4.7556,4.759,4.7522,4.7784,4.7811,4.7748,4.793,4.7874,4.7623,4.762,4.7715,4.79,4.8043,4.8278,4.863,4.8966,4.9165,4.9333,4.9398,4.943,4.943,4.9536,4.9589,4.9589,4.9589,4.9589,4.9589,4.9589,4.8762,4.7776,4.7188,4.4642,4.188,4.0773,4.0067,3.9663,3.9645,3.9673,3.9663,3.9701,3.9721,3.9768,3.9817,3.9847,3.985,3.9864,3.9968,3.9956,3.9692,3.9665,3.9561,3.9292,3.926,3.9227,3.9122,3.8955,3.8799,3.8659,3.8506,3.832,3.8035,3.8071,3.7903,3.7635,3.7642,3.7283,3.6522,3.6307,3.5744,3.4999,3.4914,3.4622,1.9917,2.2613,2.5788,2.926,3.2741,3.5917,3.7846,4.0179,4.2003,4.2003,4.3142,4.4148,4.4148,4.4027,4.3837,4.3837,4.3818,4.3765,4.387,4.3837,4.3889,4.3941,4.4804,4.5416,4.5416,4.6172,4.6683,4.6683,4.6451,4.6213,4.6013,4.6411,4.657,4.6411,4.6877,4.7169,4.7169,4.7312,4.7312,4.7205,4.7417,4.7453,4.7347,4.765,4.7719,4.7556,4.7752,4.7719,4.7556,4.759,4.7784,4.7991,4.813,4.8409,4.8811,4.9049,4.9223,4.9368,4.9381,4.9398,4.9398,4.9483,4.9483,4.9499,4.9536,4.9589,4.9439,4.8837,4.786,4.677,4.5594,4.3764,4.1769,4.0061,3.9647,3.9658,3.9653,3.9673,3.9683,3.9702,3.9739,3.9765,3.9827,3.9833,3.9858,3.9901,3.9959,3.9908,3.9672,3.9617,3.95,3.9362,3.933,3.9281,3.9086,3.8916,3.8717,3.8497,3.8332,3.8071,3.7776,3.7776,3.7692,3.7525,3.7531,3.7093,3.6237,3.6055,3.5519,3.4578,3.449,3.4158,2.0789,2.3566,2.7124,3.1451,3.4061,3.6295,3.9108,4.0949,4.2054,4.2054,4.3159,4.4097,4.4097,4.3889,4.3712,4.3712,4.3712,4.3712,4.3712,4.3712,4.3712,4.3765,4.4631,4.5293,4.5247,4.5714,4.6054,4.6013,4.6172,4.6013,4.5514,4.6451,4.6722,4.6254,4.6728,4.7025,4.7025,4.7169,4.7205,4.7205,4.7241,4.7205,4.7205,4.7347,4.7418,4.7418,4.7418,4.7453,4.7453,4.759,4.7816,4.805,4.8325,4.8571,4.8864,4.9204,4.937,4.937,4.9368,4.9385,4.9365,4.936,4.9376,4.9376,4.9536,4.9514,4.9101,4.7484,4.692,4.6055,4.2985,4.212,4.1632,4.004,3.9652,3.9664,3.9662,3.9645,3.9689,3.9826,3.9843,3.986,3.9852,3.986,3.9902,4.0006,3.9927,3.9786,3.9655,3.9545,3.9451,3.946,3.943,3.9367,3.9123,3.9049,3.8774,3.8143,3.8128,3.7931,3.7525,3.7561,3.7525,3.7525,3.7477,3.6999,3.5946,3.5833,3.509,3.3839,3.3606,3.3417,2.3049,2.6329,2.9575,3.2944,3.6027,3.8778,4.0659,4.2222,4.3252,4.3252,4.3604,4.387,4.387,4.3712,4.3605,4.3605,4.3498,4.3476,4.3551,4.3605,4.3605,4.3712,4.4631,4.5155,4.4742,4.545,4.5766,4.5381,4.545,4.5485,4.535,4.5878,4.6137,4.6096,4.6609,4.6948,4.7058,4.7095,4.7095,4.7095,4.7205,4.7169,4.7097,4.7205,4.7205,4.7169,4.7241,4.7451,4.7719,4.778,4.8109,4.8608,4.8657,4.8864,4.9089,4.9185,4.926,4.9223,4.9333,4.9388,4.9388,4.9365,4.9365,4.9381,4.9414,4.8604,4.7605,4.7169,4.5303,4.3249,4.2384,4.1243,4.019,3.9764,3.9652,3.9652,3.9664,3.9721,3.983,3.983,3.9854,3.9847,3.9852,3.986,3.9863,3.989,3.986,3.9765,3.9545,3.9488,3.94,3.9318,3.934,3.9292,3.921,3.886,3.855,3.8391,3.8128,3.7864,3.7691,3.7656,3.7626,3.7525,3.7314,3.6694,3.5689,3.5525,3.4992,3.41,3.4022,3.3746,2.3413,2.7963,3.2164,3.5125,3.8109,4.071,4.2237,4.3115,4.3765,4.3765,4.3659,4.3551,4.3551,4.3531,4.3476,4.3476,4.3422,4.3368,4.3476,4.3476,4.3476,4.3551,4.4267,4.4631,4.4368,4.4886,4.5086,4.4804,4.5074,4.5293,4.5293,4.5878,4.6137,4.6013,4.6491,4.6683,4.6605,4.6834,4.6984,4.7021,4.7132,4.7096,4.7024,4.7133,4.7097,4.7059,4.7311,4.7551,4.7748,4.7894,4.827,4.8731,4.8765,4.8923,4.9089,4.9146,4.9165,4.9203,4.9241,4.9316,4.9297,4.9351,4.8881,4.8243,4.8256,4.7183,4.5794,4.5021,4.3509,4.1944,4.1155,4.0302,3.9669,3.9669,3.9711,3.9731,3.9749,3.9794,3.9836,3.9827,3.9898,3.9921,3.9936,3.9902,3.9852,3.9847,3.9779,3.9712,3.9549,3.9501,3.9458,3.9355,3.934,3.9308,3.9193,3.8783,3.8528,3.8391,3.8065,3.7807,3.7632,3.7756,3.7662,3.7385,3.6961,3.6348,3.5525,3.5164,3.4534,3.3621,3.3621,3.3066,2.3089,2.8549,3.3846,3.7008,3.9689,4.1903,4.338,4.3712,4.3712,4.3712,4.3531,4.3368,4.3368,4.3368,4.3368,4.3368,4.3368,4.3368,4.3368,4.3368,4.3368,4.3368,4.3818,4.4097,4.4045,4.4199,4.4301,4.4301,4.4872,4.5293,4.5339,4.6083,4.6371,4.5971,4.6295,4.6411,4.6137,4.6605,4.6872,4.7021,4.7021,4.7021,4.7021,4.7024,4.7024,4.7059,4.7414,4.7611,4.7775,4.8101,4.8405,4.8633,4.8778,4.8916,4.9008,4.9123,4.9143,4.9143,4.9143,4.9146,4.9147,4.9035,4.8042,4.6823,4.6557,4.5426,4.3865,4.2402,4.188,4.1356,3.989,3.9577,3.9663,3.9663,3.9772,3.9854,3.9861,3.9855,3.9874,3.986,3.9972,4.0054,4.0016,3.9924,3.9852,3.9843,3.9748,3.9673,3.9613,3.9523,3.946,3.9445,3.9445,3.9346,3.914,3.8879,3.8631,3.8356,3.8091,3.78,3.7512,3.7691,3.7542,3.7071,3.6592,3.6023,3.5313,3.4639,3.3769,3.2624,3.2442,3.1641,2.4608,2.7849,3.1555,3.6281,3.9343,4.1664,4.3093,4.3422,4.3422,4.3422,4.3368,4.3368,4.3368,4.3368,4.3368,4.3368,4.3368,4.3368,4.3368,4.3368,4.3368,4.3368,4.3818,4.3941,4.3498,4.3889,4.4148,4.4148,4.4631,4.5155,4.5564,4.574,4.5998,4.6335,4.6013,4.6054,4.6566,4.6644,4.6757,4.6872,4.6872,4.6946,4.7021,4.691,4.6988,4.7167,4.7271,4.7666,4.8298,4.8442,4.8645,4.8916,4.8944,4.8987,4.897,4.9008,4.9028,4.9028,4.9028,4.9086,4.8939,4.7577,4.7017,4.6584,4.5159,4.364,4.2384,4.2195,4.1219,4.0163,3.9861,3.9802,3.9818,3.9818,3.9908,4.0,3.9997,3.9997,3.9997,4.0004,4.0015,4.0013,3.9894,3.9856,3.981,3.9721,3.9663,3.9598,3.9488,3.9486,3.9458,3.9452,3.9452,3.9423,3.9399,3.9158,3.8916,3.8616,3.8295,3.7903,3.7531,3.738,3.7064,3.6662,3.6558,3.5986,3.4883,3.3608,3.2491,3.1536,3.0471,2.9828,2.5786,2.7601,2.9767,3.4623,3.8338,4.1262,4.2985,4.3368,4.3225,4.277,4.2971,4.3258,4.3258,4.317,4.3049,4.3049,4.3049,4.3082,4.3203,4.3258,4.3258,4.3313,4.3551,4.3605,4.3368,4.3585,4.387,4.4097,4.4582,4.5014,4.5247,4.5706,4.5878,4.5662,4.5886,4.6054,4.6137,4.6411,4.6605,4.6757,4.6834,4.6908,4.6946,4.6796,4.6877,4.7133,4.7476,4.7832,4.8138,4.8542,4.8719,4.8718,4.8901,4.8981,4.896,4.9003,4.8966,4.8854,4.7997,4.7818,4.769,4.5988,4.4988,4.427,4.342,4.207,4.0794,4.0848,4.0334,3.9739,3.9739,3.978,3.9861,3.9836,3.9932,4.004,4.004,4.0046,4.005,4.0051,3.9977,3.9932,3.9962,3.994,3.9898,3.978,3.9683,3.9636,3.9577,3.9488,3.9448,3.9458,3.9458,3.943,3.9355,3.9101,3.8823,3.852,3.8195,3.7764,3.7224,3.7029,3.6833,3.6627,3.5544,3.4725,3.4086,3.2331,3.1167,3.0694,3.0026,2.9111,2.6596,2.7746,2.8968,3.3303,3.6929,4.0104,4.2324,4.3027,4.3027,4.2274,4.2657,4.3092,4.3092,4.2938,4.2761,4.2761,4.2761,4.285,4.3059,4.3092,4.3115,4.3225,4.3225,4.3225,4.3225,4.3368,4.3551,4.396,4.4483,4.4872,4.498,4.5583,4.5671,4.5213,4.5836,4.6013,4.5809,4.6213,4.6491,4.6605,4.6683,4.6796,4.6796,4.6722,4.6763,4.6951,4.7548,4.7811,4.7843,4.8371,4.8531,4.8431,4.8802,4.8968,4.8968,4.8975,4.8795,4.8295,4.6971,4.6438,4.6057,4.4388,4.3045,4.2094,4.173,4.0691,3.9646,3.9635,3.9655,3.9692,3.9692,3.9758,3.9865,3.9898,3.9953,4.004,4.0042,4.0049,4.0053,4.0016,3.9934,3.9883,3.9985,4.0016,3.9961,3.9874,3.9759,3.9696,3.9662,3.9564,3.9499,3.9448,3.9472,3.9392,3.9202,3.8991,3.8668,3.8259,3.7976,3.759,3.7001,3.6799,3.6662,3.6627,3.4758,3.3633,3.3407,3.1295,3.0026,2.9686,2.9341,2.8189,2.6866,2.8384,3.0007,3.3388,3.5383,3.7395,4.0485,4.2068,4.2817,4.2673,4.2761,4.2817,4.2817,4.2761,4.2761,4.2761,4.2761,4.2761,4.2817,4.2817,4.2817,4.2817,4.2817,4.2817,4.2817,4.3247,4.3539,4.3618,4.4081,4.4631,4.5201,4.489,4.5121,4.6131,4.587,4.5913,4.6213,4.6254,4.6335,4.6491,4.6491,4.653,4.6683,4.6801,4.6689,4.653,4.6951,4.7343,4.7666,4.7948,4.815,4.8251,4.867,4.889,4.8968,4.8968,4.8088,4.6848,4.6699,4.5781,4.4466,4.274,4.2092,4.1732,4.0303,3.9755,3.9655,3.9646,3.9742,3.9836,3.9836,3.986,3.9898,4.0012,4.0053,4.0054,4.0053,4.0053,4.0013,3.9896,3.9845,3.986,3.9871,3.9874,3.9863,3.9861,3.9843,3.9796,3.9676,3.9652,3.9614,3.9481,3.9467,3.9302,3.8937,3.8901,3.8606,3.7983,3.7676,3.7424,3.7125,3.6627,3.6344,3.6235,3.4866,3.3853,3.3257,3.1054,2.9314,2.8156,2.6803,2.5799,2.6804,2.7781,2.8761,3.1646,3.3601,3.5481,3.7968,3.8751,3.9257,4.0488,4.1751,4.2649,4.2649,4.2625,4.2568,4.2568,4.2568,4.2536,4.2649,4.2649,4.2649,4.2761,4.2761,4.2873,4.3214,4.316,4.3345,4.3945,4.3945,4.398,4.4215,4.464,4.4959,4.5166,4.552,4.5862,4.6254,4.6166,4.6207,4.6335,4.6411,4.6605,4.6796,4.6573,4.6651,4.695,4.6912,4.7205,4.7675,4.7984,4.8101,4.802,4.7487,4.7277,4.7129,4.633,4.5632,4.4908,4.403,4.343,4.272,4.113,4.0606,4.0574,3.9969,3.9786,3.9752,3.9767,3.98,3.9838,3.9868,3.984,3.9886,3.9897,3.9977,4.0054,4.0053,4.0051,4.0008,3.9968,3.9909,3.9779,3.955,3.9705,3.9788,3.955,3.9701,3.9748,3.9451,3.9196,3.9048,3.8993,3.8993,3.8899,3.8659,3.8637,3.8391,3.782,3.7707,3.7405,3.6931,3.6696,3.6417,3.6124,3.3735,3.2237,3.1821,2.8997,2.7273,2.6584,2.598,2.5338,2.6161,2.7068,2.79,3.0128,3.2403,3.4523,3.6138,3.6248,3.6542,3.8424,4.0153,4.1379,4.18,4.184,4.1856,4.2274,4.2371,4.2428,4.2511,4.2511,4.2568,4.2649,4.2649,4.2794,4.3137,4.2961,4.3094,4.3665,4.3493,4.3427,4.3604,4.4332,4.4804,4.4865,4.5293,4.5687,4.6083,4.5905,4.5948,4.6207,4.6289,4.6446,4.6601,4.6526,4.6648,4.6951,4.6985,4.7133,4.7414,4.7775,4.7675,4.7115,4.5962,4.5478,4.5307,4.4495,4.3808,4.321,4.2207,4.159,4.1115,4.0067,3.978,3.9838,3.9847,3.9864,3.9843,3.9848,3.9836,3.9864,3.9848,3.986,3.9901,3.9901,3.9978,4.0051,4.005,3.9956,3.9852,3.9885,3.9703,3.9466,3.9226,3.9368,3.9447,3.9201,3.9395,3.9464,3.9196,3.8881,3.8664,3.8659,3.8695,3.8609,3.8367,3.838,3.8133,3.7691,3.7632,3.7256,3.6383,3.6206,3.5731,3.4949,3.2206,3.0615,3.0266,2.7294,2.5624,2.5179,2.4748,2.3968,2.4946,2.6521,2.8089,2.9446,3.2075,3.4601,3.5261,3.5261,3.5598,3.7028,3.7753,3.8604,3.9988,4.0246,4.0697,4.2113,4.2371,4.2371,4.2371,4.2371,4.2371,4.2371,4.2371,4.2339,4.2428,4.2761,4.2785,4.2396,4.2761,4.3246,4.3862,4.3913,4.448,4.5668,4.5328,4.5328,4.5713,4.5293,4.543,4.6068,4.6068,4.6068,4.6111,4.6601,4.6644,4.6295,4.6951,4.706,4.6872,4.7169,4.6579,4.5379,4.4205,4.3827,4.3989,4.4218,4.3308,4.1989,4.1989,4.0967,3.9702,3.9795,3.983,3.9854,3.9856,3.9833,3.984,3.9868,3.9833,3.984,3.984,3.994,4.0032,4.004,4.0038,4.0029,4.0057,3.9741,3.9457,3.9464,3.9135,3.8871,3.8871,3.8871,3.8871,3.8871,3.8871,3.8871,3.8871,3.8734,3.8692,3.868,3.8674,3.8506,3.8138,3.81,3.7949,3.7542,3.7517,3.6896,3.5442,3.4889,3.3812,3.217,3.0576,2.9455,2.8783,2.6407,2.4877,2.4083,2.2549,2.1203,2.5134,2.6339,2.7499,2.9049,3.0942,3.2633,3.356,3.3491,3.3795,3.5948,3.608,3.6365,3.8189,3.8691,3.9248,4.0664,4.0945,4.1188,4.2042,4.2111,4.1993,4.1723,4.1934,4.2229,4.2511,4.2536,4.2625,4.2761,4.2785,4.2951,4.3246,4.3789,4.42,4.448,4.4499,4.4776,4.5247,4.5001,4.5142,4.5766,4.5633,4.5731,4.6048,4.6243,4.5766,4.4826,4.509,4.4702,4.3808,4.4043,4.4041,4.3775,4.2561,4.2177,4.2094,4.1299,4.068,4.0259,4.0353,4.0105,3.9802,3.9826,3.9865,3.984,3.9848,3.985,3.9854,3.9977,3.9938,3.9826,3.9627,3.9613,3.9646,3.9617,3.9655,3.9646,3.9636,3.954,3.9436,3.9339,3.9233,3.9015,3.8657,3.8752,3.884,3.8751,3.8807,3.882,3.8771,3.8692,3.8594,3.8307,3.818,3.8021,3.7735,3.7884,3.7836,3.7548,3.6757,3.5706,3.4389,3.4075,3.3365,3.2106,2.9542,2.7913,2.7182,2.4194,2.2564,2.2228,2.1577,2.0469,2.4338,2.5478,2.6761,2.8305,2.9758,3.1076,3.2005,3.2383,3.2985,3.4382,3.4421,3.4552,3.5929,3.6637,3.7455,3.8914,3.9138,3.9594,4.0831,4.1053,4.1125,4.1358,4.1635,4.1875,4.2106,4.2048,4.2106,4.2364,4.2536,4.2705,4.2951,4.3592,4.3908,4.4014,4.3893,4.4132,4.4776,4.4468,4.4122,4.3684,4.364,4.378,4.4091,4.4161,4.384,4.3164,4.3384,4.3132,4.247,4.2721,4.266,4.2287,4.1535,4.0988,4.0513,3.9799,3.9551,3.9551,3.9673,3.9802,3.9861,3.9849,3.9805,3.9787,3.9786,3.9783,3.9777,3.9805,3.9788,3.9719,3.9532,3.9462,3.9462,3.9474,3.9462,3.945,3.9462,3.9338,3.919,3.9131,3.904,3.89,3.855,3.8627,3.8709,3.8646,3.8685,3.8692,3.8622,3.8609,3.8464,3.8048,3.7948,3.7807,3.7537,3.7698,3.7542,3.7061,3.6031,3.4822,3.36,3.275,3.1669,3.0383,2.7705,2.5923,2.5192,2.2571,2.0937,2.0324,1.9894,1.8702,2.2989,2.4237,2.5923,2.7241,2.8626,2.9899,3.0803,3.1972,3.2884,3.2736,3.2835,3.308,3.3512,3.4364,3.5472,3.6943,3.7163,3.7699,3.9212,3.9433,3.9879,4.1203,4.136,4.1391,4.1391,4.136,4.1421,4.1421,4.2021,4.2479,4.2896,4.3269,4.3625,4.3993,4.3213,4.3201,4.4082,4.3623,4.2389,4.0402,4.0615,4.074,4.0781,4.11,4.127,4.143,4.1858,4.209,4.2237,4.2531,4.1943,4.0829,4.0853,4.0228,3.9318,3.9561,3.9665,3.9663,3.9823,3.9854,3.9838,3.9845,3.9748,3.9666,3.9627,3.9634,3.9629,3.9491,3.9514,3.9575,3.9405,3.9401,3.9364,3.9326,3.9289,3.925,3.9175,3.8908,3.8601,3.8601,3.841,3.822,3.822,3.822,3.8256,3.8245,3.8282,3.8307,3.8368,3.8368,3.8256,3.7922,3.7804,3.7692,3.7525,3.738,3.6861,3.5817,3.4903,3.3845,3.2679,3.0882,2.9146,2.7552,2.5115,2.3599,2.2914,2.1252,1.9725,1.8379,1.7553,1.615,2.3291,2.4151,2.5311,2.6914,2.8197,2.9631,3.1542,3.1897,3.2054,3.2785,3.2535,3.2363,3.3031,3.3215,3.3772,3.5441,3.5661,3.6489,3.8708,3.8993,3.9432,4.0521,4.0927,4.1145,4.1145,4.1299,4.1421,4.1421,4.1751,4.1984,4.2184,4.2592,4.2738,4.2503,4.1742,4.1454,4.1781,4.1008,4.0313,3.9726,3.9771,4.0073,4.053,4.11,4.0746,3.9704,4.0424,3.9989,3.8899,3.9336,3.9354,3.912,3.9394,3.9437,3.9308,3.9563,3.9635,3.9674,3.9803,3.9865,3.984,3.975,3.9656,3.9638,3.9537,3.9485,3.9494,3.9454,3.9276,3.9025,3.8789,3.8643,3.8424,3.782,3.7683,3.7453,3.6658,3.6415,3.6263,3.5965,3.5863,3.579,3.5645,3.5823,3.6,3.6106,3.621,3.6482,3.7216,3.7222,3.7287,3.7692,3.6977,3.6717,3.7466,3.6033,3.4224,3.2113,3.086,2.968,2.8613,2.8075,2.733,2.6444,2.3602,2.1873,2.115,1.8396,1.6563,1.5487,1.4796,1.3162,2.3993,2.475,2.5819,2.7238,2.8211,2.9295,3.128,3.1633,3.1792,3.2686,3.2465,3.2209,3.2785,3.2636,3.2783,3.3681,3.3857,3.4552,3.656,3.7306,3.8174,3.9376,4.0242,4.0739,4.0739,4.0864,4.0927,4.0927,4.0792,4.0677,4.0704,4.0561,4.0407,4.0397,3.9849,3.967,3.9927,3.8478,3.7678,3.7402,3.7621,3.7836,3.8239,3.8719,3.8681,3.8128,3.8655,3.8547,3.7993,3.8283,3.852,3.8795,3.8975,3.918,3.94,3.9587,3.9701,3.979,3.9878,3.99,3.9821,3.9764,3.9609,3.9457,3.9387,3.9351,3.9351,3.9228,3.8393,3.7512,3.7353,3.7262,3.7121,3.6772,3.6641,3.6341,3.5583,3.5439,3.5327,3.4809,3.4804,3.4837,3.4647,3.5017,3.5204,3.4992,3.5464,3.5859,3.5932,3.607,3.6174,3.6105,3.5823,3.5675,3.5783,3.5017,3.3581,3.1455,2.9401,2.7664,2.647,2.4825,2.3827,2.3443,2.0855,1.9106,1.8402,1.661,1.4891,1.3218,0.9597,0.6723,2.4936,2.5951,2.7197,2.8119,2.8567,2.9233,3.0857,3.1091,3.1209,3.1897,3.1508,3.1256,3.1854,3.1848,3.1759,3.1923,3.2107,3.2751,3.4193,3.5383,3.6612,3.7994,3.9315,4.0114,4.0114,4.0298,4.0329,4.0144,3.9557,3.9071,3.882,3.8172,3.7944,3.8295,3.7998,3.7874,3.7963,3.6194,3.5208,3.4974,3.5272,3.5513,3.5671,3.6052,3.6523,3.7032,3.7283,3.7748,3.8308,3.832,3.8594,3.9049,3.9121,3.9257,3.9485,3.9615,3.9716,3.9863,3.993,3.989,3.9792,3.9772,3.9491,3.9184,3.902,3.8986,3.888,3.8564,3.7119,3.5686,3.5826,3.5685,3.5506,3.5645,3.5503,3.5215,3.4736,3.4686,3.4601,3.4036,3.4069,3.4176,3.392,3.438,3.4601,3.4036,3.4837,3.5242,3.4567,3.4876,3.4905,3.4218,3.4368,3.4233,3.3601,3.3524,3.2734,3.0846,2.8393,2.6216,2.4591,2.0491,1.7674,1.6287,1.4063,1.2589,1.1829,1.1489,1.0133,0.7725,0.1577,-0.2012,2.6181,2.7692,2.9344,2.9828,2.9998,3.0307,3.136,2.9839,2.836,2.8918,2.7152,2.623,2.8579,2.901,2.9333,3.0438,3.1544,3.2751,3.4193,3.4561,3.523,3.6551,3.7933,3.8793,3.8793,3.9776,3.996,3.8885,3.8639,3.8053,3.682,3.7084,3.729,3.7344,3.6965,3.6058,3.4576,3.4249,3.4336,3.4805,3.489,3.5313,3.6089,3.6487,3.69,3.726,3.7662,3.8003,3.8282,3.8427,3.8637,3.8956,3.928,3.9425,3.9474,3.9629,3.9733,3.9821,3.9747,3.9691,3.9655,3.9436,3.9153,3.8807,3.8002,3.7641,3.7341,3.6862,3.5653,3.4579,3.517,3.4325,3.3354,3.3511,3.3065,3.2543,3.2148,3.2056,3.2005,3.1685,3.1663,3.1633,3.1633,3.1902,3.2087,3.1953,3.228,3.2696,3.3099,3.324,3.3439,3.3856,3.2401,3.1667,3.2277,3.0094,2.7542,2.5005,2.4418,2.2954,2.0262,1.2826,0.5112,-0.2478,-0.4732,-0.5833,-0.6016,-0.7358,-0.8689,-1.006,-1.1601,-1.294,2.7264,2.8466,2.9766,2.997,3.02,3.0483,3.1203,3.0007,2.8692,2.8443,2.6753,2.5739,2.6998,2.7858,2.878,3.0117,3.0807,3.1698,3.3027,3.3917,3.4591,3.5205,3.7196,3.8516,3.8516,3.9039,3.9131,3.8547,3.7134,3.6029,3.5353,3.4803,3.4604,3.4897,3.4738,3.4246,3.3417,3.3931,3.428,3.4247,3.5058,3.5626,3.6083,3.6627,3.6996,3.7256,3.7771,3.8154,3.8404,3.8653,3.886,3.9121,3.9362,3.9485,3.9599,3.9632,3.975,3.9826,3.9533,3.9428,3.9313,3.8657,3.8254,3.787,3.7148,3.5967,3.4769,3.4129,3.3219,3.2497,3.2799,3.2058,3.1226,3.0971,3.0734,3.0328,2.9628,2.957,2.9454,2.9099,2.904,2.9071,2.8834,2.922,2.954,2.9245,2.9857,3.0278,3.0024,3.0273,3.0434,3.0429,2.9853,2.9543,2.9653,2.6673,2.4289,2.3109,1.7931,1.399,1.1849,0.2784,-0.4612,-0.9668,-1.0728,-1.15,-1.2031,-1.288,-1.3822,-1.4952,-1.9354,-2.1667,2.841,0.0,2.9707,2.962,2.9942,3.0456,0.0,2.9853,2.8511,2.7586,2.58,2.4449,2.4756,2.623,2.7858,2.9164,2.9886,3.0653,3.1667,3.2773,3.3549,3.3638,3.5945,3.7414,3.7203,3.7629,3.7811,3.7505,3.5573,3.4278,3.4101,3.3051,3.2686,3.3225,3.2982,3.2902,3.3146,3.3976,3.4369,3.4336,3.5427,3.6046,3.6198,3.6695,3.709,3.7339,3.784,3.8259,3.855,3.8742,3.8975,3.928,3.9413,3.9545,3.964,3.9597,3.9643,3.9665,3.9313,3.9158,3.8978,3.7998,3.7308,3.6725,3.5897,3.4125,3.2237,3.1513,3.0757,3.0141,3.0197,2.9599,2.8929,2.8814,2.8609,2.837,2.7878,2.7843,2.7808,2.7414,2.7388,2.7362,2.7046,2.7498,2.7746,2.7351,2.8149,2.8544,2.7799,2.7878,2.7885,2.7498,2.7392,2.7242,2.6778,2.1981,1.8926,1.8629,0.9202,0.3039,0.1586,-0.7917,-1.3755,-1.5246,-1.7323,-1.8829,-1.9645,-1.9842,-2.0342,-2.1229,-2.7141,-2.9894,0.0,2.9681,2.9679,2.9301,2.9797,3.037,3.0511,2.8168,0.0,2.48,2.15,1.9197,2.0424,2.2785,2.5033,2.6323,2.8702,3.0364,3.0456,3.0579,3.0855,3.1449,3.3298,3.4232,3.3515,3.509,3.5683,3.4634,3.4359,3.3871,3.3153,3.3045,3.3225,3.3746,3.2704,3.2605,3.3542,3.3792,3.4512,3.5816,3.5893,3.6273,3.6863,3.6929,3.7273,3.785,3.7913,3.8186,3.8659,3.8659,3.8936,3.9289,3.941,3.9553,3.9628,3.9521,3.9389,3.9261,3.8986,3.8826,3.8598,3.7781,3.6635,3.5276,3.4007,3.2151,3.0394,2.9714,2.8723,2.7896,2.8,2.7058,2.6364,2.7273,2.7109,2.6791,2.7461,2.7649,2.7586,2.7613,2.7586,2.7586,2.7524,2.7586,2.7586,2.7613,2.7649,2.7799,2.7914,2.7399,2.6943,2.7095,2.5429,2.4402,2.4334,1.499,0.8534,0.7147,-0.228,-0.8479,-1.0046,-1.8425,-2.3413,-2.4154,-3.1903,-3.6217,-3.6912,-3.6936,-3.7074,-3.7407,-3.795,-3.8288,2.9475,2.9388,2.927,2.8971,2.9653,3.0454,3.0482,2.9496,2.7742,2.487,2.2391,2.061,2.027,2.2448,2.5033,2.7213,2.8442,2.9671,3.1199,3.0005,2.9647,3.1445,3.311,3.3985,3.3704,3.4327,3.4531,3.4101,3.328,3.2633,3.2312,3.2312,3.2535,3.308,3.2754,3.2754,3.3146,3.3853,3.4259,3.449,3.5558,3.6092,3.6135,3.7087,3.7664,3.7903,3.8235,3.8506,0.0,3.8952,3.9138,3.9288,3.9492,3.9522,3.9409,3.9351,3.8951,3.8376,3.8028,3.7399,3.6675,3.6241,3.5162,3.3933,3.3342,3.0859,2.827,2.8149,2.7435,2.6688,2.6893,2.5816,2.4724,2.4972,2.4427,2.3991,2.4244,2.4221,2.4129,2.4289,2.4221,2.406,2.4014,2.4152,2.4358,2.4358,2.4517,2.4745,2.4813,2.4609,2.4449,2.4449,2.3783,1.8344,0.5806,0.0822,-0.1984,-0.2703,-1.2281,-1.8254,-1.8984,-2.8076,-3.3173,-3.3406,-3.6562,-3.832,-3.855,-3.8738,-3.8937,-3.9206,-3.9011,-3.9105,2.9242,2.9123,2.8971,2.867,2.936,3.0199,3.0369,3.0188,2.9007,2.5637,2.3466,2.1742,2.0454,2.2448,2.5063,2.7336,2.8029,2.9178,3.1709,2.9817,2.9051,3.1624,3.2391,3.2763,3.2931,3.2931,3.2986,3.3292,3.2359,3.1897,3.2106,3.198,3.2054,3.2485,3.2655,3.2804,3.2969,3.3714,3.4125,3.4194,3.5332,3.5984,3.6169,3.737,3.7922,3.8045,3.846,3.8659,3.8762,3.9064,3.9236,3.9268,3.9407,3.9392,3.9281,3.8913,3.8348,3.7773,3.7014,3.6208,3.5427,3.4869,3.367,3.2432,3.2294,2.9713,2.6931,2.7109,2.6429,2.5624,2.5375,2.4496,2.3502,2.3242,2.2744,2.2385,2.2529,2.2364,2.139,1.8552,1.7841,1.6754,1.3599,1.5806,1.696,1.4016,1.6334,1.7425,1.4695,1.3984,1.3753,1.3996,1.3682,0.789,-0.5925,-1.0301,-1.2381,-1.254,-2.2144,-2.7818,-2.7993,-3.4608,-3.8267,-3.8368,-3.8454,-3.8537,-3.8609,-3.882,-3.9012,-3.9206,-3.9011,-3.9067,2.9182,2.8971,2.8697,2.8276,2.8736,2.9449,3.0,2.9627,2.8622,2.6686,2.4111,2.1804,2.0516,2.2478,2.4756,2.6046,2.7341,2.9054,3.1679,2.969,2.8926,3.1542,3.0707,3.0114,3.0678,3.0593,3.0845,3.1633,3.1686,3.1972,3.2636,3.2158,3.2002,3.2261,3.2434,3.2723,3.321,3.3385,3.4105,3.5344,3.5378,3.606,3.7322,3.7707,3.8039,3.8283,3.8437,3.8659,3.89,3.9036,3.9146,3.9226,3.9109,3.923,3.9303,3.8139,3.7693,3.7469,3.6036,3.548,3.5136,3.3987,3.2268,3.0633,3.0532,2.8714,2.6623,2.6598,2.5757,2.4589,2.3242,2.2887,2.2815,2.2321,2.2156,2.2228,2.2543,2.2614,1.9768,1.0227,0.8391,0.5382,-0.401,0.2164,0.5262,-0.4058,0.2557,0.5491,-0.3172,-0.543,-0.5978,-0.5339,-0.647,-0.7379,-0.7647,-1.6875,-2.2691,-2.2691,-3.1899,-3.7358,-3.7358,-3.7573,-3.7864,-3.8128,-3.8368,-3.862,-3.8901,-3.8992,-3.9086,-3.9086,-3.9049,-3.9012,2.8615,2.8399,2.8276,2.7994,2.8521,2.9214,2.9827,3.0331,3.0105,2.8032,2.625,2.491,2.4541,2.5125,2.6066,2.7402,2.7939,2.8562,2.9623,2.8256,2.7968,3.008,3.0,2.9827,3.0,3.0342,3.0789,3.1503,3.1557,3.161,3.1822,3.2002,3.2209,3.2261,3.2754,3.3066,3.321,3.3912,3.425,3.4272,3.5326,3.6058,3.6521,3.7202,3.7831,3.8453,3.8751,3.8951,3.9036,3.9335,3.9445,3.9355,3.886,3.8545,3.8263,3.7361,3.6379,3.5331,3.4125,3.2798,3.1473,3.0295,2.9315,2.8462,2.7931,2.6404,2.4816,2.4656,2.4106,2.3361,2.2364,2.1784,1.9703,1.2999,1.111,0.9124,0.2791,0.1281,0.0363,-0.2288,-0.2884,-0.3826,-0.6664,-0.4681,-0.3592,-0.638,-0.4281,-0.3254,-0.5851,-0.6443,-0.6585,-0.639,-1.8985,-2.7345,-2.7226,-3.0514,-3.2614,-3.2828,-3.6071,-3.8039,-3.8111,-3.8209,-3.8295,-3.8369,-3.8453,-3.8537,-3.8597,-3.8668,-3.8594,-3.852,-3.8916,-3.8857,2.8311,2.8092,2.7994,2.7834,2.8118,2.8763,2.9739,3.0398,3.0503,2.9247,2.7953,2.709,2.7017,2.6557,2.6606,2.7925,2.8047,2.8223,2.868,2.8058,2.8061,2.9542,2.9506,2.9329,2.9329,2.9885,3.0342,3.0763,3.1233,3.1587,3.177,3.2106,3.2363,3.2617,3.2951,3.3258,3.3384,3.3788,3.4072,3.4315,3.5259,3.5952,3.6417,3.7317,3.8002,3.85,3.8847,3.9034,3.9181,3.9408,3.9274,3.8879,3.8434,3.7845,3.7069,3.5758,3.4614,3.3491,3.1836,3.0508,2.9369,2.8457,2.7132,2.5922,2.5509,2.4519,2.3454,2.3242,2.3007,2.2794,2.2219,1.8779,1.2978,0.3288,0.0807,-0.0861,-0.6262,-0.7539,-0.8738,-1.2552,-1.3363,-1.4672,-1.8596,-1.6042,-1.4698,-1.8424,-1.5587,-1.4313,-1.787,-1.8393,-1.8393,-1.813,-2.8805,-3.5893,-3.5744,-3.6273,-3.673,-3.6896,-3.7344,-3.7642,-3.7704,-3.7903,-3.8019,-3.8019,-3.827,-3.8417,-3.8429,-3.8451,-3.846,-3.8367,-3.8717,-3.8758,2.8338,2.8056,2.7923,2.7959,2.7923,2.8269,2.9623,3.0029,3.0133,3.0231,2.9345,2.8519,2.8398,2.7192,2.66,2.7789,2.7833,2.7925,2.8577,2.8542,2.8682,2.9454,2.9119,2.8785,2.8785,2.9388,2.9827,2.9827,3.0819,3.1717,3.2158,3.2261,3.2485,3.3031,3.308,3.3226,3.36,3.3322,3.3802,3.4915,3.5282,3.5925,3.6823,3.7795,3.8337,3.8524,3.8797,3.9023,3.9229,3.9197,3.8727,3.8044,3.7764,3.6925,3.5653,3.365,3.2545,3.1797,2.9429,2.8527,2.831,2.7684,2.5725,2.3546,2.3546,2.31,2.2579,2.2364,2.2364,2.2257,2.1307,1.4102,0.4591,-0.5389,-0.8344,-0.9,-0.9673,-0.9727,-1.2316,-2.1443,-2.3226,-2.6063,-3.5061,-2.9432,-2.6581,-3.5119,-2.8952,-2.6258,-3.432,-3.5791,-3.5864,-3.5326,-3.5671,-3.597,-3.597,-3.634,-3.6521,-3.6521,-3.6556,-3.6592,-3.6627,-3.7061,-3.7339,-3.74,-3.7931,-3.8242,-3.8293,-3.838,-3.846,-3.846,-3.8506,-3.8705,2.8636,2.8575,2.8697,2.921,2.8911,2.8758,2.9623,2.9885,3.0171,3.0793,3.0241,2.9599,2.9712,2.852,2.7637,2.7819,2.7383,2.7243,2.7781,2.7461,2.745,2.8108,2.8514,2.8785,2.8785,2.9711,3.0313,3.0313,3.1039,3.1533,3.161,3.2054,3.2485,3.3031,3.3337,3.3384,3.3194,3.4129,3.4573,3.4564,3.5506,3.6349,3.7079,3.7506,3.8025,3.8675,3.8929,3.9037,3.9097,3.8662,3.827,3.7815,3.6324,3.5,3.3659,3.2224,3.0776,2.9401,2.7994,2.7268,2.6701,2.5691,2.4566,2.3735,2.3897,2.3454,2.2744,2.2096,2.1878,2.0063,1.1878,0.8175,0.4164,-0.534,-1.3136,-2.047,-2.7889,-2.9504,-3.0079,-3.2271,-3.2599,-3.3184,-3.5299,-3.3787,-3.2984,-3.5049,-3.3471,-3.2889,-3.509,-3.5332,-3.5427,-3.5902,-3.6052,-3.6049,-3.597,-3.634,-3.6521,-3.6521,-3.6731,-3.6996,-3.7283,-3.722,-3.7436,-3.7931,-3.7856,-3.7976,-3.8267,-3.8216,-3.818,-3.8195,-3.8483,-3.8594,2.927,2.921,2.9329,2.9681,2.927,2.8939,2.9623,2.9144,2.8891,2.9827,2.9267,2.8686,2.8973,2.838,2.7787,2.7335,2.7499,2.7657,2.7621,2.7963,2.8314,2.8709,2.9031,2.921,2.921,2.9769,3.0256,3.0482,3.0845,3.1178,3.1479,3.195,3.2605,3.329,3.3337,3.3571,3.395,3.4294,3.4691,3.5231,3.5991,3.6689,3.7323,3.7858,3.8363,3.8894,3.9064,3.9064,3.8874,3.8437,3.7627,3.6525,3.5578,3.3866,3.1798,3.0675,2.9199,2.7578,2.6432,2.5881,2.5557,2.4658,2.3687,2.2794,2.2958,2.2529,2.0907,1.5765,1.4415,1.2205,0.2195,-0.3717,-0.83,-1.3136,-2.1389,-2.9567,-3.4514,-3.5699,-3.5782,-3.5902,-3.6012,-3.6121,-3.623,-3.6121,-3.6008,-3.5855,-3.5778,-3.5778,-3.5928,-3.5501,-3.5387,-3.5974,-3.6049,-3.6046,-3.597,-3.6155,-3.6267,-3.6267,-3.6557,-3.6833,-3.7032,-3.722,-3.7466,-3.7784,-3.7892,-3.8012,-3.82,-3.8156,-3.8093,-3.8111,-3.8307,-3.8393,2.9942,2.9885,2.9885,2.9885,2.9388,2.9059,2.9623,2.8635,2.7879,2.8783,2.8459,2.7978,2.796,2.8025,2.7883,2.7126,2.7795,2.8334,2.8016,2.889,2.9623,2.9711,2.9827,2.9885,2.9885,2.9942,3.0228,3.0678,3.0538,3.0789,3.1479,3.195,3.2574,3.3226,3.3114,3.3603,3.4783,3.4381,3.485,3.6062,3.6487,3.7008,3.7615,3.8363,3.8849,3.9102,3.9091,3.8888,3.8529,3.7998,3.6765,3.5166,3.4628,3.2766,3.0194,2.9139,2.7755,2.6259,2.527,2.4818,2.4681,2.4106,2.2958,2.1515,1.9893,1.9021,1.6507,0.6681,0.4057,0.2002,-0.7497,-1.5789,-2.2067,-2.3663,-2.9929,-3.5507,-3.5528,-3.5733,-3.6008,-3.6235,-3.6522,-3.6731,-3.68,-3.68,-3.6766,-3.6555,-3.6485,-3.6449,-3.6413,-3.5821,-3.5587,-3.5893,-3.5893,-3.5893,-3.5893,-3.5893,-3.5932,-3.6008,-3.6232,-3.6485,-3.6662,-3.7097,-3.7405,-3.7555,-3.7864,-3.8039,-3.8102,-3.8102,-3.8102,-3.8102,-3.8174,-3.8402,3.0369,3.0454,3.0454,3.0454,3.0,2.9623,2.9711,2.954,2.9457,2.9714,3.0383,3.0478,2.893,2.9008,2.9109,2.8437,2.8027,2.8101,2.9315,2.9127,2.9119,2.9681,3.0171,3.0454,3.0454,3.0929,3.1287,3.1341,3.0845,3.0789,3.1479,3.195,3.2106,3.1792,3.2586,3.3338,3.399,3.5219,3.5803,3.5689,3.672,3.7416,3.7845,3.8437,3.8861,3.9209,3.865,3.8344,3.8051,3.6295,3.5501,3.5084,3.2509,3.071,2.9458,2.7755,2.6364,2.527,2.5067,2.4681,2.4106,2.3431,2.2651,2.0409,1.2245,0.9365,0.6875,-0.2746,-0.5404,-0.7564,-1.7106,-2.0398,-2.3359,-3.1713,-3.4558,-3.5406,-3.5399,-3.5615,-3.5816,-3.597,-3.597,-3.5855,-3.5632,-3.562,-3.5608,-3.5602,-3.5454,-3.5461,-3.5671,-3.5705,-3.5739,-3.5778,-3.5705,-3.5632,-3.5632,-3.5632,-3.5748,-3.6124,-3.5864,-3.6163,-3.7199,-3.6765,-3.6931,-3.782,-3.7678,-3.7771,-3.8102,-3.8102,-3.8102,-3.8093,-3.844,-3.9344,3.1173,3.1119,3.1039,3.1039,3.0622,3.0143,3.0143,2.9174,2.8298,2.8581,2.8452,2.8188,2.7687,2.867,2.9326,2.8647,2.896,2.9427,3.0085,2.9942,3.0,3.0652,3.0929,3.1039,3.1039,3.0984,3.1094,3.1479,3.09,3.0789,3.1479,3.2169,3.2423,3.195,3.3384,3.4028,3.3792,3.5178,3.61,3.6587,3.7317,3.7865,3.8344,3.8411,3.8611,3.8782,3.8076,3.7407,3.6842,3.5791,3.4517,3.3052,3.1655,2.9885,2.7912,2.7299,2.5997,2.4658,2.4658,2.3944,2.31,2.2794,1.8546,1.279,0.8657,0.3526,-0.2972,-1.246,-1.5145,-1.7355,-2.6912,-2.9299,-3.031,-3.4566,-3.5406,-3.5291,-3.5535,-3.562,-3.5782,-3.623,-3.6303,-3.6195,-3.5864,-3.5821,-3.5778,-3.5694,-3.5654,-3.562,-3.5665,-3.5665,-3.5665,-3.5665,-3.5626,-3.5553,-3.5553,-3.5553,-3.5632,-3.5825,-3.5864,-3.6127,-3.6662,-3.6592,-3.6898,-3.7531,-3.7441,-3.7597,-3.7956,-3.7956,-3.7956,-3.802,-3.8154,-3.9194,3.1919,3.1739,3.1503,3.1287,3.0845,3.0538,3.0538,2.9173,2.8019,2.8269,2.7802,2.7352,2.7586,2.8944,2.9831,2.9195,2.9872,3.0538,3.0538,3.0538,3.0734,3.1425,3.1479,3.1479,3.1479,3.0929,3.0789,3.1425,3.1039,3.0984,3.1479,3.224,3.2561,3.223,3.386,3.4511,3.408,3.509,3.6175,3.7425,3.7888,3.8342,3.8825,3.845,3.8344,3.8371,3.7385,3.6532,3.5826,3.522,3.3621,3.1476,3.0941,2.9223,2.6982,2.6867,2.5782,2.4291,2.3944,2.3029,2.1681,1.9379,1.339,0.6105,0.1381,-0.5099,-1.278,-2.2175,-2.4897,-2.6626,-3.3531,-3.542,-3.5521,-3.5488,-3.5291,-3.525,-3.5501,-3.5507,-3.5632,-3.6087,-3.6342,-3.6378,-3.6087,-3.6087,-3.6087,-3.597,-3.5966,-3.5855,-3.5739,-3.5626,-3.5547,-3.5547,-3.5547,-3.5507,-3.5507,-3.5507,-3.5547,-3.5665,-3.5859,-3.6049,-3.6271,-3.6452,-3.673,-3.7097,-3.726,-3.7482,-3.7756,-3.7843,-3.7907,-3.7907,-3.7956,-3.9132,3.2504,3.2075,3.1497,3.076,3.0538,3.0538,3.0538,3.0423,3.0338,3.0394,3.0837,3.1025,3.0419,3.0892,3.1198,3.0506,3.0508,3.0538,3.0538,3.0538,3.0734,3.1425,3.1479,3.1479,3.1479,3.0929,3.0789,3.1425,3.1479,3.1479,3.1479,3.2002,3.2312,3.2261,3.3322,3.4137,3.4724,3.5319,3.631,3.7691,3.8342,3.8872,3.9216,3.8587,3.8285,3.8222,3.6699,3.5861,3.5446,3.3963,3.271,3.1528,2.9771,2.8452,2.7425,2.6178,2.5227,2.4291,2.2936,2.192,1.9847,1.1317,0.7822,0.3732,-1.386,-1.9875,-2.2497,-3.1592,-3.4492,-3.4841,-3.4686,-3.4999,-3.5358,-3.5208,-3.5208,-3.5167,-3.5041,-3.5141,-3.5205,-3.5245,-3.5553,-3.5816,-3.5778,-3.5893,-3.597,-3.597,-3.5855,-3.5739,-3.5592,-3.5575,-3.5568,-3.5568,-3.5447,-3.5399,-3.5399,-3.5399,-3.5568,-3.5893,-3.5608,-3.5733,-3.6487,-3.6202,-3.6168,-3.6558,-3.7064,-3.7358,-3.7358,-3.7727,-3.7907,-3.7936,-3.8039,-3.9775,3.2704,3.2353,3.2024,3.1311,3.1148,3.1148,3.1148,3.0789,3.0593,3.0921,3.098,3.09,3.0976,3.1282,3.1425,3.1178,3.1148,3.1148,3.1148,3.1148,3.1233,3.1479,3.1479,3.1479,3.1479,3.0929,3.0789,3.1425,3.1389,3.152,3.198,3.3034,3.351,3.3274,3.4597,3.5332,3.5319,3.6465,3.7269,3.7721,3.8724,3.9207,3.9213,3.8237,3.7669,3.7325,3.586,3.4441,3.3129,3.2585,3.1097,2.9019,2.8331,2.7362,2.6244,2.527,2.4452,2.2888,1.6081,1.3032,1.0605,0.161,-0.5837,-1.2383,-1.86,-2.4946,-3.0576,-3.335,-3.4545,-3.4914,-3.4665,-3.4956,-3.5208,-3.5208,-3.4965,-3.488,-3.5066,-3.51,-3.51,-3.5164,-3.5319,-3.5434,-3.5507,-3.5547,-3.5626,-3.5816,-3.6507,-3.6655,-3.5676,-3.5488,-3.544,-3.544,-3.5399,-3.5399,-3.5399,-3.5283,-3.5332,-3.5568,-3.5406,-3.5413,-3.5772,-3.5694,-3.5778,-3.6161,-3.6344,-3.6557,-3.6799,-3.7129,-3.7287,-3.7283,-3.7613,-3.9561,3.245,3.2244,3.1953,3.1434,3.1282,3.1109,3.0533,3.0382,3.0408,3.0673,3.0793,3.0955,3.1276,3.1419,3.1479,3.1479,3.1479,3.1479,3.1479,3.1479,3.1479,3.1479,3.1479,3.1479,3.1479,3.1257,3.1282,3.1717,3.1837,3.2066,3.2485,3.3815,3.4435,3.415,3.5467,3.6244,3.6276,3.7331,3.7906,3.8103,3.8965,3.9218,3.8885,3.7581,3.6833,3.643,3.4841,3.329,3.1862,3.155,2.9913,2.7586,2.7586,2.6778,2.5588,2.4771,2.2128,1.7599,0.755,0.3465,0.1283,-0.7731,-1.5268,-2.1262,-2.385,-2.9234,-3.4292,-3.3885,-3.4067,-3.4457,-3.4457,-3.4752,-3.505,-3.4965,-3.4752,-3.4589,-3.4824,-3.4762,-3.4752,-3.4941,-3.5475,-3.5893,-3.6127,-3.6613,-3.7075,-3.7232,-3.7549,-3.7429,-3.657,-3.6028,-3.5487,-3.4861,-3.5041,-3.5158,-3.4999,-3.5083,-3.5158,-3.5242,-3.5167,-3.5167,-3.5283,-3.5324,-3.5447,-3.5772,-3.5928,-3.6083,-3.6344,-3.6661,-3.6796,-3.6831,-3.7189,-3.9141,3.1655,3.1627,3.1152,3.0908,3.0849,3.0412,2.8579,2.9209,3.0013,2.9599,3.0516,3.136,3.1413,3.136,3.1389,3.1419,3.1419,3.1419,3.1533,3.1533,3.1479,3.1533,3.1479,3.1479,3.1533,3.195,3.2312,3.2312,3.2785,3.3129,3.3129,3.4195,3.4882,3.4807,3.5852,3.6817,3.7713,3.775,3.8122,3.8899,3.9127,3.8926,3.8237,3.6711,3.5861,3.5591,3.3691,3.2462,3.1676,3.0862,2.9337,2.7524,2.7524,2.6778,2.5496,2.4426,1.7988,0.8133,-0.2402,-0.6031,-0.7524,-1.6578,-1.9766,-2.166,-3.0381,-3.329,-3.3621,-3.3574,-3.3853,-3.419,-3.419,-3.4501,-3.4762,-3.4622,-3.4501,-3.4369,-3.4235,-3.4132,-3.4132,-3.4556,-3.5951,-3.7224,-3.7665,-3.9061,-4.0151,-4.0185,-3.8911,-3.8025,-3.8133,-3.7082,-3.5623,-3.3828,-3.4413,-3.4709,-3.4235,-3.4665,-3.4914,-3.4956,-3.4914,-3.4999,-3.5125,-3.5091,-3.5208,-3.5316,-3.5733,-3.5893,-3.5932,-3.6307,-3.6522,-3.6522,-3.6796,-3.8651,3.0435,3.0259,3.0012,2.9492,3.0113,3.0412,2.8579,2.9255,2.9961,2.8917,2.871,2.8758,2.919,2.8951,2.899,2.9896,3.0127,3.0529,3.188,3.1717,3.161,3.2002,3.1717,3.164,3.2002,3.2535,3.2835,3.2835,3.3737,3.4326,3.4326,3.5438,3.6031,3.5923,3.6947,3.7531,3.7705,3.8537,3.9021,3.9167,3.8946,3.87,3.8383,3.7212,3.5828,3.4308,3.3273,3.1581,2.9455,2.9192,2.7985,2.6203,2.6203,2.5939,2.4734,1.6908,0.79,-0.1857,-1.1898,-1.5569,-1.7225,-2.6252,-2.9509,-3.0311,-3.2317,-3.3,-3.3,-3.2485,-3.2902,-3.3527,-3.3527,-3.399,-3.4469,-3.4469,-3.428,-3.41,-3.4087,-3.4027,-3.435,-3.5366,-3.5787,-3.6417,-3.7767,-3.8223,-3.8483,-3.8765,-3.9172,-3.9436,-3.9505,-3.731,-3.519,-3.3639,-3.37,-3.3792,-3.3653,-3.3668,-3.376,-3.3839,-3.3792,-3.376,-3.3931,-3.399,-3.408,-3.4113,-3.4676,-3.4974,-3.4974,-3.5744,-3.6121,-3.6121,-3.6487,-3.83,2.8691,2.902,2.9147,2.728,2.7941,2.8537,2.6581,2.7243,2.8137,2.7792,2.7933,2.8198,2.848,2.8288,2.8337,2.9098,2.922,2.9542,3.0451,3.0279,3.0342,3.1069,3.0694,3.0476,3.0768,3.1256,3.1904,3.2821,3.3729,3.4601,3.548,3.6571,3.7048,3.699,3.7922,3.8412,3.8432,3.908,3.9405,3.9435,3.8837,3.8269,3.7801,3.6883,3.5358,3.3301,3.2066,3.0392,2.8506,2.7985,2.6906,2.5655,2.5655,2.3208,1.842,0.8278,0.098,-0.5861,-1.9803,-2.4698,-2.5798,-3.0948,-3.2853,-3.3,-3.2555,-3.2383,-3.2281,-3.2332,-3.2686,-3.3097,-3.3527,-3.3931,-3.4235,-3.4235,-3.4132,-3.4027,-3.4027,-3.4371,-3.495,-3.5867,-3.6759,-3.7731,-3.887,-3.9409,-3.9609,-3.925,-3.9685,-4.0103,-4.0103,-3.754,-3.5481,-3.4834,-3.3522,-3.2785,-3.2933,-3.308,-3.3194,-3.3274,-3.3194,-3.3194,-3.3369,-3.348,-3.3574,-3.3621,-3.4067,-3.428,-3.428,-3.5016,-3.542,-3.5387,-3.5974,-3.7244,2.6433,2.7454,2.783,2.469,2.5074,2.5658,0.0,2.4147,2.5257,2.5998,2.7127,2.8055,2.8097,2.818,2.8293,2.8449,2.8437,2.8413,2.833,2.8227,2.8474,2.9138,2.893,2.8768,2.8925,2.9467,3.056,3.2411,3.3059,3.4271,3.6331,3.7214,3.7836,3.8007,3.875,3.9224,3.9443,3.9331,3.9388,3.9502,3.8584,3.7676,3.6794,3.5859,3.4498,3.2723,3.0617,2.9335,2.8594,2.7225,2.6269,2.5722,2.5722,1.9781,1.0126,0.0476,-0.382,-0.7362,-2.5853,-3.2261,-3.2261,-3.2127,-3.2075,-3.2024,-3.1845,-3.1663,-3.1663,-3.2586,-3.2736,-3.2835,-3.3792,-3.4009,-3.3995,-3.3995,-3.4014,-3.4078,-3.4193,-3.49,-3.5757,-3.6397,-3.8264,-3.9905,-4.042,-4.155,-4.1898,-4.0612,-4.0323,-4.0289,-4.0224,-3.7843,-3.6259,-3.6428,-3.3681,-3.1943,-3.2158,-3.2586,-3.2884,-3.2884,-3.2884,-3.2933,-3.3049,-3.3146,-3.3322,-3.3433,-3.3621,-3.3746,-3.3746,-3.428,-3.4534,-3.4501,-3.5265,-3.5852,0.0,0.0,0.0,0.0,0.0,0.0,0.0,2.2848,2.3438,2.1969,2.2775,2.3811,2.3873,2.4624,2.5481,2.6529,2.649,2.6943,2.8873,2.8593,2.7995,2.745,2.7915,2.8773,2.9915,3.078,3.1423,3.1862,3.2486,3.3605,3.5524,3.6289,3.7314,3.8792,3.9172,3.9361,3.9294,3.9492,3.9233,3.8567,3.7628,3.677,3.5928,3.4293,3.3322,3.2772,3.1413,3.0398,2.9508,2.7692,2.653,2.5964,2.5964,2.0063,1.0385,0.0534,-0.8014,-1.6377,-2.82,-3.2179,-3.2127,-3.2075,-3.1919,-3.1739,-3.161,-3.1449,-3.1341,-3.1473,-3.1972,-3.2555,-3.2754,-3.3401,-3.4014,-3.4014,-3.4014,-3.4243,-3.5074,-3.5452,-3.6175,-3.8284,-3.8882,-3.9427,-4.0671,-4.0865,-4.0771,-4.0485,-4.0421,-4.0387,-4.0224,-3.8664,-3.7113,-3.6022,-3.4249,-3.2725,-3.17,-3.1717,-3.177,-3.177,-3.177,-3.1822,-3.1792,-3.2054,-3.2209,-3.2179,-3.2884,-3.3225,-3.3225,-3.37,-3.3976,-3.3976,-3.4545,-3.4588,0.0,0.0,0.0,0.0,0.0,0.0,0.0,0.0,0.0,0.0,0.0,2.2477,2.251,0.0,2.4601,2.528,2.5854,2.6562,2.7487,2.7281,2.711,2.7291,2.7597,2.8083,2.8776,2.9272,2.9957,3.1039,3.1469,3.2541,3.4491,3.5082,3.5817,3.67,3.7487,3.7859,3.772,3.8076,3.8054,3.7591,3.6547,3.5615,3.4748,3.3586,3.2636,3.1867,3.1311,3.0454,2.936,2.8372,2.7377,2.653,2.6334,2.3387,1.8067,0.8127,0.1423,-0.4834,-1.965,-2.4751,-2.5505,-3.0306,-3.1739,-3.1557,-3.1395,-3.1262,-3.1123,-3.1311,-3.1867,-3.2434,-3.2736,-3.316,-3.3528,-3.3449,-3.3353,-3.3668,-3.4834,-3.5681,-3.6725,-3.8677,-3.9405,-3.9903,-4.0583,-4.0357,-4.0002,-4.0002,-3.974,-3.9378,-3.9072,-3.7744,-3.658,-3.5932,-3.3985,-3.2518,-3.193,-3.1563,-3.1178,-3.0652,-3.0596,-3.0652,-3.0792,-3.0874,-3.1039,-3.1425,-3.1656,-3.1889,-3.2075,-3.2804,-3.3146,-3.3114,-3.2045,-3.1376,0.0,0.0,0.0,0.0,0.0,0.0,0.0,0.0,0.0,0.0,0.0,0.0,0.0,0.0,0.0,2.4322,2.5421,2.6187,2.6096,2.616,2.6575,2.7598,2.7633,2.7562,2.76,2.7669,2.8416,3.0174,3.0371,3.1353,3.3376,3.3793,3.4131,3.4427,3.5355,3.5911,3.5973,3.6319,3.6525,3.6578,3.5503,0.0,3.3646,3.3003,3.2024,3.0933,3.0959,3.0228,2.8976,2.8976,2.8249,2.7021,2.6893,2.6815,2.564,1.5686,1.2094,0.93,-1.0468,-1.7222,-1.8754,-2.8503,-3.1503,-3.1371,-3.1262,-3.1043,0.0,-3.1365,-3.1792,-3.223,-3.2736,-3.2884,-3.2884,-3.2853,-3.2704,-3.2948,-3.4401,-3.5767,-3.7117,-3.8699,-3.9809,-4.0421,-4.0421,-3.9725,-3.9151,-3.9151,-3.8758,-3.8355,-3.8034,-3.6889,-3.6034,-3.5816,-3.3918,-3.2517,-3.2123,-3.17,-3.097,-2.9797,-2.9827,-2.9942,-3.0143,-3.0086,-3.0343,-3.0822,-3.05,-3.0408,-3.0656,-3.123,-3.1483,-3.1421,-2.8778,-2.7792,0.0,0.0,0.0,0.0,0.0,0.0,0.0,0.0,0.0,0.0,0.0,0.0,0.0,0.0,0.0,0.0,2.4027,2.4701,2.6619,2.7313,2.7549,2.7484,2.7824,2.8155,2.8254,2.8573,2.8965,2.9437,2.9489,3.0332,3.2157,3.2306,0.0,0.0,0.0,3.4541,3.5457,3.5074,3.5041,3.5382,3.4533,3.3768,3.3114,3.2024,3.1311,3.1069,3.0625,2.9913,2.9123,2.9123,2.8372,2.7251,2.7941,2.7619,2.564,1.5686,1.2172,0.9516,-1.0369,0.0,0.0,-2.8287,-3.1262,-3.0962,-3.0933,-3.0822,-3.0766,-3.0822,-3.1203,-3.1709,-3.2261,-3.2363,-3.2434,-3.2754,-3.2504,-3.2724,-3.4851,-3.5778,-3.6926,-3.9144,-4.0041,-4.0421,-4.0421,-3.8644,-3.7348,-3.7572,-3.8023,-3.8315,-3.8274,-3.7607,-3.6666,-3.538,-3.5042,0.0,-3.1622,-3.177,-3.1318,-2.9854,-3.0057,-3.0256,-3.0313,-3.0369,-3.0482,-3.0567,-2.9859,-2.932,-2.9038,-2.8296,-2.7955,-2.7895,-2.5293,-2.5336,0.0,0.0,0.0,0.0,0.0,0.0,0.0,0.0,0.0,0.0,0.0,0.0,0.0,0.0,0.0,0.0,2.3815,2.538,2.6611,2.6974,2.7451,2.8404,2.8716,2.887,2.8931,2.9096,2.9234,2.936,2.9421,2.9798,3.0555,3.0657,3.1006,3.1653,3.174,3.1888,3.2104,3.1936,3.2154,3.2706,3.218,3.1946,3.1919,3.1473,3.1069,3.0625,3.0399,3.0143,2.9855,2.9797,2.8976,2.7941,0.0,0.0,0.0,0.0,2.0784,1.8218,-0.1463,-0.8048,-1.0396,-2.6136,-3.1098,-3.0906,-3.0906,-3.0822,-3.071,-3.071,-3.1094,-3.1497,-3.1686,-3.1686,-3.1686,-3.1626,-3.1413,-3.1622,-3.3281,-3.405,-3.4883,-3.6709,-3.7256,0.0,-3.7381,-3.6275,-3.5349,-3.5284,-3.5357,-3.5515,-3.5589,-3.5458,-3.5413,-3.5443,-3.4765,-3.3842,-3.2869,-3.2014,0.0,0.0,0.0,-2.9182,-2.8763,-2.9036,0.0,0.0,0.0,-2.7139,-2.5847,-2.5578,0.0,0.0,-2.0776,-2.0891,0.0,0.0,0.0,0.0,0.0,0.0,0.0,0.0,0.0,0.0,0.0,0.0,0.0,0.0,0.0,0.0,2.3186,2.4853,2.5303,2.6125,2.7167,2.8463,2.9049,2.9355,2.9357,2.9389,2.943,2.9451,2.9495,2.9541,2.9566,2.9626,2.9549,2.9255,2.9447,2.9454,2.9238,2.9114,2.943,3.0211,3.0148,3.0261,3.0508,3.0837,3.0737,3.0286,3.0229,3.0229,3.0286,3.0172,2.9536,2.8621,2.8138,2.748,2.6761,2.6209,2.6122,2.355,0.4602,-0.1457,-0.4112,-2.3854,-3.0032,-2.9798,-2.9798,-2.9978,-3.0185,-3.0185,-3.0749,-3.1257,-3.1287,-3.1178,-3.1014,-3.0734,-3.0567,-3.0688,-3.1956,-3.2575,-3.3252,-3.4698,-3.4251,-3.3691,-3.3691,-3.3555,-3.3317,-3.297,-3.2983,-3.2937,-3.2849,-3.315,-3.363,-3.4407,-3.3807,-3.3283,-3.3115,-3.1989,-3.0591,-2.9,-2.8759,-2.8188,-2.7291,-2.7655,-2.7591,-2.6926,-2.5889,-2.4418,0.0,0.0,0.0,0.0,0.0,0.0,0.0,0.0,0.0,0.0,0.0,0.0,0.0,0.0,0.0,0.0,0.0,0.0,0.0,0.0,0.0,0.0,0.0,0.0,2.2091,2.4824,2.6778,2.6729,2.829,2.9345,2.9367,2.9481,2.9603,2.9724,2.9607,2.9531,2.9531,2.9544,2.9205,2.8457,2.7922,2.7808,2.806,2.7185,2.7285,2.8439,2.8949,2.9121,2.9054,2.9933,3.0257,3.0143,2.9971,3.0028,3.0143,3.0143,2.9855,2.9108,2.6816,2.5235,2.4203,2.4203,2.4036,2.13,0.3615,-0.1012,-0.2307,-2.1774,-2.7559,-2.696,-2.696,-2.7833,-2.8793,-2.8793,-2.9748,-3.0822,-3.1178,-3.0848,-3.0456,-3.0678,-3.0342,-3.0254,-3.1294,-3.2034,-3.2862,-3.3985,-3.1916,-2.9937,-2.9937,-3.081,-3.1357,-3.0698,-3.1343,0.0,-3.1066,-3.132,-3.1574,-3.1599,-3.2372,-3.2411,-3.1284,-3.15,-3.0588,-2.8041,-2.8206,-2.7767,-2.6319,-2.6893,-2.6732,-2.5709,-2.3338,-2.12,-1.9372,0.0,0.0,0.0,0.0,0.0,0.0,0.0,0.0,0.0,0.0,0.0,0.0,0.0,0.0,0.0,0.0,0.0,0.0,0.0,0.0,0.0,0.0,0.0,0.0,2.3109,2.4145,2.5314,2.5993,2.6347,2.6254,2.6317,2.6336,2.6405,2.6347,2.6643,2.7319,2.7199,2.7312,2.7864,2.6853,2.6275,2.6205,2.5812,2.5804,2.6193,2.6792,2.7603,2.86,2.8902,2.9425,3.0143,2.9971,2.9628,2.9075,2.8911,2.837,2.754,2.6375,2.5597,2.5231,2.4913,2.4671,2.312,1.2557,0.5103,-0.2776,-2.0848,-2.6558,-2.6368,-2.6745,-2.7164,-2.7484,-2.7484,-2.8414,-2.9374,-2.9291,-2.9709,-3.0172,-3.0057,-2.997,-2.9909,-3.0245,-3.0477,-3.0797,-3.1164,-2.9304,-2.7398,-2.6547,-2.7195,-2.7745,-2.7496,-2.8294,-2.897,-2.9042,-2.9926,-3.0691,-3.1318,-3.2236,-3.2679,-3.228,-3.1662,-3.0588,-2.8823,-2.822,-2.7461,-2.6145,-2.5761,-2.5099,-2.413,-2.2055,-2.03,-1.8964,0.0,0.0,0.0,0.0,0.0,0.0,0.0,0.0,0.0,0.0,0.0,0.0,0.0,0.0,0.0,0.0,0.0,0.0,0.0,0.0,0.0,0.0,0.0,0.0,0.0,0.0,2.3702,2.4405,0.0,2.4648,2.4599,2.4616,2.4665,2.4499,2.4681,2.5318,2.5045,2.5109,2.564,2.5117,2.4758,2.4667,2.4641,2.4796,2.5083,2.5609,2.6417,2.7459,2.7599,2.8104,2.896,2.8687,2.8366,2.783,2.7186,2.6029,2.4613,2.4337,2.2703,2.075,2.223,2.1597,1.9622,1.7363,0.9116,-0.2214,-1.2747,-1.9379,-2.347,-2.3904,-2.4613,-2.5289,-2.5383,-2.6629,-2.7778,-2.7435,-2.8211,-2.8947,-2.8599,-2.8755,-2.9146,-2.9325,-2.9325,-2.8929,-2.8042,-2.6762,-2.5584,-2.4561,-2.49,-2.5115,-2.4675,-2.5562,-2.6344,-2.6443,-2.7735,-2.907,-2.9976,-3.1,-3.1725,-3.2174,-3.1058,-2.9909,-2.8816,-2.7797,-2.6555,-2.5119,-2.4212,-2.3054,-2.1605,-1.9652,-1.8183,0.0,0.0,0.0,0.0,0.0,0.0,0.0,0.0,0.0,0.0,0.0,0.0,0.0,0.0,0.0,0.0,0.0,0.0,0.0,0.0,0.0,0.0,0.0,0.0,0.0,0.0,0.0,2.1866,2.3405,0.0,0.0,0.0,0.0,2.4405,2.3971,2.367,2.3599,2.319,2.2705,2.2133,2.2818,2.3231,2.3369,2.3712,2.4245,2.4888,2.5229,2.5516,2.5778,2.604,2.6432,2.6806,2.6439,2.6361,2.6465,2.5001,2.2966,2.0718,2.0978,1.7175,1.207,1.6915,1.5344,1.1582,1.7267,1.0249,-0.0988,0.0627,-0.7733,-1.8472,-1.8896,-2.0477,0.0,0.0,-2.4269,-2.5967,-2.5686,-2.6376,-2.6931,-2.6278,-2.695,-2.7799,-2.8412,-2.8237,-2.7242,-2.4748,-2.4188,-2.4001,-2.3571,0.0,-2.326,-2.2298,-2.3304,-2.3965,-2.3391,-2.5099,-2.6778,-2.7865,-2.861,-2.9555,-3.0937,-2.9802,-2.8693,-2.7906,-2.6721,-2.5221,-2.3222,-2.2277,-2.0665,-1.8302,-1.6384,0.0,0.0,0.0,0.0,0.0,0.0,0.0,0.0,0.0,0.0,0.0,0.0,0.0,0.0,0.0,0.0,0.0,0.0,0.0,0.0,0.0,0.0,0.0,0.0,0.0,0.0,2.0016,2.0268,2.0216,2.0655,2.0879,0.0,0.0,0.0,0.0,0.0,0.0,2.1513,2.1265,2.1281,2.1709,2.1437,2.1335,2.1337,2.2766,2.3025,2.2214,2.3835,2.4586,2.4591,2.4983,2.5789,2.6854,2.6708,2.6252,2.5343,2.198,2.0213,1.9667,1.981,1.8881,1.762,1.9008,1.6161,1.1554,1.1469,0.4281,-0.5124,-0.6701,-1.192,-1.7699,-1.8289,0.0,0.0,0.0,0.0,-2.2758,-2.2703,-2.3978,-2.5292,-2.5237,-2.5369,-2.5555,-2.5722,-2.5611,-2.4558,-2.1596,-2.0147,-1.9027,-1.7766,-1.8664,0.0,-1.935,-2.0882,-2.2405,-2.3121,-2.401,-2.5498,-2.797,-2.7827,-2.8174,-2.9839,-2.8258,-2.6891,-2.6001,-2.4492,-2.2872,-2.1084,-1.9512,-1.7689,-1.5627,0.0,0.0,0.0,0.0,0.0,0.0,0.0,0.0,0.0,0.0,0.0,0.0,0.0,0.0,0.0,0.0,0.0,0.0,0.0,0.0,0.0,0.0,0.0,0.0,0.0,0.0,0.0,1.9112,1.9554,1.9562,1.9534,1.9506,0.0,0.0,0.0,0.0,0.0,0.0,0.0,0.0,0.0,1.9942,1.9774,1.9819,2.0164,2.1425,2.1813,2.1353,2.2199,2.2584,2.2571,2.2377,2.2785,2.3596,2.3383,2.3185,2.2776,2.0518,1.9094,1.8327,0.0,0.0,0.0,0.0,1.4857,1.0257,0.8982,0.3502,-0.3588,-0.7299,0.0,0.0,0.0,0.0,0.0,0.0,0.0,-1.9852,-1.9825,-2.094,-2.2223,-2.2577,-2.2945,-2.3388,-2.4103,-2.2242,-1.9898,-1.8128,-1.7125,-1.6213,-1.5103,-1.5763,0.0,0.0,0.0,-1.9886,-2.1127,-2.2242,-2.4006,-2.6956,-2.6832,-2.7095,-2.8574,-2.7222,-2.4265,-1.9428,-1.884,-1.7047,-1.3489,-1.3087,-1.3053,0.0,0.0,0.0,0.0,0.0,0.0,0.0,0.0,0.0,0.0,0.0,0.0,0.0,0.0,0.0,0.0,0.0,0.0,0.0,0.0,0.0,0.0,0.0,0.0,0.0,0.0,0.0,0.0,0.0,1.9166,1.9381,0.0,0.0,0.0,0.0,0.0,0.0,0.0,0.0,0.0,0.0,0.0,0.0,0.0,1.8577,1.9057,1.9861,2.0542,2.112,2.0673,2.0463,2.0401,1.9592,1.935,1.9529,1.8798,0.0,1.9533,1.9534,0.0,0.0,0.0,0.0,0.0,0.0,0.0,0.0,0.0,0.0,0.0,0.0,0.0,0.0,0.0,0.0,0.0,0.0,0.0,0.0,0.0,0.0,-1.8607,-1.9195,-1.9951,-2.0895,-2.2333,-1.8595,-1.4957,-1.4871,-1.4757,-1.4496,0.0,0.0,0.0,0.0,0.0,0.0,-1.8581,-2.0118,-2.2346,-2.5593,-2.5572,-2.5439,-2.5601,-2.4311,-1.9781,-1.1136,-1.1568,-1.0127,-0.569,-0.6462,0.0,0.0,0.0,0.0,0.0,0.0,0.0,0.0,0.0,0.0,0.0,0.0,0.0,0.0,0.0,0.0,0.0,0.0,0.0,0.0,0.0,0.0,0.0,0.0,0.0,0.0,0.0,0.0,0.0,0.0,0.0,0.0,0.0,0.0,0.0,0.0,0.0,0.0,0.0,0.0,0.0,0.0,0.0,0.0,0.0,0.0,0.0,0.0,0.0,0.0,2.0023,2.0245,1.9662,1.989,2.0115,2.0089,1.7556,1.6588,1.6839,1.6942,0.0,0.0,0.0,0.0,0.0,0.0,0.0,0.0,0.0,0.0,0.0,0.0,0.0,0.0,0.0,0.0,0.0,0.0,0.0,0.0,0.0,0.0,-1.6502,-1.6742,-1.6809,-1.6848,-1.6839,0.0,0.0,0.0,0.0,0.0,0.0,0.0,0.0,0.0,0.0,0.0,-1.8063,-1.8568,-2.0645,-2.5775,-2.4219,-2.071,-1.5487,-1.2729,-0.9986,-0.6972,-0.5921,-0.7076,0.0,0.0,0.0,0.0,0.0,0.0,0.0,0.0,0.0,0.0,0.0,0.0,0.0,0.0,0.0,0.0,0.0,0.0,0.0,0.0,0.0,0.0,0.0,0.0,0.0,0.0,0.0,0.0,0.0,0.0,0.0,0.0,0.0,0.0,0.0,0.0,0.0,0.0,0.0,0.0,0.0,0.0,0.0,0.0,0.0,0.0,0.0,0.0,0.0,0.0,0.0,0.0,0.0,0.0,0.0,0.0,0.0,0.0,1.7303,1.6476,0.0,0.0,0.0,0.0,0.0,0.0,0.0,0.0,0.0,0.0,0.0,0.0,0.0,0.0,0.0,0.0,0.0,0.0,0.0,0.0,0.0,0.0,0.0,0.0,0.0,0.0,0.0,0.0,0.0,0.0,0.0,0.0,0.0,0.0,0.0,0.0,0.0,0.0,0.0,0.0,-1.6436,-1.3163,-1.237,-1.69,-1.189,-0.884,-1.0453,-0.5746,-0.3468,-0.5332,-0.2002,0.0,0.0,0.0,0.0,0.0,0.0,0.0,0.0,0.0,0.0,0.0,0.0,0.0,0.0,0.0,0.0,0.0,0.0,0.0,0.0,0.0,0.0,0.0,0.0,0.0,0.0,0.0,0.0,0.0,0.0,0.0,0.0,0.0,0.0,0.0,0.0,0.0,0.0,0.0,0.0,0.0,0.0,0.0,0.0,0.0,0.0,0.0,0.0,0.0,0.0,0.0,0.0,0.0,0.0,0.0,0.0,0.0,0.0,0.0,1.6907,1.6269,0.0,0.0,0.0,0.0,0.0,0.0,0.0,0.0,0.0,0.0,0.0,0.0,0.0,0.0,0.0,0.0,0.0,0.0,0.0,0.0,0.0,0.0,0.0,0.0,0.0,0.0,0.0,0.0,0.0,0.0,0.0,0.0,0.0,0.0,0.0,0.0,0.0,0.0,0.0,0.0,-1.197,-0.5841,-0.2447,-0.5414,0.0798,0.302,-0.2404,0.2373,0.3682,-0.1038,0.2673,0.0,0.0,0.0,0.0,0.0,0.0,0.0,0.0,0.0,0.0,0.0,0.0,0.0,0.0,0.0,0.0,0.0,0.0,0.0,0.0,0.0,0.0,0.0,0.0,0.0,0.0,0.0,0.0,0.0,0.0,0.0,0.0,0.0,0.0,0.0,0.0,0.0,0.0,0.0,0.0,0.0,0.0,0.0,0.0,0.0,0.0,0.0,0.0,0.0,0.0,0.0,0.0,0.0,0.0,0.0,0.0,0.0,0.0,0.0,0.0,0.0,0.0,0.0,0.0,0.0,0.0,0.0,0.0,0.0,0.0,0.0,0.0,0.0,0.0,0.0,0.0,0.0,0.0,0.0,0.0,0.0,0.0,0.0,0.0,0.0,0.0,0.0,0.0,0.0,0.0,0.0,0.0,0.0,0.0,0.0,0.0,0.0,0.0,0.0,0.0,0.0,-0.2125,0.2822,0.5929,0.4777,0.6031,0.964,1.6256,1.6677,1.4931,1.1084,0.0,0.0,0.0,0.0,0.0,0.0,0.0,0.0,0.0,0.0,0.0,0.0,0.0,0.0,0.0,0.0,0.0,0.0,0.0,0.0,0.0,0.0,0.0,0.0,0.0,0.0,0.0,0.0,0.0,0.0,0.0,0.0,0.0,0.0,0.0,0.0,0.0,0.0,0.0,0.0,0.0,0.0,0.0,0.0,0.0,0.0,0.0,0.0,0.0,0.0,0.0,0.0,0.0,0.0,0.0,0.0,0.0,0.0,0.0,0.0,0.0,0.0,0.0,0.0,0.0,0.0,0.0,0.0,0.0,0.0,0.0,0.0,0.0,0.0,0.0,0.0,0.0,0.0,0.0,0.0,0.0,0.0,0.0,0.0,0.0,0.0,0.0,0.0,0.0,0.0,0.0,0.0,0.0,0.0,0.0,0.0,0.0,0.0,0.0,0.0,0.0,0.0,-0.1816,0.8218,1.4904,1.3439,1.9233,2.1879,1.8545,2.2007,1.8547,0.4871,0.0,0.0,0.0,0.0,0.0,0.0,0.0,0.0,0.0,0.0,0.0,0.0,0.0,0.0,0.0,0.0,0.0,0.0,0.0,0.0,0.0,0.0,0.0,0.0,0.0,0.0,0.0,0.0,0.0,0.0,0.0,0.0,0.0,0.0,0.0,0.0,0.0,0.0,0.0,0.0,0.0,0.0,0.0,0.0,0.0,0.0,0.0,0.0,0.0,0.0,0.0,0.0,0.0,0.0,0.0,0.0,0.0,0.0,0.0,0.0,0.0,0.0,0.0,0.0,0.0,0.0,0.0,0.0,0.0,0.0,0.0,0.0,0.0,0.0,0.0,0.0,0.0,0.0,0.0,0.0,0.0,0.0,0.0,0.0,0.0,0.0,0.0,0.0,0.0,0.0,0.0,0.0,0.0,0.0,0.0,0.0,0.0,0.0,0.0,0.0,0.0,0.0,0.1138,1.4109,2.305,2.2117,2.896,3.0319,2.2127,2.5628,2.1038,0.4211,0.0,0.0,0.0,0.0,0.0,0.0,0.0,0.0,0.0,0.0,0.0,0.0,0.0,0.0,0.0,0.0,0.0,0.0,0.0,0.0,0.0,0.0,0.0,0.0,0.0,0.0,0.0,0.0,0.0,0.0,0.0,0.0,0.0,0.0,0.0,0.0,0.0,0.0,0.0,0.0,0.0,0.0,0.0,0.0,0.0,0.0,0.0,0.0,0.0,0.0,0.0,0.0,0.0,0.0,0.0,0.0,0.0,0.0,0.0,0.0,0.0,0.0,0.0,0.0,0.0,0.0,0.0,0.0,0.0,0.0,0.0,0.0,0.0,0.0,0.0,0.0,0.0,0.0,0.0,0.0,0.0,0.0,0.0,0.0,0.0,0.0,0.0,0.0,0.0,0.0,0.0,0.0,0.0,0.0,0.0,0.0,0.0,0.0,0.0,0.0,0.0,0.0,0.9668,2.1288,2.9934,3.1199,3.2368,3.242,3.0863,2.8703,2.3629,0.0,0.0,0.0,0.0,0.0,0.0,0.0,0.0,0.0,0.0,0.0,0.0,0.0,0.0,0.0,0.0,0.0,0.0,0.0,0.0,0.0,0.0,0.0,0.0,0.0,0.0,0.0,0.0,0.0,0.0,0.0,0.0,0.0,0.0,0.0,0.0,0.0,0.0,0.0,0.0,0.0,0.0,0.0,0.0,0.0,0.0,0.0,0.0,0.0,0.0,0.0,0.0,0.0,0.0,0.0,0.0,0.0,0.0,0.0,0.0,0.0,0.0,0.0,0.0,0.0,0.0,0.0,0.0,0.0,0.0,0.0,0.0,0.0,0.0,0.0,0.0,0.0,0.0,0.0,0.0,0.0,0.0,0.0,0.0,0.0,0.0,0.0,0.0,0.0,0.0,0.0,0.0,0.0,0.0,0.0,0.0,0.0,0.0,0.0,0.0,0.0,0.0,0.0,0.8574,1.7901,2.532,2.8154,3.0397,3.0516,2.756,2.6079,2.203,1.4312,0.0,0.0,0.0,0.0,0.0,0.0,0.0,0.0,0.0,0.0,0.0,0.0,0.0,0.0,0.0,0.0,0.0,0.0,0.0,0.0,0.0,0.0,0.0,0.0,0.0,0.0,0.0,0.0,0.0,0.0,0.0,0.0,0.0,0.0,0.0,0.0,0.0,0.0,0.0,0.0,0.0,0.0,0.0,0.0,0.0,0.0,0.0,0.0,0.0,0.0,0.0,0.0,0.0,0.0,0.0,0.0,0.0,0.0,0.0,0.0,0.0,0.0,0.0,0.0,0.0,0.0,0.0,0.0,0.0,0.0,0.0,0.0,0.0,0.0,0.0,0.0,0.0,0.0,0.0,0.0,0.0,0.0,0.0,0.0,0.0,0.0,0.0,0.0,0.0,0.0,0.0,0.0,0.0,0.0,0.0,0.0,0.0,0.0,0.0,0.0,0.0,0.0,0.0,1.6475,2.3147,2.5013,2.7376,2.7661,2.4803,2.36,2.0395,1.42,0.0,0.0,0.0,0.0,0.0,0.0,0.0,0.0,0.0,0.0,0.0,0.0,0.0,0.0,0.0,0.0,0.0,0.0,0.0,0.0,0.0,0.0,0.0,0.0,0.0,0.0,0.0,0.0,0.0,0.0,0.0,0.0,0.0,0.0,0.0,0.0,0.0,0.0,0.0,0.0,0.0,0.0,0.0,0.0,0.0,0.0,0.0,0.0,0.0,0.0,0.0,0.0,0.0,0.0,0.0,0.0,0.0,0.0,0.0,0.0,0.0,0.0,0.0,0.0,0.0,0.0,0.0,0.0,0.0,0.0,0.0,0.0,0.0,0.0,0.0,0.0,0.0,0.0,0.0,0.0,0.0,0.0,0.0,0.0,0.0,0.0,0.0,0.0,0.0,0.0,0.0,0.0,0.0,0.0,0.0,0.0,0.0,0.0,0.0,0.0,0.0,0.0,0.0,1.6542,2.2616,2.2101,2.3724,2.4263,2.2696,2.1262,1.8648,1.4343,1.2,0.0,0.0,0.0,0.0,0.0,0.0,0.0,0.0,0.0,0.0,0.0,0.0,0.0,0.0,0.0,0.0,0.0,0.0,0.0,0.0,0.0,0.0,0.0,0.0,0.0,0.0,0.0,0.0,0.0,0.0,0.0,0.0,0.0,0.0,0.0,0.0,0.0,0.0,0.0,0.0,0.0,0.0,0.0,0.0,0.0,0.0,0.0,0.0,0.0,0.0,0.0,0.0,0.0,0.0,0.0,0.0,0.0,0.0,0.0,0.0,0.0,0.0,0.0,0.0,0.0,0.0,0.0,0.0,0.0,0.0,0.0,0.0,0.0,0.0,0.0,0.0,0.0,0.0,0.0,0.0,0.0,0.0,0.0,0.0,0.0,0.0,0.0,0.0,0.0,0.0,0.0,0.0,0.0,0.0,0.0,0.0,0.0,0.0,0.0,0.0,0.0,0.0,1.3374,1.7533,2.0515,2.2135,2.2306,2.0485,1.8645,1.6263,1.336,1.098,0.0,0.0,0.0,0.0,0.0,0.0,0.0,0.0,0.0,0.0,0.0,0.0,0.0,0.0,0.0,0.0,0.0,0.0,0.0,0.0,0.0,0.0,0.0,0.0,0.0,0.0,0.0,0.0,0.0,0.0,0.0,0.0,0.0,0.0,0.0,0.0,0.0,0.0,0.0,0.0,0.0,0.0,0.0,0.0,0.0,0.0,0.0,0.0,0.0,0.0,0.0,0.0,0.0,0.0,0.0,0.0,0.0,0.0,0.0,0.0,0.0,0.0,0.0,0.0,0.0,0.0,0.0,0.0,0.0,0.0,0.0,0.0,0.0,0.0,0.0,0.0,0.0,0.0,0.0,0.0,0.0,0.0,0.0,0.0,0.0,0.0,0.0,0.0,0.0,0.0,0.0,0.0,0.0,0.0,0.0,0.0,0.0,0.0,0.0,0.0,0.0,0.0,1.0734,1.3835,1.792,1.9321,1.9555,1.8585,1.6881,1.4955,1.2887,1.0504,0.0,0.0,0.0,0.0,0.0,0.0,0.0,0.0,0.0,0.0,0.0,0.0,0.0,0.0,0.0,0.0,0.0,0.0,0.0,0.0,0.0,0.0,0.0,0.0,0.0,0.0,0.0,0.0,0.0,0.0,0.0,0.0,0.0,0.0,0.0,0.0,0.0,0.0,0.0,0.0,0.0,0.0,0.0,0.0,0.0,0.0,0.0,0.0,0.0,0.0,0.0,0.0,0.0,0.0,0.0,0.0,0.0,0.0,0.0,0.0,0.0,0.0,0.0,0.0,0.0,0.0,0.0,0.0,0.0,0.0,0.0,0.0,0.0,0.0,0.0,0.0,0.0,0.0,0.0,0.0,0.0,0.0,0.0,0.0,0.0,0.0,0.0,0.0,0.0,0.0,0.0,0.0,0.0,0.0,0.0,0.0,0.0,0.0,0.0,0.0,0.0,0.0,0.0,1.1656,1.5136,1.6289,1.6831,1.6831,1.566,1.4229,1.2561,0.0,0.0,0.0,0.0,0.0,0.0,0.0,0.0,0.0,0.0,0.0,0.0,0.0,0.0,0.0,0.0,0.0,0.0,0.0,0.0,0.0,0.0,0.0,0.0,0.0,0.0,0.0,0.0,0.0,0.0,0.0,0.0,0.0,0.0,0.0,0.0,0.0,0.0,0.0,0.0,0.0,0.0,0.0,0.0,0.0,0.0,0.0,0.0,0.0,0.0,0.0,0.0,0.0,0.0,0.0,0.0,0.0,0.0,0.0,0.0,0.0,0.0,0.0,0.0,0.0,0.0,0.0,0.0,0.0,0.0,0.0,0.0,0.0,0.0,0.0,0.0,0.0,0.0,0.0,0.0,0.0,0.0,0.0,0.0,0.0,0.0,0.0,0.0,0.0,0.0,0.0,0.0,0.0,0.0,0.0,0.0,0.0,0.0,0.0,0.0,0.0,0.0,0.0,0.0,1.1966,1.3369,1.474,1.5686,1.5816,1.4525,1.3136,1.1697,0.0,0.0,0.0,0.0,0.0,0.0,0.0,0.0,0.0,0.0,0.0,0.0,0.0,0.0]}]]]